[[{"header":{"parameterUnit":"m.s-1","parameterCategory":1,"la1":30.6,"la2":28.766,"lo1":-90.7593,"lo2":-88.6598,"dy":0.0162,"dx":0.0183,"nx":116,"ny":114,"refTime":"2024-04-20T12:00:00:Z","depth":0,"parameterNumber":2,"parameterNumberName":"U-component_of_WINDS"},"data":[0.0,0.0,0.0,0.0,0.0,0.0,0.0,0.0,0.0,0.0,0.0,0.0,0.0,0.0,0.0,0.0,0.0,0.0,0.0,0.0,0.0,0.0,0.0,0.0,0.0,0.0,0.0,0.0,0.0,0.0,0.0,0.0,0.0,0.0,0.0,0.0,0.0,0.0,0.0,0.0,0.0,0.0,0.0,0.0,0.0,0.0,0.0,0.0,0.0,0.0,0.0,0.0,0.0,0.0,0.0,0.0,0.0,0.0,0.0,0.0,0.0,0.0,0.0,0.0,0.0,0.0,0.0,0.0,0.0,0.0,0.0,0.0,0.0,0.0,0.0,0.0,0.0,0.0,0.0,0.0,0.0,0.0,0.0,0.0,0.0,0.0,0.0,0.0,0.0,0.0,0.0,0.0,0.0,0.0,0.0,0.0,0.0,0.0,0.0,0.0,0.0,0.0,0.0,0.0,0.0,0.0,0.0,0.0,0.0,0.0,0.0,0.0,0.0,0.0,0.0,0.0,0.0,0.0,0.0,0.0,0.0,0.0,0.0,0.0,0.0,0.0,0.0,0.0,0.0,0.0,0.0,0.0,0.0,0.0,0.0,0.0,0.0,0.0,0.0,0.0,0.0,0.0,0.0,0.0,0.0,0.0,0.0,0.0,0.0,0.0,0.0,0.0,0.0,0.0,0.0,0.0,0.0,0.0,0.0,0.0,0.0,0.0,0.0,0.0,0.0,0.0,0.0,0.0,0.0,0.0,0.0,0.0,0.0,0.0,0.0,0.0,0.0,0.0,0.0,0.0,0.0,0.0,0.0,0.0,0.0,0.0,0.0,0.0,0.0,0.0,0.0,0.0,0.0,0.0,0.0,0.0,0.0,0.0,0.0,0.0,0.0,0.0,0.0,0.0,0.0,0.0,0.0,0.0,0.0,0.0,0.0,0.0,0.0,0.0,0.0,0.0,0.0,0.0,0.0,0.0,0.0,0.0,0.0,0.0,0.0,0.0,0.0,0.0,0.0,0.0,0.0,0.0,0.0,0.0,0.0,0.0,0.0,0.0,0.0,0.0,0.0,0.0,0.0,0.0,0.0,0.0,0.0,0.0,0.0,0.0,0.0,0.0,0.0,0.0,0.0,0.0,0.0,0.0,0.0,0.0,0.0,0.0,0.0,0.0,0.0,0.0,0.0,0.0,0.0,0.0,0.0,0.0,0.0,0.0,0.0,0.0,0.0,0.0,0.0,0.0,0.0,0.0,0.0,0.0,0.0,0.0,0.0,0.0,0.0,0.0,0.0,0.0,0.0,0.0,0.0,0.0,0.0,0.0,0.0,0.0,0.0,0.0,0.0,0.0,0.0,0.0,0.0,0.0,0.0,0.0,0.0,0.0,0.0,0.0,0.0,0.0,0.0,0.0,0.0,0.0,0.0,0.0,0.0,0.0,0.0,0.0,0.0,0.0,0.0,0.0,0.0,0.0,0.0,0.0,0.0,0.0,0.0,0.0,0.0,0.0,0.0,0.0,0.0,0.0,0.0,0.0,0.0,0.0,0.0,0.0,0.0,0.0,0.0,0.0,0.0,0.0,0.0,0.0,0.0,0.0,0.0,0.0,0.0,0.0,0.0,0.0,0.0,0.0,0.0,0.0,0.0,0.0,0.0,0.0,0.0,0.0,0.0,0.0,0.0,0.0,0.0,0.0,0.0,0.0,0.0,0.0,0.0,0.0,0.0,0.0,0.0,0.0,0.0,0.0,0.0,0.0,0.0,0.0,0.0,0.0,0.0,0.0,0.0,0.0,0.0,0.0,0.0,0.0,0.0,0.0,0.0,0.0,0.0,0.0,0.0,0.0,0.0,0.0,0.0,0.0,0.0,0.0,0.0,0.0,0.0,0.0,0.0,0.0,0.0,0.0,0.0,0.0,0.0,0.0,0.0,0.0,0.0,0.0,0.0,0.0,0.0,0.0,0.0,0.0,0.0,0.0,0.0,0.0,0.0,0.0,0.0,0.0,0.0,0.0,0.0,0.0,0.0,0.0,0.0,0.0,0.0,0.0,0.0,0.0,0.0,0.0,0.0,0.0,0.0,0.0,0.0,0.0,0.0,0.0,0.0,0.0,0.0,0.0,0.0,0.0,0.0,0.0,0.0,0.0,0.0,0.0,0.0,0.0,0.0,0.0,0.0,0.0,0.0,0.0,0.0,0.0,0.0,0.0,0.0,0.0,0.0,0.0,0.0,0.0,0.0,0.0,0.0,0.0,0.0,0.0,0.0,0.0,0.0,0.0,0.0,0.0,0.0,0.0,0.0,0.0,0.0,0.0,0.0,0.0,0.0,0.0,0.0,0.0,0.0,0.0,0.0,0.0,0.0,0.0,0.0,0.0,0.0,0.0,0.0,0.0,0.0,0.0,0.0,0.0,0.0,0.0,0.0,0.0,0.0,0.0,0.0,0.0,0.0,0.0,0.0,0.0,0.0,0.0,0.0,0.0,0.0,0.0,0.0,0.0,0.0,0.0,0.0,0.0,0.0,0.0,0.0,0.0,0.0,0.0,0.0,0.0,0.0,0.0,0.0,0.0,0.0,0.0,0.0,0.0,0.0,0.0,0.0,0.0,0.0,0.0,0.0,0.0,0.0,0.0,0.0,0.0,0.0,0.0,0.0,0.0,0.0,0.0,0.0,0.0,0.0,0.0,0.0,0.0,0.0,0.0,0.0,0.0,0.0,0.0,0.0,0.0,0.0,0.0,0.0,0.0,0.0,0.0,0.0,0.0,0.0,0.0,0.0,0.0,0.0,0.0,0.0,0.0,0.0,0.0,0.0,0.0,0.0,0.0,0.0,0.0,0.0,0.0,0.0,0.0,0.0,0.0,0.0,0.0,0.0,0.0,0.0,0.0,0.0,0.0,0.0,0.0,0.0,0.0,0.0,0.0,0.0,0.0,0.0,0.0,0.0,0.0,0.0,0.0,0.0,0.0,0.0,0.0,0.0,0.0,0.0,0.0,0.0,0.0,0.0,0.0,0.0,0.0,0.0,0.0,0.0,0.0,0.0,0.0,0.0,0.0,0.0,0.0,0.0,0.0,0.0,0.0,0.0,0.0,0.0,0.0,0.0,0.0,0.0,0.0,0.0,0.0,0.0,0.0,0.0,0.0,0.0,0.0,0.0,0.0,0.0,0.0,0.0,0.0,0.0,0.0,0.0,0.0,0.0,0.0,0.0,0.0,0.0,0.0,0.0,0.0,0.0,0.0,0.0,0.0,0.0,0.0,0.0,0.0,0.0,0.0,0.0,0.0,0.0,0.0,0.0,0.0,0.0,0.0,0.0,0.0,0.0,0.0,0.0,0.0,0.0,0.0,0.0,0.0,0.0,0.0,0.0,0.0,0.0,0.0,0.0,0.0,0.0,0.0,0.0,0.0,0.0,0.0,0.0,0.0,0.0,0.0,0.0,0.0,0.0,0.0,0.0,0.0,0.0,0.0,0.0,0.0,0.0,0.0,0.0,0.0,0.0,0.0,0.0,0.0,0.0,0.0,0.0,0.0,0.0,0.0,0.0,0.0,0.0,0.0,0.0,0.0,0.0,0.0,0.0,0.0,0.0,0.0,0.0,0.0,0.0,0.0,0.0,0.0,0.0,0.0,0.0,0.0,0.0,0.0,0.0,0.0,0.0,0.0,0.0,0.0,0.0,0.0,0.0,0.0,0.0,0.0,0.0,0.0,0.0,0.0,0.0,0.0,0.0,0.0,0.0,0.0,0.0,0.0,0.0,0.0,0.0,0.0,0.0,0.0,0.0,0.0,0.0,0.0,0.0,0.0,0.0,0.0,0.0,0.0,0.0,0.0,0.0,0.0,0.0,0.0,0.0,0.0,0.0,0.0,0.0,0.0,0.0,0.0,0.0,0.0,0.0,0.0,0.0,0.0,0.0,0.0,0.0,0.0,0.0,0.0,0.0,0.0,0.0,0.0,0.0,0.0,0.0,0.0,0.0,0.0,0.0,0.0,0.0,0.0,0.0,0.0,0.0,0.0,0.0,0.0,0.0,0.0,0.0,0.0,0.0,0.0,0.0,0.0,0.0,0.0,0.0,0.0,0.0,0.0,0.0,0.0,0.0,0.0,0.0,0.0,0.0,0.0,0.0,0.0,0.0,0.0,0.0,0.0,0.0,0.0,0.0,0.0,0.0,0.0,0.0,0.0,0.0,0.0,0.0,0.0,0.0,0.0,0.0,0.0,0.0,0.0,0.0,0.0,0.0,0.0,0.0,0.0,0.0,0.0,0.0,0.0,0.0,0.0,0.0,0.0,0.0,0.0,0.0,0.0,0.0,0.0,0.0,0.0,0.0,0.0,0.0,0.0,0.0,0.0,0.0,0.0,0.0,0.0,0.0,0.0,0.0,0.0,0.0,0.0,0.0,0.0,0.0,0.0,0.0,0.0,0.0,0.0,0.0,0.0,0.0,0.0,0.0,0.0,0.0,0.0,0.0,0.0,0.0,0.0,0.0,0.0,0.0,0.0,0.0,0.0,0.0,0.0,0.0,0.0,0.0,0.0,0.0,0.0,0.0,0.0,0.0,0.0,0.0,0.0,0.0,0.0,0.0,0.0,0.0,0.0,0.0,0.0,0.0,0.0,0.0,0.0,0.0,0.0,0.0,0.0,0.0,0.0,0.0,0.0,0.0,0.0,0.0,0.0,0.0,0.0,0.0,0.0,0.0,0.0,0.0,0.0,0.0,0.0,0.0,0.0,0.0,0.0,0.0,0.0,0.0,0.0,0.0,0.0,0.0,0.0,0.0,0.0,0.0,0.0,0.0,0.0,0.0,0.0,0.0,0.0,0.0,0.0,0.0,0.0,0.0,0.0,0.0,0.0,0.0,0.0,0.0,0.0,0.0,0.0,0.0,0.0,0.0,0.0,0.0,0.0,0.0,0.0,0.0,0.0,0.0,0.0,0.0,0.0,0.0,0.0,0.0,0.0,0.0,0.0,0.0,0.0,0.0,0.0,0.0,0.0,0.0,0.0,0.0,0.0,0.0,0.0,0.0,0.0,0.0,0.0,0.0,0.0,0.0,0.0,0.0,0.0,0.0,0.0,0.0,0.0,0.0,0.0,0.0,0.0,0.0,0.0,0.0,0.0,0.0,0.0,0.0,0.0,0.0,0.0,0.0,0.0,0.0,0.0,0.0,0.0,0.0,0.0,0.0,0.0,0.0,0.0,0.0,0.0,0.0,0.0,0.0,0.0,0.0,0.0,0.0,0.0,0.0,0.0,0.0,0.0,0.0,0.0,0.0,0.0,0.0,0.0,0.0,0.0,0.0,0.0,0.0,0.0,0.0,0.0,0.0,0.0,0.0,0.0,0.0,0.0,0.0,0.0,0.0,0.0,0.0,0.0,0.0,0.0,0.0,0.0,0.0,0.0,0.0,0.0,0.0,0.0,0.0,0.0,0.0,0.0,0.0,0.0,0.0,0.0,0.0,0.0,0.0,0.0,0.0,0.0,0.0,0.0,0.0,0.0,0.0,0.0,0.0,0.0,0.0,0.0,0.0,0.0,0.0,0.0,0.0,0.0,0.0,0.0,0.0,0.0,0.0,0.0,0.0,0.0,0.0,0.0,0.0,0.0,0.0,0.0,0.0,0.0,0.0,0.0,0.0,0.0,0.0,0.0,0.0,0.0,0.0,0.0,0.0,0.0,0.0,0.0,0.0,0.0,0.0,0.0,0.0,0.0,0.0,0.0,0.0,0.0,0.0,0.0,0.0,0.0,0.0,0.0,0.0,0.0,0.0,0.0,0.0,0.0,0.0,0.0,0.0,0.0,0.0,0.0,0.0,0.0,0.0,0.0,0.0,0.0,0.0,0.0,0.0,0.0,0.0,0.0,0.0,0.0,0.0,0.0,0.0,0.0,0.0,0.0,0.0,0.0,0.0,0.0,0.0,0.0,0.0,0.0,0.0,0.0,0.0,0.0,0.0,0.0,0.0,0.0,0.0,0.0,0.0,0.0,0.0,0.0,0.0,0.0,0.0,0.0,0.0,0.0,0.0,0.0,0.0,0.0,0.0,0.0,0.0,0.0,0.0,0.0,0.0,0.0,0.0,0.0,0.0,0.0,0.0,0.0,-3.9897,0.0,0.0,0.0,0.0,0.0,0.0,0.0,0.0,0.0,0.0,0.0,0.0,0.0,0.0,0.0,0.0,0.0,0.0,0.0,0.0,0.0,0.0,0.0,0.0,-0.9562,-1.079,-1.2064,-1.3053,-1.3767,-1.4115,0.0,0.0,0.0,0.0,0.0,-1.4852,-1.5038,-1.4795,-1.4141,-1.5243,-1.5838,-1.5921,-1.632,-1.615,-1.5531,0.0,0.0,0.0,0.0,0.0,0.0,0.0,0.0,0.0,0.0,0.0,0.0,0.0,0.0,0.0,0.0,0.0,0.0,0.0,0.0,0.0,0.0,0.0,0.0,0.0,0.0,0.0,0.0,0.0,0.0,0.0,0.0,0.0,0.0,0.0,0.0,0.0,0.0,0.0,0.0,0.0,0.0,0.0,0.0,0.0,0.0,0.0,0.0,0.0,0.0,0.0,0.0,0.0,0.0,0.0,0.0,0.0,0.0,0.0,0.0,0.0,0.0,0.0,0.0,0.0,0.0,0.0,0.0,0.0,0.0,0.0,-4.1466,0.0,0.0,0.0,0.0,0.0,0.0,0.0,0.0,0.0,0.0,0.0,0.0,0.0,0.0,0.0,0.0,0.0,0.0,0.0,0.0,0.0,-0.7843,-0.9729,-1.0722,-1.1711,-1.2894,-1.4116,-1.4769,-1.4692,-1.5527,-1.6068,-1.6203,-1.6027,-1.6018,-1.621,-1.6089,-1.5952,-1.5818,-1.6829,-1.7694,-1.8459,-1.8829,-1.8309,-1.7084,-1.71,0.0,0.0,0.0,0.0,0.0,0.0,0.0,0.0,0.0,0.0,0.0,0.0,0.0,0.0,0.0,0.0,0.0,0.0,0.0,0.0,0.0,0.0,0.0,0.0,0.0,0.0,0.0,0.0,0.0,0.0,0.0,0.0,0.0,0.0,0.0,0.0,0.0,0.0,0.0,0.0,0.0,0.0,0.0,0.0,0.0,0.0,0.0,0.0,0.0,0.0,0.0,0.0,0.0,0.0,0.0,0.0,0.0,0.0,0.0,0.0,0.0,0.0,0.0,-4.3443,-4.3579,-4.4259,-4.3599,-4.3675,-4.4403,-4.516,-4.512,-4.4438,-4.3339,0.0,0.0,0.0,0.0,0.0,0.0,0.0,0.0,0.0,0.0,0.0,0.0,0.0,0.0,0.0,0.0,0.0,0.0,0.0,-0.8992,-1.0648,-1.1918,-1.3174,-1.4495,-1.5245,-1.5898,-1.6491,-1.6521,-1.6663,-1.7024,-1.6905,-1.6661,-1.629,-1.6711,-1.6586,-1.5896,-1.6883,-1.7541,-1.783,-1.8629,-1.9278,-1.978,-1.9859,-1.9638,-1.9223,0.0,0.0,0.0,0.0,0.0,0.0,0.0,0.0,0.0,0.0,0.0,0.0,0.0,0.0,0.0,0.0,0.0,0.0,0.0,0.0,0.0,0.0,0.0,0.0,0.0,0.0,0.0,0.0,0.0,0.0,0.0,0.0,0.0,0.0,0.0,0.0,0.0,0.0,0.0,0.0,0.0,-3.2021,-3.3444,0.0,0.0,0.0,0.0,0.0,0.0,0.0,0.0,0.0,0.0,0.0,0.0,0.0,-4.1731,-4.2435,-4.3342,-4.3894,-4.4068,-4.4862,-4.5281,-4.5386,-4.528,-4.5299,-4.5414,-4.5475,0.0,-4.5207,-4.3577,0.0,0.0,0.0,0.0,0.0,0.0,0.0,0.0,0.0,0.0,0.0,0.0,0.0,0.0,0.0,0.0,0.0,0.0,0.0,0.0,0.0,-1.26,-1.3486,-1.4953,-1.5866,-1.6553,-1.7044,-1.7099,-1.7303,-1.7743,-1.7457,-1.7536,-1.8091,-1.7973,-1.7938,-1.8029,-1.8344,-1.8767,-1.9337,-1.9717,-2.0607,-2.1806,-2.1839,-2.1503,-2.0881,-2.071,0.0,0.0,0.0,0.0,0.0,0.0,0.0,0.0,0.0,0.0,0.0,0.0,0.0,0.0,0.0,0.0,0.0,0.0,0.0,0.0,0.0,0.0,0.0,0.0,0.0,0.0,0.0,0.0,0.0,0.0,0.0,0.0,0.0,0.0,0.0,0.0,0.0,0.0,0.0,-3.2664,-3.4783,-3.5932,-3.7269,-3.7537,0.0,0.0,0.0,0.0,0.0,0.0,0.0,0.0,0.0,-4.2117,-4.2294,-4.2744,-4.3498,-4.4251,-4.4626,-4.4666,-4.5303,-4.5594,-4.5594,-4.5594,-4.5594,-4.5594,-4.5568,-4.5559,-4.5482,-4.4688,-4.4093,-4.3573,0.0,0.0,0.0,0.0,-3.9426,-3.8674,0.0,0.0,0.0,0.0,0.0,0.0,0.0,0.0,0.0,0.0,0.0,0.0,-1.262,-1.2745,-1.321,-1.4503,-1.5582,-1.6367,-1.6874,-1.7136,-1.7567,-1.8232,-1.7843,-1.8208,-1.9417,-1.8944,-1.8908,-1.9332,-1.9308,-1.9634,-2.0268,-2.0494,-2.1224,-2.2396,-2.2396,-2.2393,-2.2353,-2.2241,-2.1068,-1.9253,0.0,0.0,0.0,0.0,0.0,0.0,0.0,0.0,0.0,0.0,0.0,0.0,0.0,0.0,0.0,0.0,0.0,0.0,0.0,0.0,0.0,0.0,0.0,0.0,0.0,0.0,0.0,0.0,0.0,0.0,0.0,0.0,0.0,0.0,0.0,0.0,0.0,-3.552,-3.7255,-3.8546,-3.9642,-3.9676,0.0,0.0,0.0,0.0,0.0,0.0,-4.1583,-4.1715,-4.2136,-4.2847,-4.3074,-4.3563,-4.4369,-4.4776,-4.4966,-4.4985,-4.5232,-4.5342,-4.5342,-4.5342,-4.5342,-4.5352,-4.5429,-4.5476,-4.5466,-4.5513,-4.5175,-4.4605,-4.4393,-4.3143,-4.1535,-4.1958,-4.1205,-4.0034,0.0,0.0,0.0,0.0,0.0,0.0,0.0,0.0,0.0,0.0,0.0,-1.0623,-1.2344,-1.2238,-1.2338,-1.3036,-1.3917,-1.4906,-1.5999,-1.6422,-1.7164,-1.8332,-1.8126,-1.8391,-1.9293,-1.9196,-1.8901,-1.8371,-1.8998,-1.9323,-1.9365,-2.0204,-2.0655,-2.0707,-2.0707,-2.1795,-2.3571,-2.3003,-2.2509,-2.1939,-2.0061,0.0,0.0,0.0,0.0,0.0,0.0,0.0,0.0,0.0,0.0,0.0,0.0,0.0,0.0,0.0,0.0,0.0,0.0,0.0,0.0,0.0,0.0,0.0,0.0,0.0,0.0,0.0,0.0,0.0,0.0,0.0,0.0,0.0,0.0,0.0,0.0,0.0,0.0,-4.116,-4.2521,0.0,0.0,0.0,0.0,-4.1723,-4.1972,-4.246,-4.323,-4.3353,-4.3553,-4.3911,-4.3927,-4.4152,-4.458,-4.4606,-4.4637,-4.4637,-4.4631,-4.4644,-4.4644,-4.4644,-4.4644,-4.4657,-4.4977,-4.5137,-4.5159,-4.5476,-4.5575,-4.546,-4.4624,-4.422,-4.4017,-4.3307,-4.2464,-4.1689,0.0,0.0,0.0,0.0,0.0,-0.7087,-0.7854,-0.8576,-0.9544,-1.0876,-1.0849,-1.1234,-1.2613,-1.2305,-1.2362,-1.3298,-1.3861,-1.4579,-1.5549,-1.6151,-1.6841,-1.7654,-1.7843,-1.7889,-1.7806,-1.7634,-1.7164,-1.6434,-1.6602,-1.6964,-1.7556,-1.7886,-1.866,-1.9748,-1.9748,-2.0482,-2.1768,-2.2588,-2.2787,-2.2491,-2.1809,-2.0941,0.0,0.0,0.0,0.0,0.0,0.0,0.0,0.0,0.0,0.0,0.0,0.0,0.0,0.0,0.0,0.0,0.0,0.0,0.0,0.0,0.0,0.0,0.0,0.0,0.0,0.0,0.0,0.0,0.0,0.0,0.0,0.0,0.0,0.0,0.0,0.0,0.0,-4.1415,-4.2176,0.0,-4.2029,-4.2028,-4.2046,-4.1958,-4.2626,-4.3169,-4.3463,-4.3497,-4.3546,-4.366,-4.3695,-4.3742,-4.3884,-4.4106,-4.4204,-4.4204,-4.4474,-4.4593,-4.4593,-4.4593,-4.4593,-4.4624,-4.4739,-4.4788,-4.48,-4.4908,-4.5203,-4.5575,-4.5267,-4.4778,-4.4259,-4.3968,-4.3352,-4.253,0.0,0.0,0.0,0.0,0.0,-0.7643,-0.8456,-0.9182,-1.0081,-1.1266,-1.1161,-1.1332,-1.2327,-1.1879,-1.1821,-1.2538,-1.2856,-1.3647,-1.5013,-1.5662,-1.6607,-1.7885,-1.8104,-1.7656,-1.6499,-1.6506,-1.6151,-1.5334,-1.523,-1.5517,-1.6149,-1.6149,-1.6757,-1.792,-1.792,-1.8583,-1.976,-2.0837,-2.1864,-2.2789,-2.2573,-2.2069,-2.1459,0.0,0.0,0.0,0.0,0.0,0.0,0.0,0.0,0.0,0.0,0.0,0.0,0.0,0.0,0.0,0.0,0.0,0.0,0.0,0.0,0.0,0.0,0.0,0.0,0.0,0.0,0.0,0.0,0.0,0.0,0.0,0.0,0.0,0.0,-3.8175,-3.9598,-4.1568,-4.2067,-4.2323,-4.2482,-4.2518,-4.2518,-4.2518,-4.3134,-4.3515,-4.3515,-4.3515,-4.3515,-4.3515,-4.3515,-4.3515,-4.3515,-4.3726,-4.3818,-4.3833,-4.4091,-4.4242,-4.4242,-4.4242,-4.4294,-4.4406,-4.4406,-4.4474,-4.4593,-4.4593,-4.4853,-4.5263,-4.5263,-4.4919,-4.4392,-4.4392,-4.3876,-4.2967,0.0,0.0,0.0,0.0,0.0,-0.784,-0.8759,-0.9309,-1.0074,-1.1336,-1.1014,-1.0865,-1.1403,-1.0895,-1.053,-1.0561,-1.0789,-1.1944,-1.4315,-1.4988,-1.6449,-1.9028,-1.8871,-1.7662,-1.5395,-1.5947,-1.5891,-1.5128,-1.5128,-1.5128,-1.5163,-1.5163,-1.5163,-1.5199,-1.5199,-1.6175,-1.7828,-1.7828,-1.9749,-2.2785,-2.2111,-2.3345,-2.5401,0.0,0.0,0.0,0.0,0.0,0.0,0.0,0.0,0.0,0.0,0.0,0.0,0.0,0.0,0.0,0.0,0.0,0.0,0.0,0.0,0.0,0.0,0.0,0.0,0.0,0.0,0.0,0.0,0.0,0.0,0.0,0.0,0.0,-3.6481,-3.8597,-4.0491,-4.1827,-4.242,-4.2902,-4.3427,-4.3479,-4.3515,-4.3515,-4.3515,-4.3515,-4.3515,-4.3515,-4.3515,-4.3515,-4.3515,-4.3515,-4.3515,-4.3496,-4.3515,-4.3515,-4.3515,-4.3515,-4.3515,-4.3515,-4.3679,-4.3967,-4.3967,-4.4223,-4.4585,-4.4585,-4.4585,-4.4567,-4.458,-4.4593,-4.4593,-4.4593,-4.402,-4.3014,0.0,0.0,0.0,-0.7112,-0.776,-0.8421,-0.8958,-0.9776,-1.0639,-1.1455,-1.0692,-1.0204,-1.0662,-0.9505,-0.8967,-0.9594,-0.9903,-1.1237,-1.403,-1.4902,-1.6048,-1.7674,-1.7318,-1.6153,-1.4201,-1.3666,-1.3316,-1.3091,-1.3091,-1.3448,-1.4099,-1.4099,-1.4494,-1.5199,-1.5199,-1.5473,-1.5939,-1.5939,-1.7232,-1.9403,-2.0517,-2.175,-2.2888,0.0,0.0,0.0,0.0,0.0,0.0,0.0,0.0,0.0,0.0,0.0,0.0,0.0,0.0,0.0,0.0,0.0,0.0,0.0,0.0,0.0,0.0,0.0,0.0,0.0,0.0,0.0,0.0,0.0,0.0,0.0,-3.6779,-3.8576,-3.9564,-3.9761,-4.0309,-4.1701,-4.2362,-4.2769,-4.2902,-4.3268,-4.3515,-4.3515,-4.3515,-4.3515,-4.3515,-4.3666,-4.3783,-4.3783,-4.3783,-4.3783,-4.3783,-4.36,-4.3515,-4.3515,-4.3515,-4.3515,-4.3515,-4.3515,-4.3548,-4.3629,-4.3629,-4.3712,-4.3807,-4.3807,-4.3807,-4.3871,-4.4392,-4.4593,-4.4593,-4.4593,-4.3531,-4.2028,0.0,0.0,0.0,-0.7717,-0.8371,-0.8941,-0.94,-1.0204,-1.0923,-1.1483,-1.0482,-0.9854,-1.0194,-0.8891,-0.8188,-0.8716,-0.924,-1.0769,-1.3674,-1.5035,-1.5458,-1.4816,-1.4536,-1.3602,-1.1901,-1.1308,-1.1025,-1.1025,-1.1025,-1.1316,-1.1853,-1.1853,-1.2178,-1.2743,-1.3186,-1.3592,-1.3981,-1.4406,-1.5413,-1.6849,-1.7905,-1.9764,-2.1912,-2.187,-2.2473,-2.323,-2.2549,-2.2279,-2.2178,-2.1733,0.0,0.0,0.0,0.0,0.0,0.0,0.0,0.0,0.0,0.0,0.0,0.0,0.0,0.0,0.0,0.0,0.0,0.0,0.0,0.0,0.0,0.0,0.0,0.0,-3.7494,-3.9343,-4.0436,-4.0144,-4.0261,-4.1305,-4.1729,-4.2059,-4.2302,-4.2846,-4.316,-4.316,-4.3375,-4.3515,-4.3515,-4.3651,-4.38,-4.3945,-4.3816,-4.38,-4.3945,-4.3651,-4.3515,-4.3515,-4.3515,-4.3515,-4.3515,-4.3515,-4.358,0.0,-4.3546,-4.358,-4.3693,-4.3565,-4.3515,0.0,0.0,0.0,0.0,0.0,-4.2981,-4.1423,0.0,0.0,0.0,-0.8311,-0.886,-0.9416,-0.9938,-1.0547,-1.1027,-1.1343,-1.0272,-0.954,-0.9706,-0.8495,-0.7735,-0.7832,-0.8797,-1.0571,-1.3386,-1.5487,-1.5049,-1.1557,-1.1562,-1.0915,-0.9329,-0.9296,-0.9296,-0.9296,-0.9296,-0.9296,-0.9296,-0.9296,-0.9296,-0.9334,-1.0228,-1.1106,-1.1937,-1.2844,-1.3831,-1.4863,-1.4863,-1.7452,-2.1288,-2.1338,-2.1938,-2.2737,-2.2724,-2.2693,-2.2632,-2.2526,0.0,0.0,0.0,0.0,0.0,0.0,0.0,0.0,0.0,0.0,0.0,0.0,0.0,0.0,0.0,0.0,0.0,0.0,0.0,0.0,0.0,0.0,0.0,0.0,-3.7536,-3.8311,-3.9767,-4.0045,-4.0286,-4.0756,-4.0856,-4.111,-4.1643,-4.2244,-4.2596,-4.2596,-4.3105,-4.341,-4.341,0.0,0.0,0.0,0.0,-4.3682,-4.3989,-4.3666,-4.3515,-4.3515,-4.3515,-4.3515,-4.3515,-4.3515,-4.3662,-4.3924,-4.3629,-4.3679,-4.3909,-4.3612,-4.3515,-4.3515,-4.3515,-4.3515,-4.3496,-4.3548,-4.252,-4.1111,0.0,0.0,-0.8341,-0.8449,-0.9018,-0.9628,-1.0171,-1.0713,-1.0977,-1.074,-0.9475,-0.8463,-0.7955,-0.6715,-0.6174,-0.6883,-0.8805,-1.1101,-1.3817,-1.6395,-1.5911,-1.1583,-1.1746,-1.1101,-0.9329,-0.9296,-0.9296,-0.9296,-0.9296,-0.9296,-0.9296,-0.9296,-0.9296,-0.9296,-0.9523,-0.9707,-0.9884,-1.0078,-1.1174,-1.2779,-1.2779,-1.4668,-1.7529,-1.8347,-1.9211,-2.0073,-2.0784,-2.107,-2.126,-2.2728,-2.273,-2.2551,-2.4983,-2.4785,0.0,0.0,0.0,0.0,0.0,0.0,0.0,0.0,0.0,0.0,0.0,0.0,0.0,0.0,0.0,0.0,0.0,0.0,0.0,-3.7151,-3.8106,-3.8798,-3.9106,-3.9688,-4.0146,-4.0254,-4.0631,-4.0949,-4.1064,-4.1621,-4.1979,-4.1979,-4.2521,-4.2864,-4.2864,-4.3478,-4.3849,-4.3913,-4.3849,-4.3849,-4.3913,-4.3651,-4.3515,-4.3515,0.0,0.0,-4.3515,-4.3515,-4.3531,-4.3597,-4.3531,-4.3531,-4.3597,-4.3531,-4.3515,-4.3515,-4.3515,-4.3515,-4.3531,-4.3804,-4.2709,-4.1126,0.0,-0.9199,-0.8976,-0.9166,-0.9408,-0.9706,-1.0008,-1.0483,-1.0739,-1.0556,-0.9526,-0.8581,-0.8002,-0.7235,-0.6795,-0.6954,-0.8544,-0.9947,-1.0889,-1.1694,-1.0682,-0.7396,-0.7422,-0.7362,-0.6992,-0.6992,-0.7268,-0.7783,-0.7783,-0.7783,-0.7783,-0.7783,-0.7783,-0.7821,-0.8313,-0.8542,-0.858,-0.9074,-0.9852,-1.0765,-1.0765,-1.1875,-1.3805,-1.5791,-1.7123,-1.7992,-1.8656,-1.9469,-2.0445,-2.1596,-2.201,-2.2266,-2.381,-2.406,-2.3695,0.0,0.0,0.0,0.0,0.0,0.0,0.0,0.0,0.0,0.0,0.0,0.0,0.0,0.0,-3.4001,-3.4621,0.0,-3.6933,-3.6861,-3.8003,-3.8908,-3.8908,-3.9262,-3.9636,-4.0045,-4.0336,-4.0497,-4.0497,-4.1013,-4.1358,-4.1358,-4.1916,-4.2382,-4.2674,-4.3087,-4.3494,-4.3945,-4.38,-4.3783,-4.3961,-4.3649,-4.3515,-4.3515,-4.3515,-4.3515,-4.3515,-4.3515,-4.3515,-4.3515,-4.3515,-4.3515,-4.3515,-4.3515,-4.3515,-4.3515,-4.3515,-4.3515,-4.3513,-4.3695,-4.2631,-4.1109,0.0,0.0,-0.944,-0.9708,-0.9664,-0.9627,-0.9803,-1.0124,-1.0317,-1.023,-0.9556,-0.8871,-0.8317,-0.8093,-0.802,-0.81,-0.8594,-0.8685,-0.8175,-0.6917,-0.5277,-0.3193,-0.3085,-0.3513,-0.4373,-0.4375,-0.4805,-0.567,-0.567,-0.567,-0.567,-0.567,-0.567,-0.5709,-0.6742,-0.7203,-0.7276,-0.8271,-0.8846,-0.8998,-0.8998,-0.9631,-1.0783,-1.3375,-1.5032,-1.6123,-1.6669,-1.7974,-1.9467,-2.021,-2.1037,-2.1867,-2.213,-2.2994,-2.3748,-2.3072,-2.4102,0.0,0.0,0.0,0.0,0.0,0.0,0.0,0.0,-3.2227,-3.3001,-3.3738,-3.4386,-3.4769,-3.444,-3.6094,-3.7221,-3.6289,-3.7434,-3.8453,-3.8453,-3.8591,-3.8978,-3.9782,-4.0003,-4.0096,-4.0096,-4.0497,-4.0733,-4.0733,-4.1291,-4.1832,-4.2322,-4.246,-4.2847,-4.3559,-4.332,-4.3302,-4.3575,-4.3284,-4.3232,-4.3339,-4.3339,-4.3392,-4.3515,-4.3515,-4.3444,-4.3339,-4.3214,-4.3178,-4.3178,-4.3178,-4.3178,-4.3178,-4.3178,-4.3178,-4.3178,-4.3244,-4.2359,-4.1077,0.0,0.0,0.0,-0.9321,-0.9228,-0.9333,-0.9803,-0.9843,-0.9584,-0.8978,-0.8771,-0.8352,-0.7523,-0.7502,-0.8585,-1.1145,-0.9586,-0.8702,-0.9257,-0.7569,-0.5507,-0.3198,-0.3085,-0.3163,-0.3279,-0.3279,-0.3318,-0.3474,-0.3474,-0.3474,-0.3474,-0.3474,-0.3474,-0.3513,-0.4567,-0.5035,-0.5112,-0.617,-0.7138,-0.7974,-0.7974,-0.8575,-0.9593,-1.0815,-1.2441,-1.4173,-1.5349,-1.6503,-1.7748,-1.9372,-2.0581,-2.1673,-2.2933,-2.3416,-2.3585,-2.3722,-2.4423,-2.5183,-2.5275,-2.6652,-2.8122,-2.8472,-2.9936,-3.1561,0.0,-3.3369,-3.4122,-3.5088,-3.534,-3.5402,-3.5344,-3.5563,-3.5735,-3.561,-3.6291,-3.6873,-3.6873,-3.7469,-3.8206,-3.8951,-3.9662,-4.0096,-4.0096,-4.0146,-4.0179,-4.0179,-4.0679,-4.1041,-4.111,-4.1599,-4.1958,-4.2044,-4.2003,-4.2003,-4.2044,-4.2003,-4.2264,-4.2788,-4.2788,-4.3032,-4.3515,-4.3515,-4.3232,-4.2769,-4.2223,-4.2,-4.2,-4.2,-4.2,-4.2,-4.2,-4.2,-4.2035,-4.2322,-4.1882,-4.1003,0.0,0.0,0.0,-0.9429,-0.9143,-0.9048,-0.9238,-0.92,-0.9058,-0.8739,-0.8773,-0.854,-0.7742,-0.8127,-0.9216,-1.1202,-0.9536,-0.8087,-0.7333,-0.5394,-0.3373,-0.1368,-0.1292,-0.1605,-0.2229,-0.2231,-0.2501,-0.3085,-0.3085,-0.3085,-0.3085,-0.3089,-0.3109,-0.3112,-0.3559,-0.3784,-0.3824,-0.5009,-0.5736,-0.6176,-0.6867,-0.7745,-0.8692,-0.9118,-1.0601,-1.2681,-1.4705,-1.6147,0.0,-1.829,-1.9415,-2.0466,-2.0793,-2.1129,-2.1507,-2.2059,-2.2791,-2.3832,-2.585,-2.74,-2.8538,-2.897,-3.018,-3.1417,-3.1875,-3.2604,-3.3463,-3.4442,-3.461,-3.4806,-3.5392,-3.5831,-3.6006,-3.5554,-3.6117,-3.6615,-3.6615,-3.6873,-3.7381,-3.8161,-3.9341,-4.0275,-4.0734,-4.0375,-4.0294,-4.0752,-4.0583,-4.0577,-4.088,-4.1155,-4.1446,-4.1789,-4.181,-4.181,-4.181,-4.181,-4.1916,-4.2183,-4.2183,-4.2304,-4.2523,-4.2523,-4.2384,-4.2162,-4.1916,-4.181,-4.181,-4.181,-4.181,-4.181,-4.181,-4.181,-4.1768,-4.1488,-4.087,-4.0059,0.0,0.0,0.0,-0.9567,-0.906,-0.8756,-0.8692,-0.8685,-0.8647,-0.8583,-0.8719,-0.8663,-0.8253,-0.8687,-0.952,-1.0742,-0.9011,-0.7097,-0.5335,-0.3279,-0.1228,0.0782,0.0588,0.0078,-0.0705,-0.1019,-0.1528,-0.2228,-0.2243,-0.225,-0.2251,-0.2264,-0.2248,-0.2251,-0.2536,-0.268,-0.2763,-0.3895,-0.4608,-0.4986,-0.5862,-0.6857,-0.7798,-0.8086,-0.9425,-1.1409,-1.365,-1.5427,-1.6778,-1.7338,-1.8478,-1.9592,-1.9066,-1.9356,-2.0015,-2.0839,-2.1876,-2.3417,-2.6365,-2.7687,-2.8411,-2.9111,-3.0047,-3.0871,-3.114,-3.1742,-3.25,-3.3415,-3.3808,-3.4211,-3.4953,-3.5769,-3.6117,-3.5587,-3.6095,-3.6582,-3.6582,-3.6582,-3.7017,-3.8266,-3.9241,-4.0383,-4.1838,-4.1028,-4.059,-4.0926,-4.0431,-4.0262,-4.0655,-4.0679,-4.0874,-4.1308,-4.1331,-4.1331,-4.1331,-4.1331,-4.1424,-4.1551,-4.156,-4.1652,-4.1788,-4.163,-4.1556,-4.1534,-4.1397,-4.1331,-4.1331,-4.1331,-4.1331,-4.1331,-4.1331,-4.1208,-4.095,-4.0202,-3.9755,-3.9368,0.0,0.0,0.0,0.0,-0.895,-0.8421,-0.8417,-0.8358,-0.8307,-0.8313,-0.8313,-0.8475,-0.8927,-0.8884,-0.928,-1.0414,-0.8025,-0.5769,-0.4159,-0.2047,0.0302,0.2885,0.2074,0.1528,0.1489,0.0471,-0.0079,-0.0079,-0.008,-0.0081,-0.0081,-0.0083,-0.0084,-0.0126,-0.1174,-0.1635,-0.1719,-0.2722,-0.3811,-0.4902,-0.4944,-0.5654,-0.6864,-0.7839,-0.8999,-1.0355,-1.1859,-1.391,-1.6025,-1.6626,-1.8056,-1.951,-1.8888,-1.9158,-1.9906,-2.09,-2.2656,-2.4655,-2.6588,-2.7216,-2.7588,-2.8562,-2.9282,-2.9995,-3.0987,-3.1217,-3.1499,-3.2464,-3.338,-3.4027,-3.4027,-3.4872,-3.5537,-3.5504,-3.6076,-3.6514,-3.6514,-3.6514,-3.7356,-3.9675,-3.9461,-4.0346,0.0,-4.2235,-4.0949,-4.0204,-4.0121,-4.0096,-4.0121,-4.0121,-4.0121,-4.0146,-4.0146,-4.0146,-4.0146,-4.0146,-4.0404,-4.0929,-4.0926,-4.1221,-4.1791,-4.1203,-4.0926,-4.0903,-4.0368,-4.0146,-4.0146,-4.0146,-4.0146,-4.0146,-4.0146,-3.9705,-3.9011,-3.8258,-3.8649,-3.9277,0.0,0.0,0.0,0.0,0.0,-0.8922,-0.8475,-0.8183,-0.8043,-0.8097,-0.8132,0.0,0.0,0.0,0.0,0.0,-0.8926,-0.773,-0.6032,-0.3701,-0.1466,0.0568,0.1895,0.2579,0.2579,0.2228,0.2072,0.2072,0.2163,0.2229,0.2271,0.236,0.1973,0.116,0.0827,0.0219,-0.0615,-0.1752,-0.2451,-0.2976,-0.4592,-0.5464,-0.6019,-0.7716,-0.9164,-1.0551,0.0,-1.3736,-1.5328,-1.5555,-1.677,-1.8199,-1.8132,-1.8527,-1.931,-2.0683,-2.2378,-2.4048,-2.508,-2.5967,-2.682,-2.7865,-2.8381,-2.894,-3.0024,-3.0279,-3.0533,-3.1462,-3.2227,-3.3043,-3.4065,-3.5089,-3.5756,-3.5774,-3.6783,-3.7311,-3.6586,-3.7599,-3.8253,-3.7731,-3.8904,-3.9583,0.0,0.0,0.0,-4.1733,-4.0728,-4.0096,-4.0096,-4.0096,-4.0096,-4.0096,-4.0096,-4.0096,-4.0096,-4.0096,-4.0187,-4.038,-4.0375,-4.0468,-4.0668,-4.0468,-4.0368,-4.0343,-4.0179,-4.0096,-4.0096,-4.0096,-4.0096,-4.0045,-3.9571,-3.9208,-3.8836,-3.7618,-3.7405,-3.7553,0.0,0.0,0.0,0.0,0.0,0.0,0.0,0.0,0.0,0.0,0.0,0.0,0.0,0.0,0.0,0.0,0.0,-0.8398,-0.6274,-0.466,-0.2704,-0.0331,0.0826,0.1402,0.1439,0.1839,0.201,0.1869,0.282,0.3374,0.3488,0.3574,0.3196,0.241,0.2001,0.1389,0.0583,-0.0628,-0.1395,-0.1988,-0.413,-0.5359,-0.6083,-0.792,-0.9644,0.0,-1.2013,-1.347,-1.4972,-1.5231,-1.633,-1.7603,-1.7636,-1.834,-1.9441,-2.0858,-2.2197,-2.3443,-2.4575,-2.5312,-2.6022,-2.7085,-2.7437,-2.7735,-2.8462,-2.891,-2.9367,-2.9961,-3.0968,-3.2214,-3.3617,-3.484,-3.5514,-3.5399,-3.6947,-3.7763,-3.6518,-3.7903,-3.871,-3.7793,-3.8859,-3.9219,-3.8052,-3.9536,0.0,-4.168,-4.0735,-4.0263,-4.0549,-4.0573,-4.0414,-4.0096,-4.0096,-4.0096,-4.0096,-4.0096,-4.0096,-4.0096,-4.0096,-4.0096,-4.0096,-4.0096,-4.0043,-3.9968,-4.0052,-4.0068,-3.9927,-3.9789,-3.9714,-3.9639,-3.8886,-3.8291,-3.7709,-3.6769,-3.609,-3.5647,0.0,0.0,0.0,0.0,0.0,0.0,0.0,0.0,0.0,0.0,0.0,0.0,0.0,0.0,0.0,0.0,0.0,0.0,-0.5171,-0.4851,-0.3289,0.0036,-0.0898,-0.1512,-0.1547,-0.0408,0.0038,-0.0311,0.1998,0.321,0.3409,0.3392,0.3377,0.3244,0.2093,0.156,0.1382,0.0223,-0.0904,-0.2105,-0.3769,-0.5351,-0.691,-0.8575,-1.0338,-1.1905,-1.1874,-1.3132,-1.4927,-1.5639,-1.6721,-1.7745,-1.7516,-1.8622,-2.0218,-2.144,-2.2138,-2.2954,-2.4925,-2.516,-2.5144,-2.6155,-2.6389,-2.6442,-2.6483,-2.729,-2.8044,-2.806,-2.9693,-3.1487,-3.2695,-3.4068,-3.4898,-3.442,-3.6652,-3.7864,-3.6274,-3.748,-3.8808,-3.9642,-3.9243,-3.9203,-3.9974,-3.9363,0.0,-4.0017,0.0,-4.0418,-4.1174,-4.1214,-4.0851,-4.0054,-4.0045,-4.0045,-4.0096,-4.0096,-4.0096,-4.0096,-4.0096,-4.0096,-4.0096,-4.0096,-3.9951,-3.9687,-3.9902,-3.9815,-3.9497,-3.9013,-3.8837,-3.8754,-3.8012,-3.6876,-3.5638,-3.5622,-3.4747,-3.3786,0.0,0.0,0.0,0.0,0.0,0.0,0.0,0.0,0.0,0.0,0.0,0.0,0.0,0.0,0.0,0.0,0.0,0.0,-0.7816,-0.5661,-0.3951,-0.2911,-0.1206,-0.0362,-0.0627,-0.0223,-0.0189,-0.054,0.0199,0.0649,0.0858,0.0793,0.0295,-0.0591,-0.1057,-0.1904,-0.3051,-0.3352,-0.3746,-0.431,-0.5563,-0.6437,-0.7253,-0.9572,-1.1111,-1.2211,-1.3316,-1.4322,-1.5157,-1.5591,-1.6528,-1.7575,-1.8017,-1.8923,-2.011,-2.1308,-2.2196,-2.286,-2.3139,-2.3416,-2.3839,-2.4946,-2.521,-2.5462,-2.6307,-2.6719,-2.7053,-2.7596,-2.8841,-3.0228,-3.1678,-3.391,-3.5136,-3.3992,-3.6701,-3.845,-3.7092,-3.8615,-3.9658,-3.8979,-3.8807,-3.8206,-3.6849,-3.6535,-3.6977,0.0,-3.8449,-3.8515,-3.8695,-3.8722,-3.8879,-3.9209,-3.9209,-3.9489,-4.0096,-4.0096,-4.0096,-4.0096,-4.0096,-4.0096,-4.0096,-4.0096,-3.9764,-3.9139,-3.8721,-3.8152,-3.7478,-3.6885,-3.6604,-3.6531,-3.5805,-3.5286,-3.4904,-3.433,-3.3921,-3.3633,0.0,0.0,0.0,0.0,0.0,0.0,0.0,0.0,0.0,0.0,0.0,0.0,0.0,0.0,0.0,0.0,0.0,0.0,0.0,-0.7006,-0.5677,-0.495,-0.3575,-0.286,-0.297,-0.1933,-0.1566,-0.2012,-0.0927,-0.0316,-0.016,-0.0286,-0.0744,-0.1487,-0.2132,-0.2941,-0.3922,-0.4494,-0.4935,0.0,0.0,-0.7719,-0.8498,-1.0703,-1.2118,-1.3024,-1.4024,-1.5061,-1.5888,-1.559,-1.636,-1.7491,-1.7843,-1.8531,-1.9502,-2.0835,-2.1637,-2.2177,-2.2585,-2.2888,-2.3256,-2.3877,-2.4049,-2.4236,-2.4986,-2.5706,-2.6445,-2.7188,-2.8421,-2.991,-3.1673,-3.3831,-3.4813,-3.323,-3.5887,-3.7755,-3.6692,-3.8302,-3.9315,-3.8695,-3.871,-3.7921,-3.5699,-3.5504,-3.5883,-3.6766,-3.7466,-3.7994,-3.8357,-3.8357,-3.8384,-3.8414,-3.8414,-3.8789,-3.9584,-3.9584,-3.9584,-3.9584,-3.8947,-3.8649,-3.8633,-3.8344,-3.7935,-3.7451,0.0,-3.6738,-3.6174,-3.5577,-3.5326,-3.523,-3.4514,-3.4032,-3.3735,-3.3314,-3.296,-3.2691,0.0,0.0,0.0,0.0,0.0,0.0,0.0,0.0,0.0,0.0,-0.8711,0.0,0.0,0.0,0.0,0.0,0.0,0.0,0.0,0.0,0.0,-0.6404,-0.6609,-0.6683,-0.6535,-0.4631,-0.383,-0.4313,-0.2453,-0.1443,-0.1229,-0.1457,-0.1631,-0.1784,-0.2823,-0.3426,-0.373,-0.4934,-0.573,-0.6314,-0.7981,-0.922,-1.0249,0.0,0.0,-1.4096,-1.454,-1.5683,-1.6814,-1.5671,-1.6211,-1.7389,-1.7377,-1.7923,-1.8868,-2.0276,-2.1,-2.161,-2.274,-2.3057,-2.3091,-2.3091,-2.3091,-2.3156,-2.332,-2.4543,-2.5854,-2.6609,-2.8102,-2.9866,-3.1715,-3.3423,-3.4057,-3.26,-3.4927,-3.6767,-3.6353,-3.7451,-3.8432,-3.8748,-3.8748,-3.7855,-3.5699,-3.5688,-3.5705,-3.5537,-3.6796,-3.7889,-3.8569,-3.8612,-3.8324,-3.7645,-3.7748,-3.8121,-3.8745,-3.8674,-3.8624,-3.8624,-3.7273,-3.6673,-3.6641,-3.6059,-3.5655,-3.5391,0.0,0.0,-3.5061,-3.4498,-3.4287,-3.4207,-3.3577,-3.296,-3.2465,-3.2465,-3.2064,-3.1511,0.0,0.0,0.0,0.0,0.0,0.0,0.0,0.0,0.0,0.0,-0.947,-0.9185,0.0,0.0,0.0,0.0,0.0,0.0,0.0,0.0,0.0,0.0,-0.7138,-0.7021,-0.7319,-0.6964,-0.6889,-0.7102,-0.745,-0.7203,-0.6472,-0.6848,-0.6946,-0.6772,-0.7127,-0.7587,-0.8117,-0.8633,-0.9201,-0.9812,-1.0152,-1.096,-1.2104,0.0,0.0,0.0,-1.6005,-1.6883,-1.7373,-1.612,-1.6209,-1.6879,-1.713,-1.8029,-1.9238,-2.044,-2.1717,-2.2773,-2.278,-2.2948,-2.3091,-2.3091,-2.3091,-2.3096,-2.3156,-2.377,-2.4592,-2.5426,-2.6971,-2.85,-2.9637,-3.1629,-3.3113,-3.3251,-3.5345,-3.756,-3.9258,-3.8212,-3.7884,-3.9562,-3.8504,-3.7076,-3.5634,-3.6652,-3.6886,0.0,-3.5738,-3.5994,-3.6105,-3.6105,-3.6338,-3.6783,-3.7456,-3.7863,-3.7978,-3.7424,-3.7146,-3.7146,-3.6355,-3.5963,-3.5963,-3.5862,-3.5439,-3.4806,-3.4281,0.0,-3.3063,-3.2341,-3.2076,-3.2061,-3.1912,-3.1796,-3.1697,-3.1697,-3.1611,-3.1511,0.0,0.0,0.0,0.0,0.0,0.0,0.0,-1.1158,-1.1139,-1.0823,-1.0643,-1.0389,-1.0011,-0.9857,-0.9849,0.0,0.0,0.0,0.0,0.0,0.0,0.0,0.0,0.0,-0.7646,-0.8044,-0.8231,-0.8272,0.0,-0.8977,-0.8571,-0.8992,-0.9105,-0.8991,-0.923,-0.9486,-0.9748,-0.9991,-1.0553,-1.123,-1.1478,-1.2254,0.0,0.0,0.0,0.0,-1.6613,-1.7257,-1.7748,-1.6633,-1.6702,-1.7125,-1.6485,-1.68,-1.772,-1.9592,-2.0649,-2.145,-2.2597,-2.2998,-2.3091,-2.3091,-2.3091,-2.3166,-2.3433,-2.4051,-2.4853,-2.5812,-2.7016,-2.8268,-2.9483,-3.1137,-3.2222,-3.2066,-3.347,-3.5075,-3.6458,-3.5821,-3.5737,-3.7113,-3.664,-3.6104,-3.5891,-3.6495,-3.6835,-3.6611,-3.6552,-3.6245,-3.5522,-3.5504,-3.5668,-3.6038,-3.6441,-3.6654,-3.6654,-3.6019,-3.5717,-3.5701,-3.4613,-3.4087,-3.4071,-3.3715,-3.3361,-3.3039,-3.2675,0.0,-3.2583,-3.1809,-3.1752,-3.2074,-3.1653,-3.1511,-3.1511,-3.1511,-3.1271,-3.0972,0.0,0.0,0.0,0.0,0.0,0.0,0.0,-1.1679,-1.1897,-1.1499,-1.1772,-1.175,-1.1091,-1.0582,-1.0423,0.0,0.0,0.0,0.0,0.0,0.0,0.0,0.0,0.0,0.0,0.0,0.0,-0.9051,-0.9553,0.0,0.0,0.0,0.0,0.0,-1.029,-1.0396,-1.0406,-1.0738,-1.1302,0.0,0.0,-1.33,0.0,0.0,0.0,0.0,0.0,-1.7678,-1.8349,-1.7444,-1.7497,-1.7743,-1.6416,-1.6337,-1.7166,-1.9134,-2.0008,-2.0678,-2.259,-2.3097,-2.3091,-2.3091,-2.3091,-2.3209,-2.3752,-2.4421,-2.5272,-2.6253,-2.7265,-2.8292,-2.9492,-3.0748,-3.1501,-3.1209,-3.2123,-3.3152,-3.392,-3.3893,-3.4034,-3.4753,-3.4789,-3.4942,-3.5399,-3.5707,-3.6042,-3.6497,-3.647,-3.6184,-3.5522,-3.5504,-3.5429,-3.5295,-3.5354,-3.5306,-3.5153,-3.4551,-3.4227,-3.4212,-3.2898,-3.2273,-3.2258,-3.1735,-3.1511,-3.1511,-3.1511,0.0,0.0,-3.1823,-3.1977,-3.2633,-3.1794,-3.1511,-3.1452,-3.1143,-3.0728,-3.021,0.0,0.0,0.0,0.0,0.0,0.0,0.0,-1.227,-1.2467,-1.2246,-1.2504,-1.2781,-1.3001,-1.1907,-1.1203,0.0,0.0,0.0,0.0,0.0,0.0,0.0,0.0,0.0,0.0,0.0,0.0,-1.0157,-1.1044,0.0,0.0,0.0,0.0,0.0,0.0,-1.077,-1.0974,-1.1775,0.0,0.0,0.0,0.0,0.0,0.0,0.0,0.0,0.0,-1.8838,-1.9614,-1.8789,-1.8674,-1.8742,-1.8085,-1.8797,-1.9948,-2.0369,-2.1579,-2.283,-2.3022,-2.3105,-2.3091,-2.3091,-2.3091,-2.3215,-2.3607,-2.414,-2.4786,-2.5543,-2.6956,-2.8168,-2.8513,-2.9624,-3.1011,-3.2472,-3.3702,-3.4946,-3.621,-3.5211,-3.4505,-3.4941,-3.4262,-3.3525,-3.2982,-3.4265,-3.4528,-3.3149,-3.3066,-3.3779,-3.5392,-3.5504,-3.522,-3.4623,-3.4596,-3.4297,-3.3697,-3.3036,-3.2691,-3.2676,-3.1928,-3.1585,-3.1585,-3.1525,-3.1511,-3.1511,-3.1511,0.0,0.0,-3.1823,-3.1977,-3.2633,-3.1794,-3.1511,-3.1363,-3.0046,-2.9537,-2.932,0.0,0.0,0.0,0.0,0.0,0.0,-1.3017,-1.3027,-1.3131,-1.3244,-1.3333,-1.3439,-1.3598,-1.3106,-1.2692,-1.2395,0.0,0.0,0.0,0.0,0.0,0.0,0.0,0.0,0.0,0.0,-1.1802,-1.1728,-1.1927,0.0,0.0,0.0,0.0,0.0,0.0,-1.2242,-1.2515,-1.2918,0.0,0.0,0.0,0.0,0.0,0.0,0.0,0.0,0.0,0.0,-1.9656,-1.9129,-1.9224,-1.958,-1.9638,-2.0056,-2.0516,-2.0397,-2.1155,-2.2186,-2.2878,-2.3087,-2.3091,-2.3091,-2.3091,-2.3252,-2.3854,-2.427,-2.4809,-2.5847,-2.6455,-2.7169,-2.846,-2.8873,-2.9547,-3.1136,-3.1815,-3.2266,-3.2678,-3.2201,-3.1815,-3.1881,-3.1519,-3.1741,-3.2905,-3.3543,-3.387,-3.3819,-3.4178,-3.4078,-3.3312,-3.3775,-3.418,-3.4487,-3.3709,-3.317,-3.2901,-3.2228,-3.1899,-3.1884,-3.163,-3.1511,-3.1511,-3.1511,-3.1511,-3.1511,-3.1511,0.0,0.0,-3.1477,-3.1489,-3.2365,-3.0323,-2.9514,-2.9398,-2.8477,-2.7922,-2.7525,0.0,0.0,0.0,0.0,0.0,-1.4289,-1.3965,-1.3941,-1.3958,-1.4016,-1.4105,-1.4219,-1.4262,-1.438,-1.4335,-1.3988,-1.2947,0.0,0.0,0.0,0.0,0.0,0.0,0.0,0.0,0.0,-1.3223,-1.323,-1.308,-1.3059,0.0,0.0,-1.2866,-1.2599,0.0,0.0,0.0,0.0,0.0,0.0,0.0,0.0,0.0,0.0,0.0,0.0,0.0,0.0,0.0,0.0,0.0,-2.0405,-2.0699,-2.0856,-2.0883,-2.0815,-2.115,-2.1768,-2.2827,-2.3088,-2.3091,-2.3091,-2.3309,-2.3662,-2.4309,-2.4755,-2.5356,-2.6405,-2.6578,-2.7004,-2.8525,-2.8712,-2.8975,-3.0063,-3.0471,-3.0548,-3.029,-3.0468,-3.0467,-3.0094,-3.0043,-3.0609,-3.2103,-3.2222,-3.2596,-3.3499,-3.3599,-3.3102,-3.1847,-3.1752,-3.2169,-3.3138,-3.2258,-3.1807,-3.1841,-3.1131,-3.0896,-3.1161,-3.0866,-3.0999,-3.1451,-3.0984,-3.1014,-3.1407,-3.0955,0.0,0.0,-3.0529,-3.0426,-3.1348,-2.8896,-2.7936,-2.7836,-2.6992,-2.6394,-2.6009,0.0,0.0,0.0,0.0,0.0,0.0,-1.4703,-1.497,-1.4978,-1.4364,-1.4777,-1.5174,-1.5357,-1.574,-1.5964,-1.5986,-1.4505,0.0,0.0,0.0,0.0,0.0,0.0,0.0,0.0,0.0,-1.4391,-1.4489,-1.4811,-1.4729,-1.4286,-1.4628,-1.4196,-1.3221,0.0,0.0,0.0,0.0,0.0,0.0,0.0,0.0,0.0,0.0,0.0,0.0,0.0,0.0,0.0,0.0,0.0,0.0,0.0,-2.1212,-2.1414,-2.2067,-2.2185,-2.225,-2.2925,-2.3104,-2.3091,-2.3091,-2.382,-2.4576,-2.4921,-2.5726,-2.6514,-2.7071,-2.7612,-2.8092,-2.8523,-2.9275,-2.9779,-2.9792,-3.0583,-3.1044,-3.0647,-3.1261,-3.1481,-3.067,-3.0608,-3.0382,-2.9868,-2.9818,-3.0241,-3.1167,-2.9829,0.0,-3.1695,-2.9739,-2.9007,-3.0012,-3.003,-3.0136,-3.0313,-2.9442,-2.9473,-3.0299,-2.9442,-2.9818,-3.1258,-2.9726,-2.9848,0.0,0.0,0.0,0.0,-2.8774,-2.8688,-2.9275,-2.7863,-2.7313,-2.7142,-2.5727,-2.523,-2.5018,0.0,0.0,0.0,0.0,0.0,0.0,0.0,-1.5876,-1.5507,-1.5405,-1.5505,-1.5576,-1.559,-1.6289,-1.6674,-1.6413,-1.5429,0.0,0.0,0.0,0.0,0.0,0.0,0.0,0.0,0.0,-1.534,-1.5509,-1.5397,-1.5368,-1.5394,-1.4739,-1.4543,-1.4698,-1.4948,-1.5447,0.0,0.0,0.0,0.0,0.0,0.0,0.0,0.0,0.0,0.0,0.0,0.0,0.0,0.0,0.0,0.0,0.0,0.0,0.0,-2.2286,-2.2412,-2.2224,-2.2098,-2.2424,-2.2686,-2.237,-2.3111,-2.3968,-2.4089,-2.5194,-2.6368,-2.6868,-2.7131,-2.7545,-2.8558,-2.8662,-2.856,-2.8627,-2.8889,-2.8826,-2.8091,-2.8221,-2.8512,-2.8863,-2.9574,-2.998,-2.9817,0.0,-3.1189,-2.9729,-3.0472,0.0,-2.8803,-2.8055,-2.8389,-2.9965,-2.9564,-2.9355,-2.9411,-2.9129,-2.9129,-2.9411,-2.9129,-2.9756,-3.1099,-2.9648,-2.959,0.0,0.0,0.0,0.0,-2.7377,-2.7163,-2.765,-2.5771,-2.5031,-2.4935,-2.4081,-2.3756,-2.3701,0.0,0.0,0.0,0.0,0.0,0.0,0.0,-1.6694,-1.6479,-1.627,-1.6395,-1.6497,-1.6496,-1.7092,-1.7473,-1.7518,-1.7066,0.0,0.0,0.0,0.0,0.0,0.0,0.0,-1.5802,-1.6128,-1.6462,-1.687,-1.6669,-1.6528,-1.6417,-1.5786,-1.5607,-1.5789,-1.6021,-1.6495,0.0,0.0,0.0,0.0,0.0,0.0,-1.9983,0.0,0.0,0.0,0.0,0.0,0.0,0.0,0.0,0.0,0.0,0.0,0.0,0.0,-2.22,-2.2174,-2.2136,-2.2227,-2.2348,-2.2439,-2.3193,-2.3972,-2.4171,-2.537,-2.6584,-2.6901,-2.6907,-2.7226,-2.8445,-2.821,-2.796,-2.839,-2.8187,-2.7886,-2.7533,-2.7679,-2.8034,-2.857,-2.9153,-2.925,0.0,-2.9492,-2.9598,-2.8397,-2.9096,0.0,-2.7377,-2.7115,-2.7533,-2.8619,-2.8271,-2.8214,-2.8524,-2.8214,-2.8214,-2.8524,-2.8214,-2.8683,-2.984,-2.8369,-2.8226,0.0,0.0,0.0,0.0,-2.5805,-2.5533,-2.5782,-2.4259,-2.3665,-2.3597,-2.3233,-2.3108,-2.3108,0.0,0.0,0.0,0.0,0.0,0.0,0.0,-1.7417,-1.7733,-1.6966,-1.7322,-1.7695,-1.7862,-1.8048,-1.842,-1.9054,0.0,0.0,0.0,0.0,0.0,0.0,0.0,0.0,-1.7082,-1.7384,-1.7801,-1.834,-1.8361,-1.8061,-1.7447,-1.7493,-1.7188,-1.6593,-1.7363,-1.7681,0.0,0.0,0.0,0.0,-2.0016,-2.027,0.0,0.0,0.0,0.0,0.0,0.0,0.0,0.0,0.0,0.0,0.0,0.0,0.0,0.0,0.0,0.0,0.0,-2.2471,-2.2161,-2.3066,-2.3785,-2.4399,-2.4803,-2.603,0.0,-2.6984,-2.6864,-2.711,-2.8167,-2.7822,-2.7718,-2.8764,-2.8207,-2.7888,-2.8363,-2.8932,-2.9379,-2.9509,-2.909,-2.8247,-2.676,-2.6105,-2.6177,-2.701,0.0,0.0,-2.7076,-2.6589,-2.6314,-2.6383,-2.6302,-2.6688,-2.7604,-2.6871,-2.6939,-2.7723,-2.6867,-2.7,-2.7977,-2.6298,-2.6087,0.0,0.0,0.0,0.0,-2.3985,-2.3773,-2.3692,-2.3156,-2.2914,-2.2914,-2.2914,-2.2914,-2.2914,0.0,0.0,0.0,0.0,0.0,0.0,0.0,0.0,0.0,0.0,-1.7823,-1.821,-1.8607,-1.8812,-1.9231,0.0,0.0,0.0,0.0,0.0,0.0,0.0,0.0,0.0,-1.7903,-1.8425,-1.8786,-1.8912,-1.8956,-1.8912,-1.876,-1.7899,-1.774,-1.8145,-1.7874,-1.8171,0.0,0.0,0.0,0.0,-2.073,-2.0929,0.0,0.0,0.0,0.0,-2.127,-2.1403,0.0,0.0,0.0,0.0,0.0,0.0,0.0,0.0,-2.1766,-2.1707,-2.2553,0.0,-2.252,-2.2233,-2.3072,-2.3963,0.0,-2.5271,-2.6465,-2.5856,-2.6302,-2.6894,-2.7151,-2.6648,-2.64,-2.701,-2.6872,-2.6712,-2.6888,-2.7365,-2.8127,-2.9326,-2.8069,-2.7197,-2.7545,-2.6508,-2.5577,-2.504,0.0,-2.4916,-2.5504,-2.4683,-2.4552,-2.5335,-2.4624,-2.504,-2.6782,-2.6589,-2.7069,-2.8231,-2.6585,-2.7019,-2.9175,-2.6306,-2.5496,0.0,0.0,0.0,-2.2529,-2.1724,-2.1412,-2.1368,-2.1242,-2.1195,-2.1195,-2.1195,-2.1195,-2.1195,0.0,0.0,0.0,0.0,0.0,0.0,0.0,0.0,0.0,0.0,0.0,-1.9144,-1.9675,-1.9841,0.0,0.0,0.0,0.0,0.0,0.0,0.0,0.0,0.0,-1.8632,-1.9254,-1.9598,-1.9919,-2.0287,-2.0175,-1.9945,-1.9623,-1.897,-1.8789,-1.9125,-1.9102,-1.9403,0.0,0.0,0.0,-2.1785,-2.1561,0.0,0.0,0.0,0.0,0.0,-2.1535,-2.1635,0.0,-2.1849,-2.1959,-2.1959,0.0,0.0,0.0,0.0,-2.1922,-2.1961,-2.244,-2.2589,-2.2551,-2.2499,-2.3139,-2.3692,-2.3514,-2.4544,-2.5389,-2.4982,-2.5483,-2.6155,-2.6584,-2.6618,-2.6607,-2.6629,-2.708,-2.7291,-2.7041,-2.7161,-2.776,-2.901,-2.7854,-2.6944,0.0,-2.5161,-2.3908,0.0,0.0,-2.3571,-2.4276,-2.3818,-2.3745,-2.4301,-2.3602,-2.3843,-2.5099,-2.493,-2.5791,-2.7604,-2.5186,-2.5293,-2.7549,-2.4589,-2.3362,0.0,0.0,0.0,-2.1345,-2.2051,-2.1639,-2.059,-2.059,-2.059,-2.059,-2.059,-2.059,-2.059,0.0,0.0,0.0,0.0,0.0,0.0,0.0,0.0,0.0,0.0,0.0,0.0,0.0,0.0,0.0,0.0,0.0,0.0,0.0,0.0,0.0,0.0,-1.9899,-2.0119,-2.0745,-2.0754,-2.111,-2.183,-2.1503,-2.1038,-2.0486,-2.0366,-2.0143,-1.9929,-2.0537,-2.0752,0.0,0.0,-2.2145,-2.2422,-2.238,0.0,0.0,0.0,0.0,0.0,0.0,0.0,0.0,-2.2077,-2.2138,-2.2101,-2.2101,0.0,0.0,0.0,0.0,0.0,-2.2365,-2.2419,-2.2594,-2.3144,-2.3443,-2.3616,-2.3673,-2.4089,-2.4425,-2.4353,-2.4751,-2.533,-2.6273,-2.6659,-2.6842,-2.6853,-2.7671,-2.8191,-2.7747,-2.7378,-2.7506,-2.8464,-2.7487,0.0,-2.5587,-2.3246,-2.1948,0.0,0.0,-2.2215,-2.322,-2.3147,-2.3077,-2.3194,-2.2686,-2.2559,-2.2853,-2.2827,-2.3954,-2.6263,-2.3425,-2.3086,-2.4833,-2.2403,-2.1015,-2.0698,0.0,0.0,-2.0549,-2.2589,-2.2154,-2.0204,-2.0204,-2.0204,-2.0204,-2.0204,-2.0204,-2.0204,0.0,0.0,0.0,0.0,0.0,0.0,0.0,0.0,0.0,0.0,0.0,0.0,0.0,0.0,0.0,0.0,0.0,0.0,0.0,0.0,0.0,-2.2082,-2.1336,-2.1261,-2.1815,-2.1852,-2.1978,-2.2309,-2.2136,-2.1983,-2.1906,-2.1694,-2.1463,-2.1243,-2.156,-2.1479,-2.1139,-2.203,-2.2301,-2.2219,-2.2766,0.0,0.0,0.0,0.0,0.0,0.0,0.0,0.0,-2.2344,-2.2252,-2.2101,-2.2101,0.0,0.0,0.0,0.0,0.0,-2.2138,-2.2713,-2.3277,-2.3069,-2.3349,-2.3744,-2.396,-2.4373,-2.4623,-2.4214,-2.4556,-2.5178,-2.5994,-2.484,-2.4467,-2.6689,-2.6889,-2.6962,-2.7467,-2.6479,-2.6285,-2.7752,0.0,-2.354,-2.4198,-2.2493,0.0,0.0,0.0,-2.1221,-2.2178,-2.1489,-2.124,-2.1728,-2.0855,-2.0239,-1.9949,-2.1517,-2.3045,-2.4478,-2.2486,-2.2259,-2.3529,-2.1586,-2.0669,0.0,0.0,-1.9857,-1.9464,-1.9119,-1.8751,-1.8395,-1.8395,-1.8395,-1.8395,-1.8395,-1.8395,-1.8395,0.0,0.0,0.0,0.0,0.0,0.0,0.0,0.0,0.0,0.0,0.0,0.0,0.0,0.0,0.0,0.0,0.0,0.0,0.0,0.0,-2.3561,-2.2845,-2.2918,-2.2803,-2.2481,-2.2722,-2.3023,-2.3363,-2.3156,-2.2972,-2.2715,-2.2258,-2.1919,-2.1671,-2.2041,-2.2004,-2.1734,-2.2522,-2.2901,-2.3052,0.0,0.0,0.0,0.0,0.0,0.0,0.0,0.0,0.0,0.0,-2.2402,-2.2402,-2.2176,0.0,0.0,0.0,0.0,0.0,-2.2101,-2.2527,-2.2811,-2.207,-2.3118,-2.3983,-2.2857,-2.3824,-2.4523,-2.291,-2.4179,-2.5711,-2.6033,-2.503,-2.4386,-2.5122,-2.3803,-2.3085,-2.4219,-2.4265,-2.4538,0.0,0.0,-2.3072,-2.42,-2.19,0.0,0.0,0.0,0.0,-2.1231,-2.059,-2.0345,-2.0565,-1.9673,-1.9095,-1.8936,-1.9581,-2.104,-2.3197,-2.0753,-2.0577,-2.2416,-2.0216,-1.921,-1.9243,0.0,-1.9877,-1.8664,-1.9634,-1.9225,-1.8008,-1.8008,-1.8008,-1.794,-1.7432,-1.7579,-1.7872,0.0,0.0,0.0,0.0,0.0,0.0,0.0,0.0,0.0,0.0,0.0,0.0,0.0,0.0,0.0,0.0,0.0,0.0,0.0,-2.4535,-2.4294,-2.3634,-2.419,-2.401,-2.2942,-2.344,-2.3894,-2.4368,-2.41,-2.3925,-2.383,-2.3248,-2.2829,-2.2583,-2.2898,-2.2857,-2.2605,-2.3229,-2.3713,-2.4035,0.0,0.0,0.0,0.0,0.0,0.0,0.0,0.0,0.0,0.0,0.0,0.0,0.0,0.0,0.0,-2.1921,-2.1959,-2.2111,-2.2025,-2.2254,-2.2287,-2.146,-2.2808,-2.3731,-2.1558,-2.3114,-2.4255,-2.1597,-2.3437,-2.5401,-2.5061,-2.5134,-2.4829,-2.3599,-2.1794,-2.0739,-2.1112,-2.1814,-2.2397,-2.2813,-2.2163,-2.2026,-2.2962,0.0,0.0,0.0,0.0,0.0,-2.0196,-1.9793,-1.96,-1.9766,-1.8771,-1.8222,-1.8117,-1.7593,-1.8727,-2.142,-1.911,-1.9014,-2.0849,-1.8903,-1.8008,-1.812,-2.0051,-1.9799,-1.8154,-2.0128,-1.9622,-1.7681,-1.7681,-1.7545,-1.726,-1.6532,-1.6715,-1.7157,0.0,0.0,0.0,0.0,0.0,0.0,0.0,0.0,0.0,0.0,0.0,0.0,0.0,0.0,0.0,0.0,0.0,0.0,0.0,-2.5003,-2.4869,-2.5039,-2.4705,-2.4144,-2.3377,-2.3874,-2.4368,-2.4861,-2.4572,-2.4866,-2.5709,-2.5402,-2.5111,-2.4868,-2.4971,-2.4596,-2.399,-2.4552,-2.4745,-2.4763,-2.4982,0.0,0.0,0.0,0.0,0.0,0.0,0.0,0.0,0.0,0.0,0.0,0.0,0.0,-2.2327,-2.1921,-2.1959,-2.2073,-2.1883,-2.2139,-2.2422,-2.2077,-2.2474,-2.2483,-2.0669,-2.2639,-2.3958,-2.0926,-2.1979,-2.3136,-2.1958,-2.4073,-2.5237,-2.2792,-2.3188,-2.2789,-2.0036,0.0,-1.9689,-1.9463,-1.902,-1.8658,0.0,0.0,0.0,0.0,0.0,0.0,-1.9076,-1.8656,-1.8693,-1.9309,-1.7996,-1.7107,-1.6751,-1.5842,-1.6385,-1.8315,-1.8095,-1.812,-1.8255,-1.8086,-1.8008,-1.8008,-1.8187,-1.8154,-1.8008,-1.8187,-1.7647,-1.6706,-1.6706,-1.6184,-1.5376,-1.534,-1.534,-1.5376,0.0,0.0,0.0,0.0,0.0,0.0,0.0,0.0,0.0,0.0,0.0,-2.5203,-2.5357,0.0,0.0,0.0,0.0,0.0,0.0,-2.4937,-2.4719,-2.4237,-2.4585,-2.4423,-2.3558,-2.4217,-2.4712,-2.5002,-2.5283,-2.5484,-2.5655,-2.57,-2.5495,-2.5127,-2.525,-2.5083,-2.4736,-2.4959,-2.5192,-2.5411,-2.5328,-2.5318,0.0,0.0,0.0,0.0,0.0,0.0,0.0,0.0,-2.2204,-2.1976,-2.1829,-2.1982,-2.2138,-2.1731,-2.1769,-2.1883,-2.1655,-2.1817,-2.1752,-2.0369,-2.1032,-2.156,-1.9948,-2.1708,-2.2705,-1.9327,-2.1794,-2.4374,-2.3733,-2.2751,-2.1634,-2.0281,-1.9453,-1.8523,-1.7375,-1.7705,-1.7944,-1.7609,-1.7258,-1.7212,0.0,0.0,0.0,0.0,0.0,0.0,-1.7668,-1.7261,-1.7035,-1.7104,-1.6355,-1.5874,-1.5728,-1.5376,-1.5552,-1.6263,-1.6862,-1.7432,-1.8008,-1.8008,-1.7681,-1.7139,-1.7139,-1.6793,-1.6263,-1.6263,-1.6053,-1.5728,-1.5728,-1.5508,-1.5128,-1.4494,-1.4665,-1.5021,0.0,0.0,0.0,0.0,0.0,0.0,0.0,0.0,-2.5836,0.0,0.0,0.0,0.0,-2.5594,0.0,0.0,0.0,0.0,-2.4631,-2.4899,-2.4789,-2.411,-2.4581,-2.4626,-2.4135,-2.4426,-2.4766,-2.5154,-2.5547,-2.5761,-2.5817,-2.5857,-2.5838,-2.5779,-2.5978,-2.5931,-2.5739,-2.5582,-2.5786,-2.6189,-2.5677,-2.5638,0.0,0.0,0.0,0.0,0.0,0.0,0.0,0.0,-2.2183,-2.1976,-2.176,-2.1886,-2.2025,-2.1693,-2.1693,-2.1769,-2.1617,-2.1693,-2.1385,-1.9691,-2.0436,-2.1076,-1.9037,-2.0664,-2.1655,-1.8419,-2.0188,-2.2465,-2.2933,-2.1293,-1.9632,-1.8848,-1.7897,-1.6915,-1.5832,-1.6232,-1.648,-1.5972,-1.5821,0.0,0.0,0.0,0.0,0.0,0.0,0.0,0.0,-1.5963,-1.5724,-1.581,-1.5093,-1.4736,-1.4736,-1.4414,-1.4414,-1.4736,-1.5367,-1.6184,-1.7123,-1.7123,-1.6759,-1.614,-1.614,-1.579,-1.5199,-1.5199,-1.5021,-1.47,-1.4414,-1.4271,-1.4199,-1.3528,-1.3702,-1.4091,0.0,0.0,0.0,0.0,0.0,0.0,0.0,0.0,-2.6396,-2.666,-2.6218,0.0,0.0,0.0,0.0,0.0,0.0,0.0,-2.4718,-2.5005,-2.521,-2.5222,-2.4822,-2.4785,-2.5185,-2.4503,-2.4511,-2.5322,-2.5322,-2.5723,-2.6517,-2.6232,-2.6491,-2.7208,-2.7412,-2.7362,-2.7058,-2.6688,-2.6751,-2.7019,-2.6078,-2.5831,-2.5927,0.0,0.0,0.0,0.0,0.0,0.0,0.0,-2.2563,-2.203,-2.2328,-2.2252,-2.2073,-2.1845,-2.1807,-2.1807,-2.1769,-2.1807,-2.1555,-2.0566,-2.1056,-2.1017,-1.8029,-1.96,-2.0945,-1.8423,-1.6824,-1.6422,-1.8398,-1.9666,-2.0052,-1.8887,-1.9695,-1.9271,-1.5904,-1.5391,-1.517,-1.4589,-1.4516,0.0,0.0,0.0,0.0,0.0,0.0,0.0,0.0,-1.4825,-1.4942,-1.5736,-1.4413,-1.3673,-1.3673,-1.2769,-1.2769,-1.3673,-1.3673,-1.4207,-1.5199,-1.5199,-1.5199,-1.5199,-1.5199,-1.5163,-1.5163,-1.5163,-1.4601,-1.36,-1.2659,-1.2305,-1.2305,-1.2305,-1.2305,-1.2305,0.0,0.0,0.0,0.0,0.0,0.0,0.0,0.0,-2.6847,-2.6661,-2.6284,0.0,0.0,0.0,0.0,0.0,0.0,0.0,-2.5111,-2.4767,-2.4684,-2.4917,-2.4869,-2.4905,-2.4904,-2.5164,-2.5513,-2.5989,-2.6088,-2.6614,-2.7474,-2.7561,-2.7221,-2.6644,-2.8397,-2.7989,-2.6061,-2.7498,-2.7505,-2.6491,-2.6212,-2.6153,-2.6133,0.0,0.0,0.0,0.0,0.0,0.0,0.0,0.0,0.0,-2.1897,-2.1913,-2.1696,-2.079,-2.1046,-2.1409,-2.0562,-2.085,-2.1211,-2.0469,-2.0298,-2.0351,-2.0444,-2.0036,-1.9539,-1.9193,-1.8888,-1.9211,-2.1024,-1.906,0.0,-1.8532,-1.771,-1.6545,-1.5536,-1.5044,-1.4716,-1.4543,0.0,0.0,0.0,0.0,0.0,0.0,0.0,0.0,0.0,-1.3675,-1.3533,-1.3351,-1.2921,-1.2732,-1.2732,-1.2445,-1.2445,-1.2732,-1.2732,-1.3593,-1.5199,-1.5199,-1.4807,-1.4135,-1.4135,-1.3774,-1.3164,-1.3164,-1.2981,-1.2696,-1.2409,-1.2305,-1.2305,-1.2305,-1.2305,-1.2305,0.0,0.0,0.0,0.0,0.0,0.0,-2.7026,-2.683,-2.6703,-2.6814,-2.6349,-2.618,0.0,0.0,0.0,-2.6213,-2.5338,0.0,-2.4893,-2.4671,-2.4487,-2.448,-2.4849,-2.504,-2.504,-2.5599,-2.609,-2.645,-2.6318,-2.6641,-2.737,-2.7083,-2.6711,-2.6357,-2.789,-2.7557,-2.5946,-2.7259,-2.7208,-2.6178,-2.5689,-2.5735,-2.5993,0.0,0.0,0.0,0.0,0.0,0.0,0.0,0.0,0.0,-2.1644,-2.1622,-2.1502,-2.0586,-2.08,-2.1159,-2.0105,-2.024,-2.0459,-1.9366,-1.9536,-2.0066,-2.05,-1.9904,-1.9049,-1.8229,-1.8179,-1.8601,-1.9653,-1.7611,0.0,-1.7236,-1.5871,-1.4798,-1.4993,-1.4332,-1.3935,-1.4312,0.0,0.0,0.0,0.0,0.0,0.0,0.0,0.0,0.0,-1.3213,-1.2933,-1.2318,-1.2305,-1.2305,-1.2305,-1.2305,-1.2305,-1.2305,-1.2305,-1.2908,-1.4055,-1.4055,-1.3738,-1.3135,-1.3135,-1.2806,-1.2305,-1.2305,-1.2305,-1.2305,-1.2305,-1.2305,-1.2261,-1.1848,-1.1694,-1.1657,0.0,0.0,-2.5902,-2.6918,0.0,0.0,-2.7266,-2.6626,-2.6367,-2.713,-2.6451,-2.6193,0.0,0.0,0.0,-2.627,-2.5642,-2.4995,-2.4431,-2.4633,-2.4582,-2.411,-2.4817,-2.5265,-2.5419,-2.5949,-2.6372,-2.6698,-2.6141,-2.6163,-2.665,-2.5625,-2.5553,-2.6275,-2.6518,-2.6493,-2.6263,-2.6388,-2.6329,-2.5937,-2.4894,-2.498,-2.5658,-2.4742,0.0,0.0,0.0,0.0,0.0,0.0,0.0,0.0,-2.1671,-2.1472,-2.1369,-2.0842,-2.0835,-2.0849,-2.0015,-1.9874,-1.9555,-1.7929,-1.8939,-2.0008,-1.8811,-1.9178,-1.9032,-1.6334,-1.6001,-1.6089,-1.5872,-1.571,-1.551,-1.5292,-1.4223,-1.3646,-1.4101,-1.328,-1.2903,-1.3678,0.0,0.0,0.0,0.0,0.0,0.0,0.0,0.0,0.0,-1.3008,-1.2732,-1.2059,-1.2114,-1.2114,-1.204,-1.2114,-1.2114,0.0,-1.204,-1.204,-1.204,-1.2231,-1.2305,-1.2305,-1.2305,-1.2305,-1.2305,-1.2305,-1.2305,-1.2298,-1.2187,-1.215,-1.2033,-1.1013,-1.0677,-1.0527,0.0,0.0,-2.7194,-2.7698,0.0,0.0,-2.7442,-2.7506,-2.7561,-2.7584,-2.7048,-2.6849,-2.7324,-2.7113,0.0,-2.6624,-2.5569,-2.4966,-2.5091,-2.481,-2.4719,-2.4847,-2.5576,-2.5851,-2.5583,-2.6473,-2.689,-2.6688,-2.6673,-2.6867,-2.7299,-2.6627,-2.621,-2.6024,-2.7208,-2.6779,-2.5251,-2.6964,-2.6937,-2.5693,-2.5615,-2.5581,-2.561,-2.5228,-2.5111,0.0,0.0,0.0,0.0,0.0,0.0,0.0,-2.2248,-2.1738,-2.1002,-1.9995,-1.9683,-1.9478,-1.8393,-1.8826,-1.9477,-1.9238,-1.9891,-1.9842,-1.7082,-1.744,-1.7887,-1.6162,-1.7526,-1.8347,-1.6177,-1.4879,-1.4141,-1.4086,-1.27,-1.1684,-1.1805,-1.1406,-1.1138,0.0,0.0,0.0,0.0,0.0,0.0,0.0,0.0,0.0,-1.0697,-1.1496,-1.1386,-0.9986,-1.0714,-1.0752,-0.9933,-1.072,-1.072,0.0,-0.9938,-0.9938,-1.0013,-1.1589,-1.2305,-1.2305,-1.2305,-1.2305,-1.2305,-1.2305,-1.2305,-1.2224,-1.1428,-1.1124,-1.1013,-1.0008,-0.9631,-0.9593,0.0,0.0,0.0,0.0,0.0,0.0,0.0,0.0,-2.7551,-2.7664,-2.7377,-2.7165,-2.721,-2.6752,0.0,0.0,-2.4951,-2.4336,-2.4564,-2.445,-2.4573,-2.4901,-2.5716,-2.6004,-2.571,-2.6496,-2.6822,-2.67,-2.6671,-2.6879,-2.7251,-2.6169,-2.5849,-2.6188,-2.6773,-2.6261,-2.5148,-2.6636,-2.6544,-2.5379,-2.5483,-2.5607,-2.5687,-2.521,-2.513,-2.5147,-2.4778,0.0,0.0,0.0,0.0,0.0,0.0,0.0,-2.0633,-1.9733,-1.9449,-1.921,-1.8258,-1.8329,-1.8642,-1.858,-1.8434,-1.7979,-1.6795,-1.6732,-1.6522,-1.5149,-1.653,-1.7287,-1.5263,-1.4251,-1.3473,-1.269,-1.1257,-1.0375,-1.0798,-1.0251,-1.0009,0.0,0.0,0.0,0.0,0.0,0.0,0.0,0.0,-1.1,-0.9963,-1.0514,-1.0385,-0.9349,-0.982,-0.982,-0.9296,-0.982,-0.982,-0.9296,-0.9296,-0.9296,-0.9334,-1.087,-1.1583,-1.1583,-1.1583,-1.1316,-1.0875,-1.0875,-1.0875,-1.0795,-1.0303,-1.0078,-0.997,-0.8955,-0.858,-0.8504,0.0,0.0,0.0,0.0,0.0,0.0,0.0,0.0,0.0,-2.7956,-2.7796,-2.7502,-2.711,-2.6385,-2.5803,0.0,0.0,0.0,-2.3696,-2.3893,-2.4165,-2.4607,-2.5408,-2.576,-2.5499,-2.6029,-2.6341,-2.6401,-2.6177,-2.6391,-2.7031,-2.5544,-2.559,-2.6853,-2.6166,-2.5709,-2.55,-2.611,-2.594,-2.528,-2.5348,-2.5586,-2.5884,-2.5125,-2.504,-2.5229,-2.4815,-2.4337,-2.3824,-2.3446,0.0,0.0,0.0,0.0,-2.0286,-1.9723,-1.943,-1.9117,-1.8355,-1.7937,-1.7644,-1.7341,-1.6752,-1.6364,-1.6892,-1.6376,-1.536,-1.4154,-1.4752,-1.508,-1.3772,-1.3225,-1.2516,-1.1171,-0.9822,-0.9193,-0.9898,-0.9187,-0.893,0.0,0.0,0.0,0.0,0.0,0.0,0.0,0.0,-1.0031,-0.9394,-0.9533,-0.9384,-0.878,-0.8955,-0.8955,-0.877,-0.8955,-0.8955,-0.877,-0.877,-0.8879,-0.9069,-0.989,-1.0372,-1.0527,-1.0527,-1.0078,-0.9296,-0.9296,-0.9296,-0.9296,-0.9107,-0.9031,-0.8917,-0.7897,-0.7557,-0.7442,0.0,0.0,0.0,0.0,0.0,0.0,0.0,0.0,0.0,0.0,-2.8866,-2.8379,-2.7843,-2.6947,-2.6169,-2.5548,-2.4355,-2.3523,-2.3385,0.0,0.0,-2.4315,-2.4715,-2.4692,-2.4324,-2.4911,-2.5239,-2.5216,-2.4861,-2.5559,-2.7251,-2.654,-2.702,-2.8326,-2.6826,-2.6129,-2.6102,-2.6181,-2.6156,-2.6067,-2.6249,-2.6264,-2.6082,-2.5342,-2.5144,-2.5216,-2.4377,-2.4024,-2.3824,-2.3446,-2.2644,0.0,0.0,0.0,-1.9832,-1.9453,-1.8664,-1.7839,-1.7278,-1.7097,-1.7103,-1.7056,-1.7472,-1.7567,-1.6299,-1.5731,-1.5147,-1.4106,-1.4022,-1.3712,-1.2257,-1.0951,-0.9956,-0.9636,-0.8333,-0.7425,-0.7533,-0.7445,-0.7401,0.0,0.0,0.0,0.0,0.0,0.0,0.0,-0.8536,-0.8553,-0.7206,-0.8078,-0.8034,-0.6729,-0.7557,-0.7595,-0.6718,-0.7553,-0.7553,-0.6718,-0.6718,-0.7176,-0.8012,-0.8122,-0.8689,-0.9485,-0.9485,-0.941,-0.9296,-0.9296,-0.9296,-0.9221,-0.8351,-0.8012,-0.7897,-0.6872,-0.649,-0.649,0.0,0.0,0.0,0.0,0.0,0.0,0.0,0.0,0.0,0.0,0.0,-2.8123,-2.7276,-2.6034,-2.5138,-2.4854,-2.3636,-2.2938,-2.311,-2.2697,-2.2732,-2.3316,-2.3748,-2.3828,-2.3483,-2.4131,-2.4676,-2.4994,-2.471,-2.5942,-2.8518,-2.7535,-2.7853,-2.9275,-2.7879,-2.7251,-2.7226,-2.6949,-2.6461,-2.5911,-2.6429,-2.6675,-2.6689,-2.5658,-2.5534,-2.5756,-2.4471,-2.3966,-2.3815,-2.3279,-2.263,-2.1967,-2.1235,0.0,0.0,0.0,-1.8377,-1.7733,-1.6902,-1.7065,-1.7221,-1.613,-1.6883,-1.728,-1.4981,-1.4763,-1.444,-1.2169,-1.1646,-1.1383,-1.0772,-1.0023,-0.9234,-0.8386,-0.7592,-0.7095,-0.7095,-0.7095,-0.7095,0.0,0.0,0.0,0.0,0.0,0.0,0.0,-0.7577,-0.7527,-0.6757,-0.7188,-0.7082,-0.631,-0.6718,-0.6756,-0.63,-0.6756,-0.6756,-0.63,-0.63,-0.6528,-0.6945,-0.6945,-0.7518,-0.8466,-0.8466,-0.8122,-0.7629,-0.7629,-0.7629,-0.7591,-0.7138,-0.6945,-0.6911,-0.6451,-0.63,-0.63,0.0,0.0,0.0,0.0,0.0,0.0,0.0,0.0,0.0,0.0,0.0,-2.751,-2.6553,0.0,0.0,0.0,-2.2864,-2.2303,-2.2559,-2.2143,-2.2096,-2.263,-2.3001,-2.3132,-2.2998,-2.3584,-2.4138,-2.4651,-2.4489,-2.5923,-2.8753,-2.7882,-2.8282,-2.9754,-2.8938,-2.841,-2.8097,-2.7893,-2.705,-2.5896,-2.6577,-2.6968,-2.6979,-2.5968,-2.5931,-2.6202,-2.4778,-2.4025,-2.3648,-2.3012,-2.2393,-2.1702,-2.0643,-1.9981,0.0,0.0,0.0,-1.7686,-1.6758,-1.7064,-1.731,-1.5814,-1.6725,-1.735,-1.4845,-1.4499,-1.3893,-1.1149,-0.9883,-0.9207,-0.921,-0.9088,-0.862,-0.7514,-0.7214,-0.7095,-0.7095,-0.7095,-0.7095,0.0,0.0,0.0,0.0,0.0,0.0,0.0,-0.7095,-0.6967,-0.6715,-0.6702,-0.6566,-0.631,-0.63,-0.63,-0.63,-0.63,-0.63,-0.63,-0.63,-0.63,-0.63,-0.63,-0.6718,-0.7403,-0.7403,-0.6984,-0.63,-0.63,-0.63,-0.63,-0.63,-0.63,-0.63,-0.63,-0.63,-0.63,0.0,0.0,0.0,0.0,0.0,0.0,0.0,0.0,0.0,0.0,0.0,-2.6694,-2.6184,-2.4735,-2.3654,-2.3203,-2.2342,-2.1743,-2.1494,-2.1345,-2.1706,-2.2751,-2.2683,0.0,-2.2985,-2.3158,-2.3386,-2.3663,-2.3654,-2.4753,-2.6862,-2.7148,-2.8221,-2.9792,-2.9947,-2.929,-2.8147,-2.8872,-2.8126,-2.6499,-2.7052,-2.6977,-2.649,-2.6242,-2.6263,-2.6299,-2.5373,-2.4272,-2.3171,-2.2746,-2.162,-2.0384,-2.0175,-1.9424,-1.8564,0.0,0.0,0.0,-1.6713,-1.6923,-1.714,-1.6737,-1.7912,-1.8768,-1.7092,-1.5471,-1.3912,-1.2461,-0.9824,-0.7657,-0.7558,-0.7524,-0.7423,-0.7177,-0.7102,-0.7095,-0.7095,-0.7095,-0.7095,0.0,0.0,0.0,0.0,0.0,0.0,0.0,-0.7095,-0.6967,-0.6715,-0.6702,-0.6566,-0.631,-0.63,-0.63,-0.63,-0.63,-0.63,-0.63,-0.63,-0.63,-0.63,-0.63,-0.6338,-0.6377,-0.6377,-0.6338,-0.63,-0.63,-0.63,-0.63,-0.63,-0.63,-0.63,-0.63,-0.63,-0.63,0.0,0.0,0.0,0.0,0.0,0.0,0.0,0.0,0.0,0.0,0.0,0.0,0.0,-2.4509,-2.3406,-2.3602,-2.271,-2.2244,-2.2537,-2.2333,-2.2352,-2.2644,-2.2641,-2.2696,-2.2855,-2.3007,-2.3341,-2.3859,-2.3692,-2.4422,-2.6,-2.587,-2.6659,-2.8235,-2.9378,-2.9441,-2.8649,-2.8925,-2.8116,-2.67,-2.7635,-2.7672,-2.7142,-2.659,-2.6758,-2.7041,-2.5252,-2.4566,-2.4332,-2.286,-2.1835,-2.1002,-1.9813,-1.9233,-1.8779,-1.8039,-1.7624,-1.7223,-1.6512,-1.6949,-1.7363,-1.6388,-1.7333,-1.7997,-1.5899,-1.4462,-1.3334,-1.2682,-0.9866,-0.7752,-0.8767,-0.8087,-0.7319,-0.7122,-0.7095,-0.683,-0.6115,-0.6027,-0.5711,0.0,0.0,0.0,0.0,0.0,0.0,0.0,0.0,-0.7348,-0.6719,-0.7734,-0.7673,-0.6349,-0.63,-0.63,-0.63,-0.63,-0.63,-0.63,-0.63,-0.63,-0.63,-0.63,-0.5906,-0.5276,-0.5276,-0.567,-0.6261,-0.555,-0.5276,-0.5198,-0.453,-0.4647,-0.5276,-0.5276,-0.5276,-0.5276,0.0,0.0,0.0,-3.0834,0.0,-2.9668,-2.8699,-2.8648,-2.831,-2.7167,0.0,0.0,0.0,0.0,-2.3772,-2.4024,-2.356,-2.3404,-2.3784,-2.3595,-2.3497,-2.353,-2.3515,-2.3553,-2.3747,-2.3636,-2.3777,-2.418,-2.3735,-2.4065,-2.5135,-2.4988,-2.5698,-2.709,-2.8209,-2.8762,-2.8913,-2.9365,-2.8635,-2.7243,-2.8086,-2.8162,-2.771,-2.7309,-2.7349,-2.7508,-2.6153,-2.5481,-2.4998,-2.3421,0.0,0.0,-1.9948,-1.9154,-1.8631,-1.7762,-1.7509,-1.7351,-1.6633,-1.7059,-1.7453,-1.6497,-1.7254,-1.7766,-1.6023,-1.4322,-1.3006,-1.2662,-0.9745,-0.7649,-0.8706,-0.7728,-0.667,-0.6532,-0.6201,-0.5664,-0.491,-0.4776,-0.4508,0.0,0.0,0.0,0.0,0.0,0.0,0.0,0.0,0.0,-0.56,-0.6619,-0.6798,-0.5799,-0.6103,-0.63,-0.63,-0.63,-0.6103,-0.5747,-0.5747,-0.5589,-0.5237,-0.5237,-0.4844,-0.4178,-0.4178,-0.4569,-0.5157,-0.4453,-0.4178,-0.41,-0.3396,-0.3552,-0.4178,-0.4178,-0.4178,-0.4178,-3.3054,-3.2834,-3.25,-3.1848,-3.1239,-3.0567,-2.976,-2.8964,-2.8355,-2.8095,0.0,0.0,0.0,0.0,0.0,-2.4381,-2.4887,-2.5145,-2.5059,-2.4917,-2.5001,-2.5399,-2.5295,-2.5342,-2.5591,-2.5027,-2.4619,-2.4489,-2.3758,-2.3645,-2.4158,-2.4576,-2.5347,-2.6424,-2.6449,-2.7331,-2.8925,-3.0238,-2.9745,-2.807,-2.833,-2.828,-2.8121,-2.8317,-2.8049,-2.7607,-2.8174,-2.7017,-2.5099,-2.4516,0.0,0.0,-2.0517,-1.9139,-1.794,-1.7617,-1.7528,-1.7431,0.0,0.0,0.0,-1.7278,-1.7808,-1.8247,-1.7804,-1.54,-1.3071,-1.2486,-0.963,-0.718,-0.7183,-0.616,-0.5359,-0.5359,-0.4374,-0.357,-0.357,-0.3525,-0.3525,0.0,0.0,0.0,0.0,0.0,0.0,0.0,-0.3571,-0.3541,-0.3295,-0.3347,-0.3771,-0.4616,-0.567,-0.6222,-0.6222,-0.6222,-0.567,-0.4647,-0.4647,-0.41,-0.3085,-0.3085,-0.3085,-0.3046,-0.3046,-0.3046,-0.3007,-0.3046,-0.3046,-0.3046,-0.3007,-0.3046,-0.3046,-0.3046,-0.3046,-0.3046,-3.3417,-3.3385,-3.3117,-3.2345,-3.2072,-3.158,-3.0573,-3.0139,-2.9806,0.0,0.0,0.0,0.0,-2.6833,-2.5853,-2.5627,-2.5432,-2.551,-2.5908,-2.5677,-2.556,-2.57,-2.5652,-2.5625,-2.5604,-2.5,-2.4567,-2.4277,-2.3548,-2.3218,-2.3268,-2.3257,-2.3659,-2.4352,-2.5299,-2.6189,-2.7016,-2.8323,-2.7978,-2.6696,-2.8622,-2.876,-2.7822,-2.8484,-2.8587,-2.8263,-2.7866,-2.7456,-2.6784,0.0,-2.3831,-2.2833,0.0,-1.9037,-1.8042,-1.824,-1.8235,-1.8137,-1.8026,0.0,0.0,0.0,0.0,0.0,-1.7765,-1.6068,-1.4454,-1.431,-1.1534,-0.907,-0.8865,-0.6222,-0.4105,-0.4105,-0.3838,-0.3303,-0.2413,-0.228,-0.1969,0.0,0.0,0.0,0.0,0.0,0.0,0.0,-0.3424,-0.3888,-0.3339,-0.3215,-0.3304,-0.3517,-0.3826,-0.3982,-0.3982,-0.3982,-0.3826,-0.3552,-0.3552,-0.3396,-0.3085,-0.3085,-0.2696,-0.1996,-0.1996,-0.1566,-0.0901,-0.1683,-0.1996,-0.1957,-0.1175,-0.1332,-0.1996,-0.1996,-0.1996,-0.1996,-3.3796,-3.3779,-3.3561,-3.3103,-3.2684,-3.2109,-3.1176,-3.0795,-3.0485,0.0,0.0,0.0,0.0,0.0,-2.7421,-2.7165,-2.6891,-2.6885,-2.7234,-2.6958,-2.6767,-2.6767,-2.6607,-2.6316,-2.5954,-2.5528,-2.5069,-2.4576,-2.4066,0.0,0.0,0.0,-2.3808,-2.4275,-2.4867,-2.5419,-2.5912,-2.6972,-2.7326,-2.7258,-2.8647,-2.8949,-2.8533,-2.8887,-2.8888,0.0,0.0,0.0,-2.7876,-2.589,-2.4189,0.0,0.0,-1.9384,-1.8689,0.0,0.0,-1.8583,-1.8229,-1.8256,-1.8251,-1.7676,0.0,0.0,-1.7747,-1.5811,-1.3953,-1.388,-1.1112,-0.8831,-0.9228,-0.7044,-0.5005,-0.4432,-0.402,-0.3117,-0.1299,-0.1031,-0.0807,0.0,0.0,0.0,0.0,0.0,-0.0269,-0.0986,-0.1939,-0.2315,-0.1929,-0.2293,-0.2467,-0.2465,-0.289,-0.3085,-0.3085,-0.3085,-0.289,-0.2462,-0.2462,-0.2229,-0.18,-0.18,-0.1488,-0.0941,-0.0941,-0.0588,-0.0039,-0.0667,-0.0941,-0.0863,-0.0235,-0.0392,-0.0941,-0.0941,-0.0941,-0.0941,0.0,-3.4043,-3.3968,-3.3827,-3.314,-3.2426,-3.1878,-3.1312,-3.0978,0.0,-3.0988,0.0,0.0,0.0,0.0,0.0,-2.8704,-2.8663,-2.8663,-2.8283,-2.8046,-2.8079,-2.7703,-2.7189,-2.6524,-2.6303,-2.5877,0.0,0.0,0.0,0.0,0.0,0.0,0.0,-2.49,-2.4975,-2.5326,-2.6124,-2.7344,-2.8712,-2.8544,-2.8962,-2.9679,-2.9366,-2.9051,-2.8874,-2.9565,-2.935,-2.8543,-2.7002,-2.4414,0.0,0.0,0.0,0.0,0.0,-1.9322,-1.8967,-1.83,-1.8322,-1.8353,-1.7587,-1.7649,0.0,-1.7766,-1.5378,-1.3113,-1.2729,-1.0139,-0.8253,-0.9188,-0.8416,-0.7284,-0.6099,-0.501,-0.3413,-0.0853,-0.018,-0.0135,0.0,0.0,0.0,0.0,0.0,0.0,0.0,0.0,0.0,0.0,-0.0924,-0.1438,-0.1413,-0.2308,-0.2773,-0.2773,-0.2773,-0.2306,-0.1411,-0.1411,-0.0941,0.0,0.0,0.0,0.0,0.0,0.0,0.0,0.0,0.0,0.0,0.0,0.0,0.0,0.0,0.0,0.0,-3.3985,-3.4296,-3.4377,-3.355,-3.367,-3.381,-3.3683,-3.3038,-3.2961,-3.4112,-3.3262,0.0,0.0,0.0,0.0,0.0,-2.9369,-2.8973,-2.9073,-2.8166,-2.7703,-2.7855,-2.7523,-2.7284,-2.7133,-2.647,-2.599,0.0,0.0,0.0,0.0,0.0,0.0,0.0,-2.4591,-2.4933,-2.5204,-2.593,-2.6776,-2.767,-2.8498,-2.89,-2.9139,-2.9529,-2.9526,-2.9321,-2.9664,-2.9588,-2.8975,-2.7072,-2.4471,-2.1979,0.0,0.0,0.0,-2.0659,0.0,0.0,0.0,0.0,0.0,0.0,-1.8612,0.0,-1.8108,-1.7504,-1.6596,-1.5042,-1.4038,-1.309,-1.1866,-1.0371,-0.9255,-0.8991,-0.7833,-0.6148,-0.3801,-0.1444,-0.0856,-0.3175,0.0,0.0,0.0,0.0,0.0,0.0,0.0,0.0,0.0,-0.021,-0.033,-0.0314,-0.051,-0.0588,-0.0588,-0.0588,-0.051,-0.0314,-0.0314,-0.0196,0.0,0.0,0.0,0.0,0.0,0.0,0.0,0.0,0.0,0.0,0.0,0.0,0.0,0.0,0.0,0.0,-3.404,-3.4209,-3.4263,-3.3967,-3.3811,-3.3852,-3.4147,-3.3778,-3.3659,-3.4197,-3.3886,0.0,-3.2679,0.0,0.0,0.0,0.0,0.0,0.0,-2.8598,-2.8059,-2.7669,-2.7436,-2.7072,-2.6609,-2.6463,-2.6122,-2.559,0.0,0.0,0.0,0.0,0.0,0.0,-2.5286,-2.5501,-2.5758,-2.5945,-2.6464,-2.7237,-2.8148,0.0,-2.895,-2.9566,-2.9702,-2.9611,-2.974,-2.8988,-2.774,-2.6517,-2.4487,0.0,-2.234,-2.1781,-2.1155,0.0,-2.0929,-2.0511,0.0,0.0,0.0,-1.9182,0.0,0.0,0.0,-1.7666,-1.6589,-1.5632,-1.4497,-1.358,-1.323,-1.2272,-1.1291,-1.0605,-0.9871,-0.902,-0.7895,-0.44,-0.2012,-0.2122,0.0,0.0,0.0,0.0,0.0,0.0,0.0,0.0,0.0,0.0,0.0,0.0,0.0,0.0,0.0,0.0,0.0,0.0,0.0,0.0,0.0,0.0,0.0,0.0,0.0,0.0,0.0,0.0,0.0,0.0,0.0,0.0,0.0,0.0,0.0,0.0,-3.4108,-3.3951,-3.3935,-3.4221,-3.3818,-3.3669,-3.4287,-3.4164,-3.3798,-3.3325,-3.38,-3.4069,-3.36,-3.2704,-3.2209,0.0,0.0,0.0,0.0,-2.9409,-2.8824,-2.7876,-2.766,-2.7164,-2.6265,-2.6582,-2.6339,-2.5484,0.0,0.0,0.0,0.0,0.0,0.0,-2.6065,-2.6175,-2.6602,-2.6208,-2.6401,-2.6954,0.0,-2.8275,-2.88,-2.9272,-2.9549,-2.9602,-2.9496,-2.8039,-2.613,-2.5793,-2.4441,-2.2886,-2.2736,-2.2372,0.0,0.0,0.0,0.0,0.0,0.0,0.0,0.0,0.0,-1.9429,0.0,0.0,0.0,-1.6029,-1.4447,-1.335,-1.4354,0.0,0.0,0.0,0.0,0.0,0.0,-0.7666,0.0,-0.243,0.0,0.0,0.0,-0.0898,-0.0449,-0.0045,0.0,0.0,0.0,0.0,0.0,0.0,0.0,0.0,0.0,0.0,0.0,0.0,0.0,0.0,0.0,0.0,0.0,0.0,0.0,0.0,0.0,0.0,0.0,0.0,0.0,0.0,0.0,0.0,0.0,0.0,-3.3951,-3.3793,-3.3599,-3.3445,-3.3817,-3.4301,-3.4992,-3.454,-3.3892,0.0,0.0,-3.4029,-3.3388,-3.3115,-3.311,-3.3399,-3.2282,0.0,-3.1259,-3.0616,-2.9879,-2.9039,-2.8699,-2.817,-2.7411,-2.712,-2.6659,-2.6114,0.0,0.0,0.0,0.0,0.0,0.0,-2.6106,-2.6566,-2.7348,-2.682,-2.6591,0.0,-2.7179,-2.77,0.0,-2.8249,-2.8592,-2.8937,-2.8467,-2.686,-2.502,0.0,-2.4374,-2.3337,0.0,-2.311,-2.2801,-2.2408,0.0,0.0,0.0,0.0,0.0,0.0,-2.0304,0.0,0.0,0.0,-1.7969,-1.7605,0.0,-1.5901,0.0,0.0,0.0,0.0,0.0,0.0,-1.117,-1.017,-0.9752,-1.0075,-0.7645,0.0,0.0,-0.4084,-0.2053,-0.0135,0.0,0.0,0.0,0.0,0.0,0.0,0.0,0.0,0.0,0.0,0.0,0.0,0.0,0.0,0.0,0.0,0.0,0.0,0.0,0.0,0.0,0.0,0.0,0.0,0.0,0.0,0.0,0.0,0.0,0.0,-3.3917,-3.3744,-3.3649,-3.3789,-3.374,-3.4028,-3.5034,-3.4817,-3.4469,0.0,0.0,-3.431,-3.4349,-3.3548,-3.3337,-3.4183,-3.3149,-3.2358,-3.22,-3.1355,0.0,-2.9596,-2.8892,-2.8263,-2.7723,-2.7265,-2.6765,-2.6342,-2.5834,0.0,0.0,0.0,0.0,0.0,-2.587,-2.6089,-2.6655,-2.6101,-2.568,0.0,0.0,-2.6655,0.0,-2.6938,-2.7325,-2.7453,-2.6925,-2.5911,-2.4851,0.0,-2.4293,0.0,0.0,0.0,0.0,-2.2673,0.0,0.0,0.0,0.0,0.0,0.0,0.0,0.0,-1.8966,0.0,-1.8932,0.0,0.0,0.0,0.0,0.0,0.0,0.0,-1.4932,0.0,0.0,0.0,-1.1652,0.0,0.0,0.0,0.0,0.0,0.0,0.0,-0.171,-0.1701,-0.184,-0.066,0.0,0.0,0.0,0.0,0.0,0.0,0.0,0.0,0.0,0.0,0.0,0.0,0.0,0.0,0.0,0.0,0.0,0.0,0.0,0.0,0.0,0.0,0.0,0.0,0.0,0.0,-3.3827,-3.364,-3.3607,-3.3902,-3.3676,-3.3808,-3.4887,-3.4929,-3.4877,-3.4851,-3.4568,-3.4471,-3.4876,-3.3978,-3.3633,-3.4321,-3.3473,-3.2751,-3.2311,-3.1801,-3.103,-2.993,-2.9353,-2.8736,-2.8015,-2.7569,-2.7028,-2.6324,-2.5876,0.0,0.0,0.0,0.0,0.0,0.0,-2.5879,-2.6393,-2.5682,-2.5172,-2.4941,-2.5829,-2.5429,-2.4452,-2.5761,-2.5978,-2.5557,-2.5526,-2.501,-2.4361,-2.4608,-2.4024,0.0,-2.3741,0.0,-2.2941,0.0,0.0,0.0,-2.1877,0.0,0.0,0.0,0.0,0.0,0.0,0.0,0.0,0.0,0.0,0.0,0.0,0.0,0.0,0.0,0.0,-1.442,0.0,-1.4097,0.0,0.0,0.0,0.0,0.0,0.0,0.0,0.0,0.0,-0.2781,-0.3002,-0.1112,0.0,0.0,0.0,0.0,0.0,0.0,0.0,0.0,0.0,0.0,0.0,0.0,0.0,0.0,0.0,0.0,0.0,0.0,0.0,0.0,0.0,0.0193,0.0392,0.0118,0.0,0.0,-3.3605,-3.3466,-3.3326,-3.3354,-3.3611,-3.4066,-3.4523,-3.4868,-3.4868,-3.4293,-3.433,-3.439,-3.4425,-3.426,-3.3992,-3.3571,-3.3219,-3.2506,-3.1332,-3.1885,-3.1622,-3.0152,-3.0583,-3.0122,-2.8599,-2.8346,-2.7554,-2.6093,-2.5886,0.0,0.0,0.0,0.0,0.0,-2.5602,-2.6243,-2.7281,-2.6097,-2.5644,-2.5692,-2.5104,-2.418,-2.3341,0.0,-2.4607,-2.3343,-2.4414,0.0,0.0,-2.337,-2.3429,0.0,0.0,0.0,0.0,0.0,0.0,0.0,0.0,0.0,0.0,-2.1678,0.0,0.0,0.0,0.0,-1.977,0.0,0.0,0.0,0.0,0.0,0.0,0.0,0.0,0.0,0.0,0.0,0.0,0.0,0.0,0.0,0.0,0.0,0.0,0.0,0.0,0.0,-0.2543,-0.094,0.0,0.0,0.0,0.0,0.0,0.0,0.0,0.0,0.0,0.0,0.0,0.0,0.0,0.0,0.0,0.0,0.0,0.0,0.0,0.0,0.0,0.0627,0.1411,0.0392,0.0,0.0,-3.3283,-3.3037,-3.2931,-3.3072,-3.3445,-3.3937,-3.4626,-3.5182,-3.5131,-3.413,-3.3925,-3.3857,-3.3823,-3.3611,-3.3777,-3.4498,-3.4134,-3.3843,-3.3774,-3.3704,-3.299,-3.142,-3.2197,-3.1441,-2.8809,-2.8937,-2.8262,-2.6768,-2.5983,0.0,0.0,0.0,0.0,0.0,0.0,-2.5333,-2.5646,-2.5055,0.0,0.0,0.0,-2.4231,-2.4016,0.0,0.0,-2.3135,-2.3551,-2.343,0.0,-2.3735,-2.3599,-2.3299,-2.377,-2.3583,-2.3151,-2.3051,-2.2682,0.0,0.0,0.0,-1.8581,-1.9043,0.0,0.0,0.0,0.0,0.0,0.0,0.0,0.0,0.0,0.0,0.0,0.0,0.0,0.0,0.0,0.0,0.0,0.0,0.0,0.0,0.0,0.0,0.0,0.0,0.0,0.0,0.0,-0.2855,-0.1198,-0.1173,-0.0425,0.0,0.0,0.0,0.0,0.0,0.0,0.0,0.0,0.0,0.0,0.0,0.0,0.0,0.0039,0.0775,0.1046,0.1124,0.1794,0.2267,0.2462,0.1449,0.1488,0.2033,-3.3322,-3.3215,-3.3142,-3.2858,-3.3225,-3.3748,-3.4121,-3.4846,-3.4954,-3.3913,-3.3767,0.0,-3.3672,0.0,-3.3568,0.0,-3.3993,-3.3833,-3.3793,-3.3648,0.0,-3.1863,-3.2448,-3.1734,-2.9374,-2.9435,-2.8805,0.0,0.0,-2.5527,0.0,0.0,0.0,0.0,0.0,-2.4601,-2.485,-2.4273,-2.4106,0.0,0.0,-2.4112,0.0,0.0,-2.3353,-2.3091,0.0,-2.3091,-2.3178,-2.3647,-2.3474,-2.3178,-2.3647,-2.3501,-2.3087,-2.2924,-2.2552,-2.194,-2.054,-1.8959,0.0,-1.7955,-1.7307,0.0,-1.8171,0.0,0.0,0.0,0.0,0.0,0.0,0.0,0.0,0.0,0.0,0.0,0.0,-1.314,0.0,0.0,-1.1119,-1.0201,0.0,0.0,0.0,0.0,0.0,0.0,0.0,0.0,-0.1779,-0.1798,-0.0646,0.0,0.0,0.0,0.0,0.0,0.0,0.0,0.0,0.0,0.0,0.0039,0.0392,0.0588,0.0667,0.1684,0.2152,0.219,0.2851,0.3318,0.3554,0.2503,0.254,0.3163,-3.3735,-3.3892,-3.3769,-3.2636,-3.3074,-3.3471,-3.3106,0.0,-3.4348,0.0,-3.3767,-3.3966,-3.3966,-3.3783,-3.3407,-3.2726,-3.2877,-3.2599,-3.1625,-3.1933,0.0,0.0,-3.1593,-3.1244,-3.0301,0.0,0.0,0.0,0.0,0.0,0.0,0.0,0.0,0.0,-2.378,0.0,-2.5004,-2.3876,-2.3969,-2.4818,-2.438,-2.3777,-2.3222,-2.395,-2.3734,-2.3091,-2.3091,-2.3091,-2.3091,-2.3091,-2.3091,-2.3091,-2.3091,-2.3081,-2.2984,-2.2541,-2.2155,-2.1501,-1.9898,-1.8385,-1.7498,-1.8341,0.0,0.0,0.0,0.0,-1.7697,0.0,0.0,0.0,0.0,0.0,0.0,0.0,0.0,0.0,0.0,0.0,-1.2079,0.0,-0.9656,-0.9135,-1.0569,-0.8603,0.0,0.0,0.0,0.0,0.0,0.0,-0.1924,-0.179,-0.0747,-0.0086,0.0,-0.0041,-0.004,0.0,0.0,0.0,0.0,0.0,0.0039,0.0118,0.1176,0.1646,0.1762,0.2774,0.3163,0.3202,0.324,0.3865,0.4647,0.3632,0.324,0.3396,-3.3905,-3.3555,-3.3276,-3.3251,-3.3159,-3.337,0.0,0.0,0.0,0.0,-3.3489,-3.3508,-3.3339,-3.3267,-3.3419,-3.3833,-3.3557,0.0,0.0,0.0,0.0,-3.2051,-3.3499,-3.3,-3.0152,-3.0639,-3.009,-2.8397,0.0,0.0,-2.6558,0.0,0.0,0.0,0.0,-2.3851,-2.4594,-2.3767,-2.3639,-2.4143,-2.4562,-2.4262,0.0,0.0,-2.3734,-2.3091,-2.3091,-2.3091,-2.3091,-2.3091,-2.3091,-2.3091,-2.3091,-2.2877,-2.2475,-2.1592,-2.1319,-2.074,-1.7929,-1.7227,-1.7155,-1.6613,-1.5896,-1.5675,0.0,0.0,0.0,0.0,0.0,0.0,0.0,0.0,0.0,0.0,0.0,0.0,0.0,0.0,0.0,-1.1564,-1.0531,-1.0043,-1.0631,0.0,0.0,0.0,0.0,0.0,0.0,0.0,0.0,-0.1835,-0.2191,-0.1631,0.0,-0.0699,-0.0683,0.0,0.0,0.0,0.0,0.0,0.0432,0.1215,0.1489,0.2035,0.2812,0.3865,0.4295,0.4373,0.5157,0.5628,0.5867,0.5589,0.5473,0.5512,-3.447,-3.4153,-3.4116,-3.4538,0.0,0.0,-3.3553,-3.3415,0.0,-3.2933,-3.3119,0.0,-3.3124,-3.3124,-3.3276,-3.3726,-3.3612,0.0,-3.3788,0.0,0.0,-3.2641,-3.3532,-3.2941,-3.0584,-3.0929,0.0,-2.8928,0.0,0.0,-2.7069,0.0,0.0,0.0,0.0,-2.3955,-2.4481,-2.3969,-2.3604,-2.344,-2.4265,-2.4133,0.0,-2.4036,-2.3734,-2.3091,-2.3091,-2.3091,-2.3091,-2.3091,-2.3091,-2.3091,-2.3091,-2.2486,-2.1664,-2.0817,-2.024,-1.9261,-1.6716,-1.6288,-1.6355,-1.5262,-1.4849,-1.4837,-1.5427,-1.574,-1.5782,0.0,0.0,0.0,0.0,0.0,0.0,0.0,0.0,0.0,0.0,0.0,0.0,0.0,-1.0119,0.0,0.0,0.0,0.0,0.0,0.0,0.0,0.0,0.0,0.0,-0.3086,-0.2653,-0.2002,-0.1109,-0.1599,-0.1399,-0.0478,0.0,0.0396,0.0706,0.1136,0.1683,0.2268,0.2737,0.3283,0.3865,0.496,0.5395,0.547,0.606,0.63,0.63,0.63,0.63,0.63,-3.5135,-3.5149,-3.5384,-3.5791,0.0,0.0,0.0,-3.2976,0.0,-3.2478,0.0,-3.3149,-3.3224,-3.3162,-3.3106,-3.3138,0.0,-3.3437,-3.3158,-3.3055,-3.2992,-3.3119,-3.2692,-3.2117,-3.1327,-3.0915,-3.0347,0.0,0.0,0.0,0.0,0.0,0.0,-2.4468,-2.4151,-2.4164,0.0,-2.4311,-2.3758,-2.3001,-2.3841,-2.3777,-2.3266,-2.382,-2.3647,-2.3091,-2.2906,-2.296,-2.3091,-2.3091,-2.3091,-2.3047,-2.2906,-2.1936,-2.0721,-1.9974,-1.8912,-1.7596,-1.5959,-1.5579,-1.5455,-1.437,-1.4088,-1.4088,-1.4088,-1.4088,-1.4088,-1.4088,-1.4088,-1.4208,0.0,0.0,0.0,0.0,0.0,0.0,0.0,0.0,0.0,0.0,0.0,0.0,0.0,0.0,0.0,0.0,0.0,0.0,0.0,0.0,0.0,-0.4383,-0.2731,0.0,-0.2299,0.0,-0.1909,-0.0731,0.0081,0.096,0.1841,0.2696,0.3163,0.3357,0.4295,0.4766,0.4999,0.5906,0.63,0.63,0.63,0.63,0.63,0.63,0.63,0.63,-3.5308,-3.5539,-3.5429,-3.4647,0.0,-3.3908,-3.3124,-3.2689,-3.2709,-3.3495,-3.3294,-3.3257,-3.3709,-3.3357,-3.317,-3.3401,-3.3467,0.0,0.0,0.0,0.0,-3.3106,-3.3038,-3.2677,-3.2047,-3.0693,-3.0117,0.0,0.0,0.0,0.0,0.0,0.0,-2.4468,-2.3879,-2.3636,-2.3721,-2.446,0.0,-2.3644,-2.38,-2.3797,-2.3667,-2.3396,-2.3222,-2.296,-2.1987,-2.2262,-2.3091,-2.3091,-2.3091,-2.2916,-2.1933,-2.1207,-2.0288,-1.8072,-1.7605,-1.7345,-1.5028,-1.5019,-1.5455,-1.437,-1.4088,-1.4088,-1.4088,-1.4088,-1.4088,-1.4088,-1.4088,-1.413,-1.4208,0.0,0.0,0.0,0.0,0.0,0.0,0.0,0.0,0.0,0.0,-0.9375,0.0,0.0,0.0,0.0,0.0,0.0,0.0,0.0,0.0,0.0,-0.3712,0.0,0.0,0.0,-0.1272,0.1137,0.0688,0.1319,0.2851,0.3007,0.3591,0.4414,0.4608,0.5198,0.6025,0.6219,0.63,0.63,0.63,0.63,0.63,0.63,0.63,0.63,-3.6004,-3.6333,-3.6402,-3.6022,0.0,0.0,0.0,-3.1824,-3.1396,-3.3264,-3.3244,-3.3224,-3.3445,-3.3232,-3.3138,-3.3271,-3.3268,-3.3274,-3.3308,-3.3281,-3.3238,-3.3106,-3.2469,-3.1799,-3.1184,-2.964,-2.9028,-2.9528,0.0,0.0,0.0,0.0,0.0,-2.4335,-2.3855,-2.3617,0.0,0.0,0.0,-2.3305,-2.3404,-2.345,-2.3396,-2.3188,-2.2721,-2.2076,-2.1525,-2.1257,-2.1311,-2.1943,-2.1765,-2.1221,-2.1302,-2.0172,-1.8596,-1.7205,-1.6451,-1.5804,-1.4458,-1.4489,-1.4734,-1.4208,-1.4088,-1.4088,-1.4088,-1.4088,-1.4088,-1.4088,-1.4088,-1.4166,-1.437,-1.4443,0.0,0.0,0.0,0.0,0.0,0.0,-1.01,0.0,0.0,0.0,0.0,0.0,0.0,0.0,0.0,-0.6823,0.0,0.0,0.0,0.0,0.0,0.0,0.0,0.0,0.0,0.1977,0.2138,0.2825,0.3943,0.4491,0.504,0.5512,0.5512,0.5825,0.63,0.63,0.63,0.63,0.63,0.63,0.63,0.63,0.63,0.63,-3.5906,-3.6136,-3.6294,0.0,-3.3802,0.0,-3.244,-3.0775,-3.0171,-3.2077,-3.2295,-3.2295,-3.2295,-3.2295,-3.2388,-3.2598,-3.2439,-3.2491,-3.2896,-3.2556,-3.2431,-3.2623,-3.1472,-3.0586,-3.0022,-2.85,-2.7898,0.0,0.0,0.0,0.0,0.0,0.0,0.0,0.0,0.0,0.0,0.0,-2.3252,-2.288,-2.3041,-2.296,-2.2721,-2.2721,-2.1987,-2.089,-2.0621,-1.9898,-1.9268,-2.0215,-2.0079,-1.9625,-2.0305,-1.9056,-1.7191,-1.6573,-1.5563,-1.4536,-1.4182,-1.4088,-1.4088,-1.4088,-1.4088,-1.4088,-1.4088,-1.4088,-1.4088,-1.4088,-1.4088,-1.4208,-1.4489,-1.4223,0.0,0.0,0.0,0.0,0.0,0.0,-0.9825,0.0,0.0,0.0,-0.8372,0.0,0.0,0.0,0.0,-0.6697,-0.6074,-0.5092,0.0,0.0,0.0,-0.2002,-0.0668,0.0,0.0608,0.0,0.3512,0.425,0.5115,0.5918,0.63,0.63,0.63,0.63,0.63,0.63,0.63,0.63,0.63,0.63,0.63,0.63,0.63,0.63,0.0,0.0,0.0,0.0,0.0,0.0,-2.9836,-2.9738,-2.9782,-2.9738,-2.9727,-2.9727,-2.9727,-2.9727,-3.0102,-3.1055,-3.0274,-3.0503,-3.2335,-3.0767,-3.0171,-3.1078,-3.0114,-2.9544,-2.9498,-2.7847,-2.7327,0.0,0.0,0.0,0.0,0.0,0.0,0.0,0.0,0.0,0.0,-2.3484,-2.3343,-2.3086,-2.3081,-2.2448,-2.148,-2.148,-2.0711,-1.9542,-1.8411,-1.7963,-1.787,-1.8002,-1.8688,-1.9314,-1.8373,-1.7848,-1.7335,-1.5652,-1.5078,-1.4841,-1.4242,-1.4088,-1.4088,-1.4088,-1.4088,-1.4088,-1.4088,-1.4088,-1.4088,-1.4088,-1.4088,-1.413,-1.413,-1.3245,-1.2814,0.0,0.0,0.0,0.0,0.0,-1.0973,-1.0354,0.0,0.0,-0.83,-0.8251,0.0,0.0,-0.6815,-0.5985,-0.4917,-0.5144,-0.4788,-0.3714,0.0,-0.2193,-0.0446,-0.0131,0.0,0.4822,0.413,0.4697,0.6324,0.6318,0.63,0.63,0.63,0.63,0.63,0.63,0.63,0.63,0.63,0.63,0.63,0.63,0.63,0.63,0.0,0.0,0.0,0.0,0.0,0.0,0.0,-2.8093,-2.7273,-2.7183,-2.8495,-2.9407,-2.9407,-2.9407,-2.9577,-2.9975,-2.9611,-2.9724,-3.0559,-2.9873,-2.9588,-2.9986,-2.8929,-2.8319,-2.8319,-2.6393,-2.5883,0.0,0.0,0.0,0.0,0.0,0.0,0.0,0.0,-2.294,-2.2164,-2.2164,-2.212,-2.1943,-2.1221,-2.1078,-2.1203,-2.0486,-1.9488,-1.8365,-1.787,-1.7225,-1.6574,-1.6574,-1.6889,-1.735,-1.7591,-1.7178,-1.6397,-1.5475,-1.5149,-1.4914,-1.4462,-1.4222,-1.4088,-1.4088,-1.4088,-1.4088,-1.4088,-1.4088,-1.4088,-1.4088,-1.4088,-1.4088,-1.4088,-1.3118,-1.2472,0.0,0.0,0.0,0.0,0.0,0.0,-0.9137,0.0,-0.7586,-0.6776,-0.6722,0.0,0.0,0.0,-0.6012,-0.5466,-0.474,0.0,-0.2955,0.0,-0.0788,0.1961,0.201,0.3412,0.6187,0.5826,0.5987,0.6603,0.6497,0.6381,0.63,0.63,0.63,0.63,0.63,0.63,0.63,0.63,0.63,0.63,0.63,0.63,0.63,-2.9829,0.0,-3.0297,0.0,-2.8546,-2.757,-2.8219,-2.6822,-2.583,-2.6094,-2.7425,-2.8308,-2.8308,-2.8308,-2.8456,-2.8737,-2.8477,-2.8567,-2.9179,-2.8647,-2.8456,-2.8737,-2.7652,0.0,-2.703,-2.5451,-2.4947,-2.5618,-2.4581,0.0,0.0,0.0,0.0,0.0,-2.3188,-2.2448,-2.1293,-2.1293,-2.1114,-2.0711,-1.9852,-1.9807,-2.0169,-1.9314,-1.8226,-1.7131,-1.7131,-1.6574,-1.5784,-1.5784,-1.5784,-1.5967,-1.685,-1.6527,-1.5772,-1.5484,-1.519,-1.4941,-1.4603,-1.4309,-1.4088,-1.4088,-1.4088,-1.4088,-1.4088,-1.4088,-1.4088,-1.4088,-1.4088,-1.4088,-1.4088,-1.2857,-1.1914,-1.2325,0.0,0.0,0.0,-0.9855,0.0,-0.8496,-0.7819,-0.6943,-0.5794,-0.5689,0.0,0.0,0.0,0.0,0.0,0.0,0.0,0.0,0.0,0.0,0.0,0.3015,0.4338,0.6947,0.6906,0.6829,0.6763,0.661,0.6525,0.6429,0.6429,0.6429,0.6429,0.6429,0.6429,0.6429,0.6429,0.6429,0.6429,0.6429,0.6429,0.6429,-2.7882,-2.7657,-2.7241,-2.5995,-2.5752,-2.6074,-2.707,-2.6339,-2.6074,-2.706,-2.6319,-2.5732,-2.5732,-2.5732,-2.6133,-2.7129,-2.6309,-2.6575,-2.8574,-2.6832,-2.6201,0.0,0.0,-2.5732,-2.5732,-2.5293,-2.4853,-2.4414,0.0,0.0,-2.3135,0.0,-2.3101,-2.3091,-2.3091,-2.2448,-2.1293,-2.1293,-2.0612,-1.9542,-1.9497,-1.8772,-1.7731,-1.7738,-1.6943,-1.5825,-1.5825,-1.5825,-1.5784,-1.5784,-1.5784,-1.5784,-1.5825,-1.5825,-1.5772,-1.5484,-1.519,-1.4941,-1.4603,-1.4309,-1.4088,-1.4088,-1.4088,-1.4088,-1.4088,-1.4088,-1.4088,-1.4088,-1.4088,-1.4088,-1.4088,-1.2169,-1.0999,-1.2114,0.0,0.0,0.0,0.0,0.0,-0.9001,-0.8888,-0.8021,-0.5927,-0.5924,0.0,0.0,0.0,0.0,0.0,0.0,0.0,-0.2437,-0.2823,0.0,0.1781,0.2093,0.3836,0.7092,0.6953,0.6883,0.6876,0.6766,0.6698,0.6695,0.6695,0.6695,0.6695,0.6695,0.6695,0.6695,0.6695,0.6695,0.6695,0.6695,0.6695,0.6695,-2.8773,-2.752,-2.6442,-2.6937,-2.626,-2.583,-2.6153,-2.5918,-2.583,-2.6153,-2.5918,-2.5693,-2.5693,-2.5693,-2.584,0.0,-2.6646,-2.6735,0.0,-2.6368,-2.6112,-2.5342,-2.5382,-2.544,-2.544,-2.5006,-2.4669,-2.4534,0.0,0.0,0.0,-2.3091,-2.3091,-2.3047,-2.2262,-2.1212,-2.0034,-1.9177,-1.8634,-1.8187,-1.735,-1.7257,-1.7598,-1.6763,-1.6157,-1.5784,-1.5784,-1.5784,-1.5784,-1.5784,-1.5784,-1.5784,-1.5784,-1.5784,-1.5764,-1.5718,-1.5484,-1.5197,-1.4903,-1.4609,-1.4335,-1.4135,-1.4088,-1.4088,-1.4088,-1.4088,-1.4088,-1.4088,-1.4088,-1.3864,-1.3027,-1.1643,-1.0748,-1.1159,-0.923,0.0,0.0,0.0,-0.8153,-0.7704,-0.8015,-0.7177,-0.4503,-0.5145,0.0,0.0,0.0,0.0,0.0,0.0,0.0,0.0,-0.0087,0.0,0.4237,0.4146,0.5106,0.7095,0.7051,0.6977,0.6883,0.6836,0.68,0.6702,0.6702,0.6702,0.6702,0.6702,0.6702,0.6702,0.6702,0.6702,0.6702,0.6702,0.6702,0.6702,-2.794,-2.6771,-2.5966,-2.6761,-2.625,-2.584,-2.6231,-2.5928,-2.584,-2.6231,-2.5928,-2.5693,-2.5693,-2.5693,0.0,-2.5693,-2.6271,-2.6182,-2.5165,-2.5612,-2.5454,-2.4453,-2.4753,-2.4948,-2.4948,0.0,0.0,-2.4542,-2.3722,-2.3379,-2.3335,-2.271,-2.2403,-2.235,-2.1168,-1.9943,-1.8772,-1.8002,-1.7412,-1.6897,-1.6109,-1.6292,-1.6897,-1.6109,-1.5784,-1.5784,-1.5784,-1.5784,-1.5784,-1.5784,-1.5784,-1.5784,-1.5784,-1.5784,-1.5784,-1.5784,-1.5625,-1.5357,-1.5223,-1.483,-1.4476,-1.4295,-1.4168,-1.4088,-1.4088,-1.4088,-1.4088,-1.4088,-1.373,-1.3203,-1.2456,-1.1042,-0.9965,-1.0009,-0.8388,-0.7347,-0.8109,0.0,-0.7522,0.0,0.0,0.0,0.0,-0.4424,-0.4132,0.0,0.0,0.0,0.0,0.0,0.0,-0.0088,0.0703,0.0,0.4461,0.471,0.5591,0.7095,0.7095,0.7051,0.6964,0.6964,0.6913,0.6865,0.6865,0.6865,0.6865,0.6865,0.6865,0.6865,0.6865,0.6865,0.6865,0.6865,0.6865,0.6865,-2.5966,-2.582,0.0,0.0,-2.5752,0.0,-2.6921,-2.6319,-2.6016,-2.698,-2.6261,-2.5693,-2.5693,-2.5693,-2.5674,-2.5645,0.0,0.0,0.0,-2.4648,-2.4424,-2.4326,-2.4339,-2.4368,-2.4368,-2.3988,-2.3968,-2.4227,-2.3748,-2.3554,-2.35,-2.1905,-2.1159,-2.1114,-1.9898,-1.8772,-1.7684,-1.7598,-1.6897,-1.5784,-1.5784,-1.5784,-1.5784,-1.5784,-1.5784,-1.5784,-1.5784,-1.5784,-1.5784,-1.5784,-1.5784,-1.5784,-1.5784,-1.5784,-1.5784,-1.5784,-1.5638,-1.5424,-1.5404,-1.4997,-1.4569,-1.4529,-1.4302,-1.4088,-1.4088,-1.4039,-1.3997,-1.3997,-1.3027,-1.2151,-1.2072,-1.0308,-0.889,-0.8803,-0.7852,-0.7112,-0.7156,0.0,0.0,0.0,0.0,0.0,0.0,-0.3812,-0.3166,0.0,0.0,0.0,0.0,0.0,-0.2083,-0.1001,0.0088,0.1427,0.3164,0.4235,0.5573,0.7095,0.7095,0.7095,0.7095,0.7095,0.7095,0.7095,0.7095,0.7095,0.7095,0.7095,0.7095,0.7095,0.7095,0.7095,0.7095,0.7095,0.7095,0.7095,0.0,0.0,-2.6035,-2.6988,-2.6338,-2.5771,-2.6016,-2.5849,-2.5771,-2.6016,-2.5849,-2.5693,-2.5693,-2.5693,-2.5596,-2.5254,-2.5927,-2.5738,-2.4225,-2.4805,-2.4713,-2.3442,-2.3854,-2.4073,-2.4073,-2.4023,-2.3472,-2.2447,-2.1342,-2.0818,-2.0818,-2.0212,-1.9943,-1.9852,-1.868,-1.7963,-1.7645,-1.6669,-1.6062,-1.5784,-1.5784,-1.5784,-1.5784,-1.5784,-1.5784,-1.5784,-1.5784,-1.5784,-1.5784,-1.5784,-1.5784,-1.5784,-1.5784,-1.5784,-1.5784,-1.5784,-1.5785,-1.5678,-1.5458,-1.5297,-1.5084,-1.4636,-1.4302,-1.4088,-1.4088,-1.3379,-1.2723,-1.2723,-1.1815,-1.074,-0.9879,-0.9279,-0.8584,-0.7665,-0.7417,-0.7406,-0.7583,-0.7763,0.0,0.0,-0.6997,-0.5733,-0.3978,-0.2904,-0.1974,0.0,0.0,0.0,0.0,-0.1289,-0.0175,0.2347,0.2714,0.3877,0.6062,0.6378,0.6691,0.7095,0.7095,0.7095,0.7095,0.7095,0.7095,0.7095,0.7095,0.7095,0.7095,0.7095,0.7095,0.7095,0.7095,0.7095,0.7095,0.7095,0.7095,0.7095,-2.7641,-2.6633,-2.5898,-2.6613,-2.6172,-2.5693,-2.5693,-2.5693,-2.5693,-2.5693,-2.5693,-2.5693,-2.5693,-2.5693,-2.5257,-2.4211,-2.5102,-2.5179,-2.3857,-2.4179,-2.4012,-2.313,-2.2903,-2.2767,-2.2767,-2.2208,-2.1628,-2.1029,-2.0305,-1.9978,-1.997,-1.9116,-1.868,-1.8634,-1.7404,-1.681,-1.6803,-1.6109,-1.5784,-1.5784,-1.5784,-1.5784,-1.5784,-1.5784,-1.5784,-1.5784,-1.5784,-1.5784,-1.5784,-1.5784,-1.5784,-1.5784,-1.5784,-1.5784,-1.5784,-1.5784,-1.5784,-1.5792,-1.5638,-1.5498,-1.5284,-1.4836,-1.4054,-1.3447,-1.3484,-1.29,-1.2151,-1.1638,-1.0611,-0.965,-0.9084,-0.8573,-0.8027,-0.743,-0.7513,-0.7706,-0.7887,-0.807,0.0,-0.7171,-0.6451,-0.5217,-0.309,-0.2235,-0.1476,-0.0667,0.0,0.0,-0.0609,-0.0728,0.0313,0.268,0.3303,0.4461,0.6293,0.6827,0.7095,0.7095,0.7095,0.7095,0.7095,0.7095,0.7095,0.7095,0.7095,0.7095,0.7095,0.7095,0.7095,0.7095,0.7095,0.7095,0.7095,0.7095,0.7445,0.7929,-2.5693,-2.5693,-2.5693,-2.5693,-2.5693,-2.5635,-2.543,-2.5382,-2.5333,-2.5118,-2.5118,-2.5118,-2.5118,-2.5118,-2.444,-2.2832,-2.34,-2.3658,-2.3248,-2.2783,-2.2545,-2.2545,-2.1569,-2.1025,-2.1025,-1.9911,-1.945,-1.979,-1.9602,-1.9508,-1.95,-1.8061,-1.7412,-1.7365,-1.6292,-1.5784,-1.5784,-1.5784,-1.5784,-1.5784,-1.5784,-1.5784,-1.5784,-1.5784,-1.5784,-1.5784,-1.5784,-1.5784,-1.5784,-1.5784,-1.5784,-1.5784,-1.5784,-1.5683,-1.5486,-1.5486,-1.5391,-1.5248,-1.5439,-1.5183,-1.4765,-1.4527,-1.3434,-1.2376,-1.2503,-1.2161,-1.1576,-1.0619,-0.9495,-0.8755,-0.8857,-0.8079,-0.7494,-0.767,-0.7897,-0.8052,-0.8146,0.0,-0.7697,-0.6233,-0.5772,-0.4576,-0.2066,-0.1632,-0.1105,-0.0096,-0.0384,-0.0431,0.0,-0.0188,0.046,0.2034,0.3092,0.4283,0.5625,0.6605,0.7095,0.7095,0.7095,0.7095,0.7095,0.7095,0.7095,0.7095,0.7095,0.7095,0.7095,0.7095,0.7095,0.7095,0.7095,0.7095,0.7139,0.7316,0.8017,0.8934,-2.5693,-2.5693,-2.5693,-2.5693,-2.5693,-2.5323,-2.4196,-2.3998,-2.3583,-2.2458,-2.2307,-2.2307,-2.2307,-2.2307,-2.2054,-2.1386,-2.1261,-2.0984,-2.0517,-2.0246,-2.0042,-2.0042,-1.9906,-1.9761,-1.9761,-1.8824,-1.8348,-1.8401,-1.7409,-1.6884,-1.6884,-1.6341,-1.6109,-1.6109,-1.5872,-1.5784,-1.5784,-1.5784,-1.5784,-1.5784,-1.5784,-1.5784,-1.5784,-1.5784,-1.5784,-1.5784,-1.5784,-1.5784,-1.5784,-1.5784,-1.5784,-1.5784,-1.5784,-1.5045,-1.4166,-1.4166,-1.3397,-1.277,-1.3878,-1.3157,-1.2109,-1.2072,-1.1703,-1.1354,-1.1354,-1.0553,-0.9714,-0.953,-0.8579,-0.7812,-0.7837,-0.77,-0.771,-0.82,-0.8226,-0.8316,-0.8793,0.0,-0.6638,-0.6369,-0.4141,-0.245,-0.1996,-0.095,-0.02,0.0,-0.0049,-0.0098,0.0,0.1006,0.2175,0.3435,0.3547,0.4639,0.6827,0.7007,0.7095,0.7095,0.7095,0.7095,0.7095,0.7095,0.7095,0.7095,0.7095,0.7095,0.7095,0.7095,0.7095,0.7095,0.7095,0.7095,0.7228,0.8237,0.8759,0.9021,-2.5693,-2.5693,-2.5479,-2.4766,-2.4609,-2.4146,-2.2818,-2.2617,-2.2408,-2.1803,-2.1702,-2.1702,-2.1702,-2.1702,-2.1332,-2.0311,-1.999,-1.9352,-1.8245,-1.9011,-1.9497,-1.9497,-1.8864,-1.8226,-1.7529,-1.7079,-1.6873,-1.6873,-1.6477,-1.6321,-1.6321,-1.6132,-1.6072,-1.6059,-1.5899,-1.5784,-1.5784,-1.5784,-1.5784,-1.5784,-1.5784,-1.5784,-1.5784,-1.5784,-1.5784,-1.5784,-1.5784,-1.5784,-1.5683,-1.4997,-1.48,-1.4657,-1.3932,-1.3301,-1.2813,-1.2813,-1.2377,-1.2042,-1.2668,-1.1768,-1.0874,-1.1543,-1.0953,-1.0289,-1.0379,-0.983,-0.9114,-0.852,-0.7969,-0.7624,-0.7699,-0.7712,-0.7835,-0.8111,-0.8234,0.0,0.0,-0.6886,-0.5869,-0.4414,-0.2914,-0.1711,-0.1008,-0.0353,0.0,0.0,0.0,0.0299,0.1045,0.166,0.2895,0.4818,0.5435,0.6276,0.7341,0.7305,0.7265,0.7261,0.7136,0.7095,0.7095,0.7095,0.7095,0.7095,0.7095,0.7095,0.7095,0.7095,0.7095,0.7095,0.7095,0.7095,0.7183,0.7709,0.8711,0.9879,-2.4766,-2.4766,-2.4452,-2.3434,-2.3226,-2.2776,-2.1397,-2.1194,-2.1092,-2.0786,-2.0735,-2.0735,-2.0735,-2.0735,-2.0333,-1.922,-1.8877,-1.8196,-1.6921,-1.8044,-1.8713,-1.8626,-1.777,-1.6803,-1.5825,-1.5784,-1.5784,-1.5784,-1.6126,-1.6321,-1.6321,-1.6339,-1.6339,-1.6308,-1.6032,-1.5844,-1.5784,-1.5784,-1.5784,-1.5784,-1.5784,-1.5635,-1.5343,-1.5343,-1.5146,-1.4908,-1.4908,-1.4908,-1.4758,-1.3782,-1.344,-1.3247,-1.2237,-1.1702,-1.1463,-1.1463,-1.1214,-1.1072,-1.1365,-1.0534,-0.9752,-1.073,-1.0082,-0.9208,-0.9352,-0.9196,-0.8772,-0.7889,-0.7702,-0.7736,-0.7845,-0.7865,-0.7902,-0.8166,0.0,0.0,0.0,-0.5919,-0.4666,-0.2562,-0.1861,-0.1109,-0.0101,0.0,0.0,0.0,0.0,0.0605,0.1913,0.2282,0.3638,0.6241,0.7162,0.76,0.76,0.7485,0.7424,0.7421,0.7302,0.7203,0.7203,0.7203,0.7203,0.7203,0.7203,0.7203,0.7203,0.7203,0.7203,0.7203,0.7203,0.7179,0.7193,0.7453,0.8696,1.0265,-2.2005,-2.2005,-2.1954,-2.1853,-2.1853,-2.1347,-1.9981,-1.9731,-1.9324,-1.8042,-1.7891,-1.7891,-1.7891,-1.7891,-1.7838,-1.7733,-1.7522,-1.7295,-1.7166,-1.6758,-1.6395,-1.6069,-1.5967,-1.592,-1.5784,-1.5784,-1.5784,-1.5784,-1.6126,-1.6321,-1.6328,-1.6547,-1.6526,-1.6321,-1.6253,-1.6086,-1.5784,-1.5784,-1.5784,-1.5784,-1.5784,-1.5099,-1.4022,-1.4022,-1.3247,-1.2188,-1.2188,-1.2188,-1.2188,-1.2091,-1.2042,-1.2042,-1.1945,-1.1068,-1.0145,-1.0145,-0.9262,-0.8577,-0.9805,-0.9167,-0.8187,-0.8283,-0.8177,-0.812,-0.812,-0.811,-0.8054,-0.8007,-0.7958,-0.7961,-0.7971,-0.7971,-0.8173,-0.8673,0.0,0.0,-0.6766,-0.4412,-0.2512,-0.2063,-0.0907,-0.0101,0.0,0.0,0.0,0.0,0.0,0.0605,0.1913,0.3161,0.5059,0.7773,0.7698,0.76,0.76,0.759,0.7584,0.7584,0.757,0.7567,0.7567,0.7567,0.7567,0.7567,0.7567,0.7567,0.7567,0.7567,0.7567,0.7567,0.7567,0.7478,0.7489,0.8558,0.8985,0.9318,-2.1702,-2.1702,-2.1448,-2.0538,-2.0385,-1.993,-1.8551,-1.8349,-1.8199,-1.7687,-1.7582,-1.7582,-1.7582,-1.7582,-1.7582,-1.7582,-1.7534,-1.7393,-1.7213,-1.6767,-1.6326,-1.5804,-1.5784,-1.5784,-1.5784,-1.5784,-1.5784,-1.5784,-1.6306,-1.654,-1.6547,-1.6898,-1.6971,-1.6851,-1.6489,-1.5755,-1.4844,-1.4677,-1.4124,-1.3397,-1.3397,-1.3108,-1.2668,-1.2668,-1.2334,-1.1896,-1.1896,-1.1896,-1.1799,-1.0974,-1.073,-1.0583,-0.9752,-0.9167,-0.8775,-0.8775,-0.8382,-0.8088,-0.8627,-0.8382,-0.7988,-0.7988,-0.7988,-0.7988,-0.7988,-0.7988,-0.7988,-0.7988,-0.7988,-0.7988,-0.7988,-0.7988,-0.7786,-0.7176,0.0,-0.5622,-0.4066,-0.2864,-0.1811,-0.0857,-0.0303,0.0,0.0,0.0,0.0,0.0,0.0,0.0605,0.1913,0.4069,0.6077,0.7939,0.788,0.7872,0.7872,0.7777,0.7729,0.7729,0.7641,0.76,0.76,0.76,0.76,0.76,0.76,0.76,0.76,0.76,0.76,0.7691,0.8469,0.8749,0.887,1.0099,1.1005,1.1702,-2.0436,-2.0436,-2.0128,-1.9117,-1.8961,-1.8655,-1.774,-1.7582,-1.7582,-1.7582,-1.7582,-1.7582,-1.7582,-1.7582,-1.7582,-1.7582,-1.7582,-1.7502,-1.7347,-1.6921,-1.644,-1.5804,-1.5784,-1.5784,-1.5784,-1.5784,-1.5784,-1.5784,-1.642,-1.6707,-1.6714,-1.7152,-1.7021,-1.6491,-1.6014,-1.4992,-1.3644,-1.3402,-1.2721,-1.1896,-1.1896,-1.1653,-1.1317,-1.1317,-1.1019,-1.0681,-1.0681,-1.0681,-1.0534,-0.9657,-0.9361,-0.9217,-0.8283,-0.7988,-0.7988,-0.7988,-0.7988,-0.7988,-0.7988,-0.7988,-0.7988,-0.7988,-0.7988,-0.7988,-0.7988,-0.7988,-0.7988,-0.7988,-0.7988,-0.7988,-0.7988,-0.7637,-0.7083,-0.6129,-0.5275,-0.4119,-0.2264,-0.1662,-0.1008,-0.0101,0.0,0.0,0.0,0.0,0.0,0.0,0.0,0.0756,0.2514,0.5172,0.7036,0.7988,0.7988,0.7988,0.7988,0.7887,0.7882,0.7882,0.7784,0.774,0.774,0.774,0.774,0.774,0.774,0.7975,0.835,0.835,0.8589,0.9056,0.9892,1.0224,1.0305,1.1235,1.2029,1.2706,-1.7582,-1.7582,-1.7582,-1.7582,-1.7582,-1.7582,-1.7582,-1.7582,-1.7582,-1.7582,-1.7582,-1.7582,-1.7582,-1.7582,-1.7582,-1.7582,-1.7582,-1.7582,-1.7582,-1.7034,-1.6446,-1.5811,-1.5784,-1.5784,-1.5784,-1.5784,-1.5784,-1.5784,-1.642,-1.6707,-1.672,-1.7308,-1.6676,-1.4977,-1.4867,-1.3847,-1.2159,-1.1992,-1.1858,-1.1853,-1.1853,-1.1121,-1.0002,-1.0002,-0.9167,-0.7988,-0.7988,-0.7988,-0.7988,-0.7988,-0.7988,-0.7988,-0.7988,-0.7988,-0.7988,-0.7988,-0.7988,-0.7988,-0.7988,-0.7988,-0.7988,-0.7988,-0.7988,-0.7988,-0.7988,-0.7988,-0.7988,-0.7988,-0.7988,-0.7988,-0.7988,-0.6883,-0.5979,-0.5979,-0.3718,-0.2013,-0.1963,-0.0857,0.0,0.0,0.0,0.0,0.0,0.0,0.0,0.0,0.0,0.1159,0.3865,0.6526,0.7988,0.7988,0.7988,0.7988,0.7988,0.7988,0.7988,0.7988,0.7988,0.7988,0.7988,0.7988,0.7988,0.7988,0.7988,0.8775,0.9998,0.9998,1.0779,1.1896,1.1901,1.1809,1.1706,1.1753,1.1657,1.169,-1.7582,-1.7582,-1.7582,-1.7582,-1.7582,-1.7582,-1.7582,-1.7582,-1.7582,-1.7582,-1.7582,-1.7582,-1.7582,-1.7582,-1.7582,-1.7582,-1.7582,-1.7495,-1.734,-1.7166,-1.6804,-1.6166,-1.5939,-1.5784,-1.5784,-1.5784,-1.5784,-1.5784,-1.642,-1.6707,-1.667,-1.6241,-1.5754,-1.5241,-1.398,-1.2586,-1.1268,-1.0972,-1.0331,-0.9512,-0.9396,-0.9152,-0.8791,-0.867,-0.8333,-0.7988,-0.7988,-0.7988,-0.7988,-0.7988,-0.7988,-0.7988,-0.7988,-0.7988,-0.7988,-0.7988,-0.7988,-0.7988,-0.7988,-0.7988,-0.7988,-0.7988,-0.7988,-0.7988,-0.7988,-0.7988,-0.7988,-0.7988,-0.7235,-0.6581,-0.6581,-0.5522,-0.4268,-0.3367,-0.2515,-0.1661,-0.0706,-0.0252,0.0,0.0,0.0,0.0,0.0,0.0,0.0,0.0,0.0857,0.2163,0.3915,0.5675,0.7033,0.7988,0.7988,0.7988,0.7988,0.7988,0.7988,0.7988,0.7988,0.7988,0.7988,0.7988,0.7988,0.8038,0.9019,0.9608,1.0047,1.0974,1.1556,1.1994,1.2958,1.3298,1.3326,1.4248,1.4537,1.4556,-1.7582,-1.7582,-1.7582,-1.7582,-1.7582,-1.7582,-1.7582,-1.7582,-1.7582,-1.7582,-1.7582,-1.7582,-1.7582,-1.7582,-1.7582,-1.7582,-1.7582,-1.7508,-1.7387,-1.7266,-1.7045,-1.6683,-1.6333,-1.6017,-1.5832,-1.5945,-1.5711,-1.5114,-1.572,-1.5738,-1.517,-1.4748,-1.4288,-1.3632,-1.2554,-1.1301,-1.0022,-0.9741,-0.9205,-0.8476,-0.8387,-0.8353,-0.8343,-0.8252,-0.818,-0.813,-0.813,-0.8092,-0.7988,-0.7988,-0.7988,-0.7988,-0.7988,-0.7988,-0.7988,-0.7988,-0.7988,-0.7988,-0.7988,-0.7988,-0.7988,-0.7988,-0.7988,-0.7988,-0.7988,-0.7587,-0.7185,-0.7185,-0.6126,-0.5222,-0.5222,-0.4119,-0.2966,-0.2113,-0.1561,-0.0907,-0.0101,0.0,0.0,0.0,0.0,0.0,0.0,0.0,0.0202,0.0756,0.2013,0.3366,0.472,0.6077,0.7182,0.7988,0.7988,0.7988,0.7988,0.7988,0.7988,0.7988,0.7988,0.7988,0.7988,0.7988,0.8283,0.8825,0.9657,1.0578,1.1599,1.2377,1.3011,1.3499,1.4316,1.4657,1.4752,1.5534,1.5784,1.5784,-1.7582,-1.7582,-1.7582,-1.7582,-1.7582,-1.7582,-1.7582,-1.7582,-1.7582,-1.7582,-1.7582,-1.7582,-1.7582,-1.7582,-1.7582,-1.7582,-1.7582,-1.7529,-1.7417,-1.7172,-1.702,-1.6993,-1.6577,-1.6127,-1.5673,-1.5978,-1.5509,-1.4153,-1.459,-1.4143,-1.2778,-1.3003,-1.2403,-1.1101,-1.082,-0.995,-0.872,-0.8581,-0.8523,-0.8523,-0.8509,-0.8503,-0.8503,-0.8486,-0.8404,-0.834,-0.8327,-0.818,-0.8008,-0.7995,-0.7988,-0.7988,-0.7988,-0.7988,-0.7988,-0.7988,-0.7988,-0.7988,-0.7988,-0.7889,-0.7839,-0.7839,-0.7736,-0.7686,-0.7789,-0.6781,-0.5827,-0.5827,-0.477,-0.3815,-0.3815,-0.2715,-0.1812,-0.1812,-0.0807,0.0,0.0,0.0,0.0,0.0,0.0,0.0,0.0,0.0101,0.0706,0.1913,0.3366,0.4718,0.5929,0.7285,0.7988,0.7988,0.7988,0.7988,0.7988,0.7988,0.7988,0.7988,0.7988,0.7988,0.7988,0.8137,0.8825,0.9998,1.0243,1.1697,1.3926,1.4022,1.4752,1.5784,1.5784,1.5784,1.5784,1.5784,1.5784,1.5784,-1.7582,-1.7582,-1.7582,-1.7582,-1.7582,-1.7582,-1.7582,-1.7582,-1.7582,-1.7582,-1.7582,-1.7582,-1.7582,-1.7582,-1.7582,-1.7582,-1.7582,-1.7094,-1.5956,-1.5795,-1.5727,-1.5469,-1.4301,-1.3973,-1.4795,-1.49,-1.4829,-1.447,-1.3688,-1.3089,-1.2778,-1.1985,-1.1433,-1.1051,-0.9877,-0.9161,-0.8834,-0.8801,-0.8842,-0.8828,-0.871,-0.8662,-0.8648,-0.8526,-0.8462,-0.8421,-0.8364,-0.8248,-0.8201,-0.8029,-0.7988,-0.7988,-0.7988,-0.7988,-0.7988,-0.7988,-0.7988,-0.7988,-0.7988,-0.7235,-0.6431,-0.6431,-0.5625,-0.512,-0.6179,-0.5372,-0.4418,-0.4418,-0.3366,-0.2414,-0.2414,-0.136,-0.0454,-0.0454,-0.0202,0.0,0.0,0.0,0.0,0.0,0.0,0.0,0.0,0.0958,0.1711,0.1962,0.4219,0.5677,0.5979,0.7285,0.7988,0.7988,0.7988,0.7988,0.7988,0.7988,0.7988,0.7988,0.7988,0.7988,0.8038,0.9069,0.9706,1.0096,1.2183,1.3392,1.3974,1.4997,1.554,1.5784,1.5784,1.5784,1.5784,1.5784,1.5784,1.5784,-1.7582,-1.7582,-1.7582,-1.7582,-1.7582,-1.7582,-1.7582,-1.7582,-1.7582,-1.7582,-1.7582,-1.7582,-1.7582,-1.7582,-1.7582,-1.7582,-1.6988,-1.6227,-1.547,-1.477,-1.434,-1.4214,-1.3465,-1.3302,-1.3917,-1.3289,-1.287,-1.2764,-1.2245,-1.1652,-1.0908,-1.0307,-1.0025,-1.0025,-0.9265,-0.8885,-0.8885,-0.8885,-0.8885,-0.8875,-0.8852,-0.8818,-0.8811,-0.873,-0.8655,-0.8581,-0.8506,-0.8391,-0.8248,-0.8092,-0.7988,-0.7988,-0.7988,-0.7988,-0.7988,-0.7988,-0.7537,-0.7033,-0.7033,-0.6077,-0.5022,-0.5022,-0.4017,-0.3416,-0.472,-0.4017,-0.3065,-0.3065,-0.1962,-0.1058,-0.1058,-0.0454,0.0,0.0,0.0,0.0,0.0,0.0,0.0,0.0,0.0,0.0252,0.0907,0.1611,0.2515,0.3819,0.5225,0.6279,0.6933,0.7637,0.7988,0.7988,0.7988,0.7988,0.7988,0.7988,0.7988,0.7988,0.7988,0.7988,0.8038,0.941,1.0337,1.1023,1.3054,1.4214,1.4854,1.5534,1.5784,1.5784,1.5784,1.5784,1.5784,1.5784,1.5784,1.5784,-1.7582,-1.7582,-1.7582,-1.7582,-1.7582,-1.7582,-1.7582,-1.7582,-1.7582,-1.7582,-1.7582,-1.7582,-1.7582,-1.7364,-1.7199,-1.7199,-1.5902,-1.4931,-1.4663,-1.3588,-1.294,-1.294,-1.2674,-1.2674,-1.294,-1.1487,-1.0762,-1.0774,-1.0762,-1.0076,-0.8885,-0.8885,-0.8885,-0.8885,-0.8885,-0.8885,-0.8885,-0.8885,-0.8885,-0.8885,-0.8885,-0.8885,-0.8885,-0.8885,-0.8804,-0.8747,-0.872,-0.8537,-0.8282,-0.813,-0.8029,-0.8025,-0.7746,-0.7637,-0.7637,-0.7385,-0.6528,-0.5677,-0.5677,-0.467,-0.3665,-0.3665,-0.2665,-0.1963,-0.3065,-0.2464,-0.1661,-0.1661,-0.0756,0.0,0.0,0.0,0.0,0.0,0.0,0.0,0.0,0.0,0.0,0.0,0.0202,0.0756,0.1913,0.2414,0.3618,0.5827,0.6229,0.6833,0.7939,0.7988,0.7988,0.7988,0.7988,0.7988,0.7988,0.7988,0.7988,0.7988,0.7988,0.8137,0.8382,0.9706,1.1023,1.2334,1.3638,1.4806,1.5784,1.5784,1.5784,1.5784,1.5784,1.5784,1.5784,1.5784,1.5784,1.5784,-1.7582,-1.7582,-1.7582,-1.7582,-1.7582,-1.7582,-1.7582,-1.7582,-1.7582,-1.7582,-1.7582,-1.7582,-1.7582,-1.6446,-1.5689,-1.5689,-1.4395,-1.3048,-1.1751,-1.1483,-1.1378,-1.1378,-1.0186,-1.0076,-1.1378,-0.997,-0.9798,-1.1071,-0.9798,-0.9103,-0.8885,-0.8885,-0.8885,-0.8885,-0.8885,-0.8885,-0.8885,-0.8885,-0.8885,-0.8885,-0.8885,-0.8885,-0.8885,-0.8885,-0.8871,-0.8838,-0.8757,-0.8601,-0.8431,-0.8289,-0.8238,-0.8011,-0.6715,-0.6279,-0.6027,-0.4868,-0.4416,-0.4268,-0.4268,-0.3316,-0.2264,-0.2264,-0.126,-0.0303,-0.0504,-0.0404,-0.0252,-0.0252,-0.0101,0.0,0.0,0.0,0.0,0.0,0.0,0.0,0.0,0.0,0.0,0.0,0.1008,0.1812,0.1963,0.4119,0.5627,0.5979,0.7083,0.7789,0.7988,0.7988,0.7988,0.7988,0.7988,0.7988,0.7988,0.7988,0.7988,0.7988,0.7988,0.8627,0.9756,1.1072,1.2377,1.368,1.4997,1.5635,1.5784,1.5784,1.5784,1.5784,1.5784,1.5784,1.5784,1.5784,1.5784,1.5784,-1.7582,-1.7582,-1.7582,-1.7582,-1.7582,-1.7312,-1.6499,-1.6393,-1.6393,-1.6393,-1.6393,-1.6393,-1.6393,-1.5097,-1.4234,-1.4234,-1.2886,-1.181,-1.116,-1.0351,-0.9864,-0.9864,-0.9265,-0.921,-0.986,-0.921,-0.921,-0.9864,-0.921,-0.8885,-0.8885,-0.8885,-0.8885,-0.8885,-0.8885,-0.8885,-0.8885,-0.8885,-0.8885,-0.8885,-0.8885,-0.8885,-0.8885,-0.8885,-0.8885,-0.8865,-0.8764,-0.8122,-0.7348,-0.7223,-0.6611,-0.5772,-0.5112,-0.4861,-0.477,-0.4166,-0.3465,-0.2864,-0.2864,-0.1913,-0.0907,-0.0907,-0.0454,0.0,0.0,0.0,0.0,0.0,0.0,0.0,0.0,0.0,0.0,0.0,0.0,0.0,0.0,0.0,0.0303,0.1008,0.1662,0.2565,0.4069,0.5325,0.6331,0.7083,0.7686,0.7988,0.7988,0.7988,0.7988,0.7988,0.7988,0.7988,0.7988,0.7988,0.7988,0.7988,0.7988,0.8333,0.897,1.0974,1.2237,1.2909,1.4902,1.5784,1.5784,1.5784,1.5784,1.5784,1.5784,1.5784,1.5784,1.5784,1.5784,1.5784]},{"header":{"parameterUnit":"m.s-1","parameterCategory":1,"la1":30.6,"la2":28.766,"lo1":-90.7593,"lo2":-88.6598,"dy":0.0162,"dx":0.0183,"nx":116,"ny":114,"refTime":"2024-04-20T12:00:00:Z","depth":0,"parameterNumber":3,"parameterNumberName":"V-component_of_WINDS"},"data":[0.0,0.0,0.0,0.0,0.0,0.0,0.0,0.0,0.0,0.0,0.0,0.0,0.0,0.0,0.0,0.0,0.0,0.0,0.0,0.0,0.0,0.0,0.0,0.0,0.0,0.0,0.0,0.0,0.0,0.0,0.0,0.0,0.0,0.0,0.0,0.0,0.0,0.0,0.0,0.0,0.0,0.0,0.0,0.0,0.0,0.0,0.0,0.0,0.0,0.0,0.0,0.0,0.0,0.0,0.0,0.0,0.0,0.0,0.0,0.0,0.0,0.0,0.0,0.0,0.0,0.0,0.0,0.0,0.0,0.0,0.0,0.0,0.0,0.0,0.0,0.0,0.0,0.0,0.0,0.0,0.0,0.0,0.0,0.0,0.0,0.0,0.0,0.0,0.0,0.0,0.0,0.0,0.0,0.0,0.0,0.0,0.0,0.0,0.0,0.0,0.0,0.0,0.0,0.0,0.0,0.0,0.0,0.0,0.0,0.0,0.0,0.0,0.0,0.0,0.0,0.0,0.0,0.0,0.0,0.0,0.0,0.0,0.0,0.0,0.0,0.0,0.0,0.0,0.0,0.0,0.0,0.0,0.0,0.0,0.0,0.0,0.0,0.0,0.0,0.0,0.0,0.0,0.0,0.0,0.0,0.0,0.0,0.0,0.0,0.0,0.0,0.0,0.0,0.0,0.0,0.0,0.0,0.0,0.0,0.0,0.0,0.0,0.0,0.0,0.0,0.0,0.0,0.0,0.0,0.0,0.0,0.0,0.0,0.0,0.0,0.0,0.0,0.0,0.0,0.0,0.0,0.0,0.0,0.0,0.0,0.0,0.0,0.0,0.0,0.0,0.0,0.0,0.0,0.0,0.0,0.0,0.0,0.0,0.0,0.0,0.0,0.0,0.0,0.0,0.0,0.0,0.0,0.0,0.0,0.0,0.0,0.0,0.0,0.0,0.0,0.0,0.0,0.0,0.0,0.0,0.0,0.0,0.0,0.0,0.0,0.0,0.0,0.0,0.0,0.0,0.0,0.0,0.0,0.0,0.0,0.0,0.0,0.0,0.0,0.0,0.0,0.0,0.0,0.0,0.0,0.0,0.0,0.0,0.0,0.0,0.0,0.0,0.0,0.0,0.0,0.0,0.0,0.0,0.0,0.0,0.0,0.0,0.0,0.0,0.0,0.0,0.0,0.0,0.0,0.0,0.0,0.0,0.0,0.0,0.0,0.0,0.0,0.0,0.0,0.0,0.0,0.0,0.0,0.0,0.0,0.0,0.0,0.0,0.0,0.0,0.0,0.0,0.0,0.0,0.0,0.0,0.0,0.0,0.0,0.0,0.0,0.0,0.0,0.0,0.0,0.0,0.0,0.0,0.0,0.0,0.0,0.0,0.0,0.0,0.0,0.0,0.0,0.0,0.0,0.0,0.0,0.0,0.0,0.0,0.0,0.0,0.0,0.0,0.0,0.0,0.0,0.0,0.0,0.0,0.0,0.0,0.0,0.0,0.0,0.0,0.0,0.0,0.0,0.0,0.0,0.0,0.0,0.0,0.0,0.0,0.0,0.0,0.0,0.0,0.0,0.0,0.0,0.0,0.0,0.0,0.0,0.0,0.0,0.0,0.0,0.0,0.0,0.0,0.0,0.0,0.0,0.0,0.0,0.0,0.0,0.0,0.0,0.0,0.0,0.0,0.0,0.0,0.0,0.0,0.0,0.0,0.0,0.0,0.0,0.0,0.0,0.0,0.0,0.0,0.0,0.0,0.0,0.0,0.0,0.0,0.0,0.0,0.0,0.0,0.0,0.0,0.0,0.0,0.0,0.0,0.0,0.0,0.0,0.0,0.0,0.0,0.0,0.0,0.0,0.0,0.0,0.0,0.0,0.0,0.0,0.0,0.0,0.0,0.0,0.0,0.0,0.0,0.0,0.0,0.0,0.0,0.0,0.0,0.0,0.0,0.0,0.0,0.0,0.0,0.0,0.0,0.0,0.0,0.0,0.0,0.0,0.0,0.0,0.0,0.0,0.0,0.0,0.0,0.0,0.0,0.0,0.0,0.0,0.0,0.0,0.0,0.0,0.0,0.0,0.0,0.0,0.0,0.0,0.0,0.0,0.0,0.0,0.0,0.0,0.0,0.0,0.0,0.0,0.0,0.0,0.0,0.0,0.0,0.0,0.0,0.0,0.0,0.0,0.0,0.0,0.0,0.0,0.0,0.0,0.0,0.0,0.0,0.0,0.0,0.0,0.0,0.0,0.0,0.0,0.0,0.0,0.0,0.0,0.0,0.0,0.0,0.0,0.0,0.0,0.0,0.0,0.0,0.0,0.0,0.0,0.0,0.0,0.0,0.0,0.0,0.0,0.0,0.0,0.0,0.0,0.0,0.0,0.0,0.0,0.0,0.0,0.0,0.0,0.0,0.0,0.0,0.0,0.0,0.0,0.0,0.0,0.0,0.0,0.0,0.0,0.0,0.0,0.0,0.0,0.0,0.0,0.0,0.0,0.0,0.0,0.0,0.0,0.0,0.0,0.0,0.0,0.0,0.0,0.0,0.0,0.0,0.0,0.0,0.0,0.0,0.0,0.0,0.0,0.0,0.0,0.0,0.0,0.0,0.0,0.0,0.0,0.0,0.0,0.0,0.0,0.0,0.0,0.0,0.0,0.0,0.0,0.0,0.0,0.0,0.0,0.0,0.0,0.0,0.0,0.0,0.0,0.0,0.0,0.0,0.0,0.0,0.0,0.0,0.0,0.0,0.0,0.0,0.0,0.0,0.0,0.0,0.0,0.0,0.0,0.0,0.0,0.0,0.0,0.0,0.0,0.0,0.0,0.0,0.0,0.0,0.0,0.0,0.0,0.0,0.0,0.0,0.0,0.0,0.0,0.0,0.0,0.0,0.0,0.0,0.0,0.0,0.0,0.0,0.0,0.0,0.0,0.0,0.0,0.0,0.0,0.0,0.0,0.0,0.0,0.0,0.0,0.0,0.0,0.0,0.0,0.0,0.0,0.0,0.0,0.0,0.0,0.0,0.0,0.0,0.0,0.0,0.0,0.0,0.0,0.0,0.0,0.0,0.0,0.0,0.0,0.0,0.0,0.0,0.0,0.0,0.0,0.0,0.0,0.0,0.0,0.0,0.0,0.0,0.0,0.0,0.0,0.0,0.0,0.0,0.0,0.0,0.0,0.0,0.0,0.0,0.0,0.0,0.0,0.0,0.0,0.0,0.0,0.0,0.0,0.0,0.0,0.0,0.0,0.0,0.0,0.0,0.0,0.0,0.0,0.0,0.0,0.0,0.0,0.0,0.0,0.0,0.0,0.0,0.0,0.0,0.0,0.0,0.0,0.0,0.0,0.0,0.0,0.0,0.0,0.0,0.0,0.0,0.0,0.0,0.0,0.0,0.0,0.0,0.0,0.0,0.0,0.0,0.0,0.0,0.0,0.0,0.0,0.0,0.0,0.0,0.0,0.0,0.0,0.0,0.0,0.0,0.0,0.0,0.0,0.0,0.0,0.0,0.0,0.0,0.0,0.0,0.0,0.0,0.0,0.0,0.0,0.0,0.0,0.0,0.0,0.0,0.0,0.0,0.0,0.0,0.0,0.0,0.0,0.0,0.0,0.0,0.0,0.0,0.0,0.0,0.0,0.0,0.0,0.0,0.0,0.0,0.0,0.0,0.0,0.0,0.0,0.0,0.0,0.0,0.0,0.0,0.0,0.0,0.0,0.0,0.0,0.0,0.0,0.0,0.0,0.0,0.0,0.0,0.0,0.0,0.0,0.0,0.0,0.0,0.0,0.0,0.0,0.0,0.0,0.0,0.0,0.0,0.0,0.0,0.0,0.0,0.0,0.0,0.0,0.0,0.0,0.0,0.0,0.0,0.0,0.0,0.0,0.0,0.0,0.0,0.0,0.0,0.0,0.0,0.0,0.0,0.0,0.0,0.0,0.0,0.0,0.0,0.0,0.0,0.0,0.0,0.0,0.0,0.0,0.0,0.0,0.0,0.0,0.0,0.0,0.0,0.0,0.0,0.0,0.0,0.0,0.0,0.0,0.0,0.0,0.0,0.0,0.0,0.0,0.0,0.0,0.0,0.0,0.0,0.0,0.0,0.0,0.0,0.0,0.0,0.0,0.0,0.0,0.0,0.0,0.0,0.0,0.0,0.0,0.0,0.0,0.0,0.0,0.0,0.0,0.0,0.0,0.0,0.0,0.0,0.0,0.0,0.0,0.0,0.0,0.0,0.0,0.0,0.0,0.0,0.0,0.0,0.0,0.0,0.0,0.0,0.0,0.0,0.0,0.0,0.0,0.0,0.0,0.0,0.0,0.0,0.0,0.0,0.0,0.0,0.0,0.0,0.0,0.0,0.0,0.0,0.0,0.0,0.0,0.0,0.0,0.0,0.0,0.0,0.0,0.0,0.0,0.0,0.0,0.0,0.0,0.0,0.0,0.0,0.0,0.0,0.0,0.0,0.0,0.0,0.0,0.0,0.0,0.0,0.0,0.0,0.0,0.0,0.0,0.0,0.0,0.0,0.0,0.0,0.0,0.0,0.0,0.0,0.0,0.0,0.0,0.0,0.0,0.0,0.0,0.0,0.0,0.0,0.0,0.0,0.0,0.0,0.0,0.0,0.0,0.0,0.0,0.0,0.0,0.0,0.0,0.0,0.0,0.0,0.0,0.0,0.0,0.0,0.0,0.0,0.0,0.0,0.0,0.0,0.0,0.0,0.0,0.0,0.0,0.0,0.0,0.0,0.0,0.0,0.0,0.0,0.0,0.0,0.0,0.0,0.0,0.0,0.0,0.0,0.0,0.0,0.0,0.0,0.0,0.0,0.0,0.0,0.0,0.0,0.0,0.0,0.0,0.0,0.0,0.0,0.0,0.0,0.0,0.0,0.0,0.0,0.0,0.0,0.0,0.0,0.0,0.0,0.0,0.0,0.0,0.0,0.0,0.0,0.0,0.0,0.0,0.0,0.0,0.0,0.0,0.0,0.0,0.0,0.0,0.0,0.0,0.0,0.0,0.0,0.0,0.0,0.0,0.0,0.0,0.0,0.0,0.0,0.0,0.0,0.0,0.0,0.0,0.0,0.0,0.0,0.0,0.0,0.0,0.0,0.0,0.0,0.0,0.0,0.0,0.0,0.0,0.0,0.0,0.0,0.0,0.0,0.0,0.0,0.0,0.0,0.0,0.0,0.0,0.0,0.0,0.0,0.0,0.0,0.0,0.0,0.0,0.0,0.0,0.0,0.0,0.0,0.0,0.0,0.0,0.0,0.0,0.0,0.0,0.0,0.0,0.0,0.0,0.0,0.0,0.0,0.0,0.0,0.0,0.0,0.0,0.0,0.0,0.0,0.0,0.0,0.0,0.0,0.0,0.0,0.0,0.0,0.0,0.0,0.0,0.0,0.0,0.0,0.0,0.0,0.0,0.0,0.0,0.0,0.0,0.0,0.0,0.0,0.0,0.0,0.0,0.0,0.0,0.0,0.0,0.0,0.0,0.0,0.0,0.0,0.0,0.0,0.0,0.0,0.0,0.0,0.0,0.0,0.0,0.0,0.0,0.0,0.0,0.0,0.0,0.0,0.0,0.0,0.0,0.0,0.0,0.0,0.0,0.0,0.0,0.0,0.0,0.0,0.0,0.0,0.0,0.0,0.0,0.0,0.0,0.0,0.0,0.0,0.0,0.0,0.0,0.0,0.0,0.0,0.0,0.0,0.0,0.0,0.0,0.0,0.0,0.0,0.0,0.0,0.0,0.0,0.0,0.0,0.0,0.0,0.0,0.0,0.0,0.0,0.0,0.0,0.0,0.0,0.0,0.0,0.0,0.0,0.0,0.0,0.0,0.0,0.0,0.0,0.0,0.0,0.0,0.0,0.0,0.0,0.0,0.0,0.0,0.0,0.0,0.0,0.0,0.0,0.0,0.0,0.0,0.0,0.0,0.0,0.0,0.0,0.0,0.0,0.0,0.0,0.0,0.0,0.0,0.0,0.0,0.0,0.0,0.0,0.0,0.0,0.0,0.0,0.0,0.0,0.0,0.0,0.0,0.0,0.0,0.0,0.0,0.0,0.0,0.0,0.0,0.0,0.0,0.0,0.0,0.0,0.0,0.0,0.9257,0.0,0.0,0.0,0.0,0.0,0.0,0.0,0.0,0.0,0.0,0.0,0.0,0.0,0.0,0.0,0.0,0.0,0.0,0.0,0.0,0.0,0.0,0.0,0.0,2.4509,2.4742,2.4734,2.4293,2.3489,2.2317,0.0,0.0,0.0,0.0,0.0,1.77,1.6998,1.6324,1.5705,1.6417,1.6984,1.7412,1.7655,1.6578,1.4388,0.0,0.0,0.0,0.0,0.0,0.0,0.0,0.0,0.0,0.0,0.0,0.0,0.0,0.0,0.0,0.0,0.0,0.0,0.0,0.0,0.0,0.0,0.0,0.0,0.0,0.0,0.0,0.0,0.0,0.0,0.0,0.0,0.0,0.0,0.0,0.0,0.0,0.0,0.0,0.0,0.0,0.0,0.0,0.0,0.0,0.0,0.0,0.0,0.0,0.0,0.0,0.0,0.0,0.0,0.0,0.0,0.0,0.0,0.0,0.0,0.0,0.0,0.0,0.0,0.0,0.0,0.0,0.0,0.0,0.0,0.0,0.8956,0.0,0.0,0.0,0.0,0.0,0.0,0.0,0.0,0.0,0.0,0.0,0.0,0.0,0.0,0.0,0.0,0.0,0.0,0.0,0.0,0.0,2.2459,2.3706,2.4367,2.4622,2.4378,2.4326,2.3636,2.1988,2.1768,2.1274,2.0279,1.9314,1.8631,1.8282,1.7443,1.7144,1.7453,1.8855,2.0176,2.1375,2.105,1.9001,1.5586,1.5363,0.0,0.0,0.0,0.0,0.0,0.0,0.0,0.0,0.0,0.0,0.0,0.0,0.0,0.0,0.0,0.0,0.0,0.0,0.0,0.0,0.0,0.0,0.0,0.0,0.0,0.0,0.0,0.0,0.0,0.0,0.0,0.0,0.0,0.0,0.0,0.0,0.0,0.0,0.0,0.0,0.0,0.0,0.0,0.0,0.0,0.0,0.0,0.0,0.0,0.0,0.0,0.0,0.0,0.0,0.0,0.0,0.0,0.0,0.0,0.0,0.0,0.0,0.0,0.9234,0.9064,0.9055,0.8672,0.8589,0.8732,0.8523,0.8312,0.8236,0.8473,0.0,0.0,0.0,0.0,0.0,0.0,0.0,0.0,0.0,0.0,0.0,0.0,0.0,0.0,0.0,0.0,0.0,0.0,0.0,2.2256,2.4271,2.4848,2.551,2.6489,2.5497,2.4539,2.3883,2.2276,2.1185,2.0744,1.9749,1.8874,1.8132,1.761,1.8101,1.9674,2.1036,2.1709,2.1726,2.1149,2.0719,2.0349,1.922,1.7799,1.6166,0.0,0.0,0.0,0.0,0.0,0.0,0.0,0.0,0.0,0.0,0.0,0.0,0.0,0.0,0.0,0.0,0.0,0.0,0.0,0.0,0.0,0.0,0.0,0.0,0.0,0.0,0.0,0.0,0.0,0.0,0.0,0.0,0.0,0.0,0.0,0.0,0.0,0.0,0.0,0.0,0.0,1.5835,1.511,0.0,0.0,0.0,0.0,0.0,0.0,0.0,0.0,0.0,0.0,0.0,0.0,0.0,1.1769,1.0237,0.9609,0.918,0.9016,0.8416,0.8188,0.8156,0.8086,0.8089,0.811,0.8326,0.0,0.8379,0.8273,0.0,0.0,0.0,0.0,0.0,0.0,0.0,0.0,0.0,0.0,0.0,0.0,0.0,0.0,0.0,0.0,0.0,0.0,0.0,0.0,0.0,2.5341,2.5633,2.6838,2.6536,2.5673,2.4116,2.3161,2.1949,2.0367,1.9473,1.8846,1.845,1.7934,1.9111,2.2017,2.396,2.5304,2.6073,2.5812,2.5334,2.4701,2.4148,2.1834,1.8312,1.7884,0.0,0.0,0.0,0.0,0.0,0.0,0.0,0.0,0.0,0.0,0.0,0.0,0.0,0.0,0.0,0.0,0.0,0.0,0.0,0.0,0.0,0.0,0.0,0.0,0.0,0.0,0.0,0.0,0.0,0.0,0.0,0.0,0.0,0.0,0.0,0.0,0.0,0.0,0.0,1.6688,1.6127,1.5764,1.5772,1.5789,0.0,0.0,0.0,0.0,0.0,0.0,0.0,0.0,0.0,1.3786,1.3234,1.256,1.1757,1.0369,0.9587,0.9494,0.8499,0.7988,0.7988,0.7988,0.7988,0.7988,0.8137,0.8187,0.8173,0.8282,0.8172,0.7977,0.0,0.0,0.0,0.0,0.7307,0.708,0.0,0.0,0.0,0.0,0.0,0.0,0.0,0.0,0.0,0.0,0.0,0.0,2.631,2.5988,2.5996,2.7062,2.7471,2.6644,2.4211,2.3859,2.2586,1.9984,1.9093,1.8691,1.875,1.9446,2.1372,2.4578,2.682,2.8501,2.9629,2.9473,2.888,2.7905,2.7905,2.5199,2.0618,2.0336,1.8395,1.5452,0.0,0.0,0.0,0.0,0.0,0.0,0.0,0.0,0.0,0.0,0.0,0.0,0.0,0.0,0.0,0.0,0.0,0.0,0.0,0.0,0.0,0.0,0.0,0.0,0.0,0.0,0.0,0.0,0.0,0.0,0.0,0.0,0.0,0.0,0.0,0.0,0.0,1.7037,1.6587,1.6461,1.6168,1.598,0.0,0.0,0.0,0.0,0.0,0.0,1.5547,1.5132,1.4766,1.444,1.3684,1.3163,1.2775,1.1268,1.0485,1.0489,0.946,0.9019,0.9019,0.9019,0.9019,0.897,0.8676,0.8531,0.8478,0.8333,0.8118,0.7865,0.7828,0.7607,0.7277,0.7351,0.7127,0.6789,0.0,0.0,0.0,0.0,0.0,0.0,0.0,0.0,0.0,0.0,0.0,2.4431,2.6548,2.6854,2.7152,2.7798,2.822,2.731,2.4636,2.412,2.2674,1.9918,1.8852,1.8511,1.8877,2.2927,2.5836,2.7494,2.9255,3.0185,3.0251,2.9673,2.9361,2.93,2.93,2.7035,2.3163,2.2458,2.0853,1.849,1.5533,0.0,0.0,0.0,0.0,0.0,0.0,0.0,0.0,0.0,0.0,0.0,0.0,0.0,0.0,0.0,0.0,0.0,0.0,0.0,0.0,0.0,0.0,0.0,0.0,0.0,0.0,0.0,0.0,0.0,0.0,0.0,0.0,0.0,0.0,0.0,0.0,0.0,0.0,1.6944,1.6216,0.0,0.0,0.0,0.0,1.633,1.5954,1.5822,1.6163,1.5886,1.521,1.3951,1.3903,1.3236,1.1945,1.1848,1.1804,1.1804,1.175,1.1702,1.1702,1.1702,1.1702,1.1653,1.0435,0.9903,0.9805,0.8531,0.7985,0.7965,0.7868,0.7797,0.7712,0.7344,0.7297,0.7304,0.0,0.0,0.0,0.0,0.0,2.0509,2.1147,2.1497,2.228,2.3934,2.4225,2.4865,2.6443,2.6845,2.7442,2.8517,2.9223,2.9003,2.7624,2.5974,2.4163,2.2144,1.973,1.9184,2.0803,2.5657,2.8285,2.8536,3.0657,3.1571,3.1268,3.1058,3.0599,2.9978,2.9978,2.8981,2.7183,2.6041,2.3907,2.1158,1.994,1.7339,0.0,0.0,0.0,0.0,0.0,0.0,0.0,0.0,0.0,0.0,0.0,0.0,0.0,0.0,0.0,0.0,0.0,0.0,0.0,0.0,0.0,0.0,0.0,0.0,0.0,0.0,0.0,0.0,0.0,0.0,0.0,0.0,0.0,0.0,0.0,0.0,0.0,1.6838,1.6296,0.0,1.6081,1.6028,1.6035,1.6211,1.5937,1.5819,1.5927,1.5832,1.5581,1.514,1.5099,1.4902,1.4418,1.359,1.3199,1.3199,1.2334,1.1896,1.1896,1.1896,1.1896,1.1853,1.1414,1.1219,1.117,1.073,0.9505,0.7985,0.7931,0.7896,0.7804,0.7654,0.7547,0.7595,0.0,0.0,0.0,0.0,0.0,2.0788,2.1398,2.203,2.3048,2.4722,2.5069,2.5677,2.705,2.7484,2.8018,2.8923,2.9743,2.9517,2.7941,2.6589,2.4796,2.2535,2.1011,2.1514,2.4233,2.7883,2.9901,3.0175,3.1751,3.235,3.2039,3.2039,3.1681,3.1038,3.1038,3.0623,2.9854,2.8944,2.6879,2.4067,2.3273,2.0002,1.5555,0.0,0.0,0.0,0.0,0.0,0.0,0.0,0.0,0.0,0.0,0.0,0.0,0.0,0.0,0.0,0.0,0.0,0.0,0.0,0.0,0.0,0.0,0.0,0.0,0.0,0.0,0.0,0.0,0.0,0.0,0.0,0.0,0.0,0.0,1.9294,1.8465,1.7591,1.6996,1.6458,1.6042,1.6003,1.6003,1.6003,1.5859,1.5784,1.5784,1.5784,1.5784,1.5784,1.5784,1.5784,1.5784,1.4949,1.4555,1.4507,1.3638,1.321,1.321,1.321,1.2963,1.2576,1.2576,1.2334,1.1896,1.1896,1.0872,0.9312,0.9312,0.9241,0.9183,0.9183,0.9076,0.9035,0.0,0.0,0.0,0.0,0.0,2.0693,2.1212,2.1998,2.3307,2.5461,2.6027,2.6808,2.8402,2.8851,2.9028,2.9017,2.9744,2.8835,2.5561,2.583,2.4502,2.0949,2.269,2.54,2.8954,2.9678,3.0855,3.2534,3.2534,3.2534,3.2517,3.2517,3.2517,3.2501,3.2501,3.1917,3.0956,3.0956,2.9626,2.7335,2.5213,2.1961,1.8202,0.0,0.0,0.0,0.0,0.0,0.0,0.0,0.0,0.0,0.0,0.0,0.0,0.0,0.0,0.0,0.0,0.0,0.0,0.0,0.0,0.0,0.0,0.0,0.0,0.0,0.0,0.0,0.0,0.0,0.0,0.0,0.0,0.0,2.1382,2.0847,2.0078,1.9227,1.828,1.7225,1.5967,1.5825,1.5784,1.5784,1.5784,1.5784,1.5784,1.5784,1.5784,1.5784,1.5784,1.5784,1.5784,1.5778,1.5784,1.5784,1.5784,1.5784,1.5784,1.5784,1.5146,1.3968,1.3968,1.3204,1.1999,1.1999,1.1999,1.1994,1.1945,1.1896,1.1896,1.1896,1.1847,1.1676,0.0,0.0,0.0,1.9277,2.0348,2.1243,2.1298,2.235,2.3548,2.4635,2.5654,2.6669,2.7686,2.8825,2.9446,2.931,3.003,2.9954,2.8686,2.7023,2.5069,2.2775,2.5495,2.7908,2.9689,3.1712,3.2958,3.3447,3.3447,3.3284,3.3014,3.3014,3.2842,3.2501,3.2501,3.2349,3.2057,3.2057,3.1247,2.9807,2.85,2.5807,2.2492,0.0,0.0,0.0,0.0,0.0,0.0,0.0,0.0,0.0,0.0,0.0,0.0,0.0,0.0,0.0,0.0,0.0,0.0,0.0,0.0,0.0,0.0,0.0,0.0,0.0,0.0,0.0,0.0,0.0,0.0,0.0,2.2593,2.2441,2.1481,2.103,2.0483,1.9501,1.8365,1.7552,1.7225,1.6339,1.5784,1.5784,1.5784,1.5784,1.5784,1.5302,1.5022,1.5022,1.5022,1.5022,1.5022,1.5547,1.5784,1.5784,1.5784,1.5784,1.5784,1.5784,1.5635,1.5289,1.5289,1.5051,1.4711,1.4711,1.4711,1.4519,1.2624,1.1896,1.1896,1.1896,1.2226,1.2499,0.0,0.0,0.0,1.959,2.059,2.1453,2.1683,2.2652,2.3762,2.4837,2.5783,2.68,2.8007,2.9081,2.9652,2.9542,2.9873,2.9689,2.875,2.7194,2.6506,2.6936,2.8762,3.046,3.1937,3.3432,3.4184,3.4184,3.4184,3.4068,3.3823,3.3823,3.3687,3.3414,3.3263,3.312,3.2937,3.2838,3.2313,3.1522,3.0934,2.8292,2.4712,2.4774,2.2769,2.0016,2.0258,2.0149,1.9794,1.9059,0.0,0.0,0.0,0.0,0.0,0.0,0.0,0.0,0.0,0.0,0.0,0.0,0.0,0.0,0.0,0.0,0.0,0.0,0.0,0.0,0.0,0.0,0.0,0.0,2.2808,2.2715,2.2126,2.1967,2.1464,2.0369,1.9625,1.9001,1.8503,1.7311,1.6622,1.6622,1.6109,1.5784,1.5784,1.5404,1.4975,1.4544,1.4927,1.4975,1.4544,1.5404,1.5784,1.5784,1.5784,1.5784,1.5784,1.5784,1.5486,0.0,1.5581,1.5486,1.5045,1.5588,1.5784,0.0,0.0,0.0,0.0,0.0,1.3655,1.3709,0.0,0.0,0.0,2.0065,2.0746,2.1463,2.2321,2.301,2.4058,2.5779,2.6329,2.7224,2.8902,2.9504,2.9773,2.9748,2.9579,2.8847,2.737,2.7097,2.8453,3.1751,3.1874,3.274,3.4665,3.4694,3.4694,3.4694,3.4694,3.4694,3.4694,3.4694,3.4694,3.4684,3.439,3.4055,3.371,3.3459,3.3085,3.2613,3.2613,3.0,2.6114,2.6174,2.4688,2.2589,2.2823,2.2495,2.1999,2.233,0.0,0.0,0.0,0.0,0.0,0.0,0.0,0.0,0.0,0.0,0.0,0.0,0.0,0.0,0.0,0.0,0.0,0.0,0.0,0.0,0.0,0.0,0.0,0.0,2.289,2.2623,2.3191,2.3178,2.2677,2.1614,2.1382,2.089,1.9807,1.8588,1.7917,1.7917,1.6709,1.6015,1.6015,0.0,0.0,0.0,0.0,1.5255,1.4346,1.5302,1.5784,1.5784,1.5784,1.5784,1.5784,1.5784,1.5194,1.4166,1.5289,1.5146,1.4214,1.5337,1.5784,1.5784,1.5784,1.5784,1.5778,1.5635,1.5319,1.4963,0.0,0.0,1.9013,1.9965,2.0678,2.1625,2.3115,2.3922,2.5022,2.6921,2.7516,2.8231,2.9432,2.998,3.0176,2.9962,2.9964,2.9692,2.9049,2.9276,3.0162,3.1825,3.2493,3.3419,3.4665,3.4694,3.4694,3.4694,3.4694,3.4694,3.4694,3.4694,3.4694,3.4694,3.4632,3.4561,3.447,3.4434,3.4012,3.34,3.34,3.2186,3.0362,3.0012,2.9233,2.8337,2.8088,2.7898,2.7582,2.6204,2.5579,2.5267,2.4929,2.3987,0.0,0.0,0.0,0.0,0.0,0.0,0.0,0.0,0.0,0.0,0.0,0.0,0.0,0.0,0.0,0.0,0.0,0.0,0.0,2.6316,2.5162,2.4303,2.4436,2.3671,2.3003,2.2775,2.1889,2.1203,2.098,1.9852,1.9131,1.9131,1.7994,1.7318,1.7318,1.5771,1.4831,1.464,1.4831,1.4831,1.464,1.5404,1.5784,1.5784,0.0,0.0,1.5784,1.5784,1.5683,1.5439,1.5683,1.5683,1.5439,1.5683,1.5784,1.5784,1.5784,1.5784,1.5683,1.4657,1.4602,1.4867,0.0,1.8351,1.9584,2.0954,2.1509,2.2189,2.3505,2.3895,2.4551,2.5963,2.6442,2.7214,2.8731,2.8752,2.9,2.9825,2.9551,2.9728,3.0642,3.0867,3.1809,3.371,3.4184,3.4636,3.5151,3.5151,3.5135,3.5105,3.5105,3.5105,3.5105,3.5105,3.5105,3.5096,3.4963,3.4908,3.4898,3.4773,3.45,3.4144,3.4144,3.365,3.282,3.2021,3.1373,3.0929,3.1126,3.0856,3.0312,2.9793,2.9342,2.8952,2.8692,2.8047,2.7019,0.0,0.0,0.0,0.0,0.0,0.0,0.0,0.0,0.0,0.0,0.0,0.0,0.0,0.0,2.7656,2.7477,0.0,2.6588,2.672,2.5633,2.4787,2.4787,2.4296,2.3757,2.3178,2.2589,2.2217,2.2217,2.1123,2.0395,2.0395,1.9268,1.8319,1.7731,1.6756,1.5669,1.4544,1.4975,1.5022,1.4496,1.535,1.5784,1.5784,1.5784,1.5784,1.5784,1.5784,1.5784,1.5784,1.5784,1.5784,1.5784,1.5784,1.5784,1.5784,1.5784,1.5784,1.573,1.5099,1.4888,1.4912,0.0,0.0,2.0187,2.1804,2.2292,2.2818,2.3887,2.3923,2.4159,2.5084,2.539,2.6133,2.7745,2.7323,2.7629,2.9332,2.913,2.9795,3.1899,3.2195,3.3315,3.5599,3.5707,3.5667,3.5611,3.5631,3.5595,3.5547,3.5547,3.5547,3.5547,3.5547,3.5547,3.554,3.5299,3.5208,3.5173,3.4953,3.4832,3.4793,3.4793,3.4582,3.42,3.3208,3.2514,3.2161,3.2892,3.251,3.1845,3.258,3.2472,3.1967,3.1975,3.1867,3.1089,2.768,2.7727,0.0,0.0,0.0,0.0,0.0,0.0,0.0,0.0,2.845,2.8124,2.8372,2.8662,2.8598,2.7827,2.7199,2.6857,2.7037,2.6151,2.5452,2.5452,2.5241,2.4713,2.3551,2.3212,2.3091,2.3091,2.2217,2.1658,2.1658,2.0531,1.9451,1.8457,1.8187,1.7203,1.5371,1.6089,1.6136,1.5324,1.6129,1.6379,1.615,1.615,1.6062,1.5784,1.5784,1.592,1.6204,1.6426,1.652,1.652,1.652,1.652,1.652,1.652,1.652,1.6466,1.59,1.5418,1.5001,0.0,0.0,0.0,2.1121,2.2074,2.3172,2.4729,2.4987,2.538,2.6447,2.6599,2.6795,2.7242,2.7167,2.7438,2.8294,2.9394,3.0725,3.2415,3.3451,3.4524,3.5658,3.5707,3.57,3.5689,3.5689,3.5686,3.5671,3.5671,3.5671,3.5671,3.5671,3.5671,3.5667,3.5587,3.5544,3.5532,3.5443,3.5281,3.5062,3.5062,3.4879,3.4593,3.4169,3.3611,3.3088,3.3486,3.3281,3.2945,3.3808,3.3751,3.3294,3.3367,3.3364,3.2837,3.0294,2.9959,2.9682,2.623,2.585,2.6687,2.7676,2.8972,3.0015,0.0,3.051,3.0522,2.977,2.9654,2.964,2.9526,2.9447,2.9392,2.942,2.8481,2.7723,2.7723,2.6912,2.5891,2.4755,2.3714,2.3091,2.3091,2.3003,2.2906,2.2906,2.18,2.1025,2.089,1.9898,1.9177,1.894,1.9031,1.9031,1.894,1.9031,1.8542,1.7505,1.7505,1.6897,1.5784,1.5784,1.6433,1.7552,1.8634,1.9085,1.9085,1.9085,1.9085,1.9085,1.9085,1.9085,1.877,1.6352,1.5244,1.4975,0.0,0.0,0.0,2.1115,2.2004,2.3117,2.4383,2.4606,2.497,2.593,2.5568,2.5709,2.6998,2.7435,2.7645,2.7725,2.8918,3.0448,3.2243,3.3118,3.4248,3.5814,3.5875,3.5862,3.5809,3.5829,3.5772,3.5707,3.5707,3.5707,3.5707,3.6216,3.645,3.6489,3.6958,3.7171,3.7167,3.7105,3.6999,3.6909,3.6826,3.6632,3.6378,3.6234,3.5787,3.4959,3.2834,3.169,0.0,3.2827,3.2879,3.2674,3.4605,3.3895,3.2187,3.143,3.0245,2.9104,2.871,2.9383,3.0404,3.1203,3.1943,3.2462,3.2507,3.225,3.1756,3.0809,3.062,3.0457,2.9895,2.9275,2.9028,2.9702,2.8858,2.8096,2.8096,2.7723,2.7035,2.5922,2.3755,2.2095,2.1488,2.2438,2.2624,2.1497,2.1978,2.2031,2.1337,2.08,2.0215,1.9542,1.9497,1.9497,1.9497,1.9497,1.9268,1.8726,1.8726,1.8449,1.794,1.794,1.8265,1.8772,1.9268,1.9497,1.9497,1.9497,1.9497,1.9497,1.9497,1.9497,1.931,1.7878,1.7033,1.6542,0.0,0.0,0.0,2.1053,2.1806,2.2811,2.4044,2.444,2.4847,2.5467,2.4967,2.5069,2.6478,2.7037,2.7356,2.7445,2.8471,2.9992,3.2099,3.2923,3.4099,3.5831,3.5952,3.5957,3.5891,3.5923,3.5885,3.579,3.6024,3.6141,3.616,3.7021,3.7432,3.7471,3.806,3.8324,3.8318,3.8259,3.8219,3.8191,3.8087,3.792,3.7698,3.7637,3.6942,3.564,3.2652,3.1112,3.0583,3.1278,3.1527,3.1815,3.3443,3.2778,3.1342,3.0895,2.9296,2.8156,3.0263,3.1363,3.2183,3.3414,3.3813,3.3912,3.3984,3.3449,3.2713,3.1779,3.1389,3.1007,3.0317,2.9289,2.8858,2.9663,2.9229,2.8775,2.8775,2.8775,2.8084,2.6115,2.3695,2.119,1.8682,2.0792,2.1924,2.1078,2.2296,2.2721,2.1845,2.18,2.1391,2.0539,2.0494,2.0494,2.0494,2.0494,2.026,1.9819,1.9935,1.9923,1.982,1.9968,1.9988,2.0034,2.0359,2.0494,2.0494,2.0494,2.0494,2.0494,2.0494,2.0433,2.025,1.9825,1.8909,1.7889,0.0,0.0,0.0,0.0,2.1344,2.2228,2.4017,2.5069,2.5662,2.568,2.568,2.5607,2.5473,2.553,2.6115,2.7488,2.8217,2.9679,3.2134,3.3473,3.4628,3.5665,3.5838,3.5905,3.5907,3.5954,3.5996,3.5996,3.6836,3.7246,3.7265,3.8144,3.8555,3.8554,3.8439,3.8403,3.8399,3.8321,3.8268,3.8202,3.8197,3.8118,3.7959,3.7689,3.6263,3.427,3.3489,3.267,3.162,2.9461,3.0051,3.1222,2.8604,2.9501,3.0948,2.8245,2.7061,2.7263,3.0119,3.0029,2.9714,3.2284,3.3316,3.3755,3.3965,3.3993,3.3705,3.2749,3.1815,3.118,3.118,3.0381,2.9753,2.9792,3.0204,3.0503,3.0503,3.0503,2.8989,2.4852,2.3594,2.0668,0.0,1.7819,2.1034,2.2862,2.3047,2.3091,2.3047,2.3047,2.3047,2.3003,2.3003,2.3003,2.3003,2.3003,2.2224,2.0686,2.1078,2.106,2.0666,2.1051,2.1248,2.1293,2.2492,2.3003,2.3003,2.3003,2.3003,2.3003,2.3003,2.2751,2.2353,2.1977,2.0334,1.8367,0.0,0.0,0.0,0.0,0.0,2.3395,2.4183,2.4634,2.5316,2.6485,2.7128,0.0,0.0,0.0,0.0,0.0,2.8969,2.9754,3.1398,3.2485,3.3581,3.4722,3.5418,3.5766,3.5766,3.579,3.5799,3.5799,3.6674,3.7101,3.7138,3.858,3.9286,3.9358,3.9894,4.0175,4.0249,4.0137,4.0081,4.0046,3.9912,3.9822,3.9683,3.8791,3.745,3.5619,0.0,2.9627,2.73,2.6539,2.6323,2.6667,2.8257,2.7859,2.6577,2.5599,2.807,3.1129,3.111,3.2427,3.3945,3.4334,3.5047,3.5499,3.5077,3.4986,3.4739,3.3739,3.301,3.2472,3.2256,3.0637,2.9672,3.0621,2.8867,2.8116,3.0294,2.7632,2.6168,2.8239,2.4428,2.2054,0.0,0.0,0.0,1.8964,2.1542,2.3091,2.3091,2.3091,2.3091,2.3091,2.3091,2.3091,2.3091,2.3091,2.2853,2.2268,2.2438,2.2432,2.2311,2.2432,2.2492,2.2536,2.2906,2.3091,2.3091,2.3091,2.3091,2.3062,2.2789,2.2637,2.2422,2.1719,2.0948,2.0231,0.0,0.0,0.0,0.0,0.0,0.0,0.0,0.0,0.0,0.0,0.0,0.0,0.0,0.0,0.0,0.0,0.0,2.9532,3.1012,3.1651,3.2544,3.3748,3.4404,3.4718,3.4697,3.5088,3.5392,3.5654,3.6865,3.7622,3.7965,3.9369,4.0048,4.0123,4.0732,4.1051,4.1129,4.1089,4.1226,4.1397,4.0571,4.0368,4.0404,3.8929,3.7289,0.0,3.1811,2.8479,2.5545,2.4315,2.4041,2.4509,2.627,2.5831,2.4939,2.6458,2.9323,3.2193,3.2985,3.4601,3.6064,3.6107,3.6576,3.6889,3.643,3.6101,3.5705,3.508,3.4168,3.3431,3.3253,3.1096,2.9932,3.1526,2.9258,2.8263,3.0983,2.8368,2.6917,2.8999,2.5296,2.3275,2.5067,2.2654,0.0,1.8557,2.098,2.2318,2.1959,2.1915,2.2287,2.3091,2.3091,2.3091,2.3091,2.3091,2.3091,2.3091,2.3091,2.3091,2.3091,2.3091,2.2829,2.2326,2.2892,2.2785,2.236,2.2684,2.2814,2.2828,2.2451,2.2387,2.249,2.193,2.1846,2.1898,0.0,0.0,0.0,0.0,0.0,0.0,0.0,0.0,0.0,0.0,0.0,0.0,0.0,0.0,0.0,0.0,0.0,0.0,3.0898,3.1069,3.1626,3.2773,3.2937,3.2973,3.2952,3.3962,3.4844,3.5584,3.7349,3.8636,3.9462,4.0287,4.0641,4.0652,4.0786,4.0849,4.0855,4.0976,4.1435,4.192,4.0057,3.964,3.9954,3.809,3.5905,3.3618,3.1759,2.9323,2.645,2.3023,2.3388,2.4936,2.3191,2.3943,2.6289,3.0337,3.0751,3.088,3.5432,3.6268,3.616,3.7527,3.7863,3.7851,3.7822,3.7219,3.663,3.6569,3.523,3.4063,3.4079,3.1769,3.047,3.245,3.1097,3.0457,3.2305,3.2082,3.0525,2.7182,2.6098,2.4318,2.092,2.2327,0.0,2.1671,0.0,2.1209,2.0193,2.0157,2.1096,2.3125,2.3178,2.3178,2.3091,2.3091,2.3091,2.3091,2.3091,2.3091,2.3091,2.3091,2.2317,2.1046,2.2404,2.224,2.1112,2.2072,2.2536,2.2601,2.2168,2.2322,2.2759,2.2748,2.3053,2.322,0.0,0.0,0.0,0.0,0.0,0.0,0.0,0.0,0.0,0.0,0.0,0.0,0.0,0.0,0.0,0.0,0.0,0.0,2.9954,3.0733,3.1334,3.1683,3.2497,3.3201,3.3783,3.4062,3.4589,3.5386,3.6484,3.7162,3.7451,3.8253,3.8671,3.8726,3.8755,3.8762,3.8767,3.8801,3.8902,3.8961,3.8368,3.8211,3.8204,3.7348,3.6061,3.4484,3.2958,3.0453,2.7485,2.5011,2.5573,2.7454,2.8145,2.949,3.0746,3.0644,3.283,3.5201,3.5042,3.6933,3.8902,3.869,3.8635,3.8469,3.7921,3.7632,3.715,3.5964,3.5378,3.485,3.4045,3.1278,3.0075,3.2898,2.9128,2.6674,2.8979,2.729,2.6001,2.6664,2.6361,2.6443,2.7267,2.7782,2.6927,0.0,2.4672,2.5072,2.483,2.4788,2.465,2.4382,2.4382,2.3963,2.3091,2.3091,2.3091,2.3091,2.3091,2.3091,2.3091,2.3091,2.2727,2.2087,2.1796,2.2083,2.2798,2.4068,2.4458,2.418,2.3755,2.3689,2.3765,2.3429,2.3368,2.3441,0.0,0.0,0.0,0.0,0.0,0.0,0.0,0.0,0.0,0.0,0.0,0.0,0.0,0.0,0.0,0.0,0.0,0.0,0.0,3.0194,3.0631,3.0816,3.1379,3.1884,3.2325,3.2775,3.3362,3.412,3.5398,3.6229,3.6621,3.7479,3.7864,3.7842,3.7537,3.7365,3.7314,3.6935,3.7174,0.0,0.0,3.7315,3.7747,3.6571,3.5571,3.4603,3.2939,3.0965,2.911,2.8939,2.9139,2.9842,3.2025,3.343,3.4296,3.442,3.592,3.7463,3.7036,3.8472,3.9978,3.9542,3.9437,3.907,3.766,3.7315,3.6819,3.5194,3.4863,3.4712,3.4264,3.1479,3.0329,3.3668,2.9913,2.7117,2.8539,2.6819,2.5776,2.6594,2.6295,2.6986,2.9559,2.9792,2.8993,2.7082,2.6173,2.5507,2.5029,2.5029,2.5166,2.5546,2.5546,2.501,2.3844,2.3844,2.3844,2.3844,2.4101,2.4209,2.4199,2.396,2.336,2.2503,0.0,2.2845,2.3045,2.4338,2.4735,2.4497,2.4055,2.4163,2.451,2.4259,2.4445,2.4803,0.0,0.0,0.0,0.0,0.0,0.0,0.0,0.0,0.0,0.0,2.7111,0.0,0.0,0.0,0.0,0.0,0.0,0.0,0.0,0.0,0.0,3.0128,3.0123,3.0147,3.0259,3.1221,3.2057,3.2764,3.4542,3.5733,3.6327,3.7081,3.7347,3.7145,3.6375,3.599,3.5861,3.5104,3.5675,3.6984,3.6001,3.647,3.7593,0.0,0.0,3.4455,3.2373,3.1115,3.0808,3.3228,3.3055,3.2362,3.5333,3.6545,3.723,3.9054,3.8981,3.8489,3.9486,3.9935,4.0096,4.0096,4.0096,3.9607,3.7684,3.6993,3.6329,3.4678,3.4242,3.4206,3.4384,3.1996,3.1003,3.398,3.138,2.8855,2.8402,2.8093,2.7413,2.6136,2.589,2.6877,2.9559,2.9419,2.9367,2.9753,2.7042,2.4959,2.4042,2.4011,2.4829,2.6666,2.6554,2.6016,2.5041,2.4935,2.4904,2.4904,2.5318,2.5501,2.5478,2.5015,2.405,2.2819,0.0,0.0,2.2932,2.4044,2.4513,2.4456,2.4061,2.4445,2.5194,2.5194,2.5734,2.6499,0.0,0.0,0.0,0.0,0.0,0.0,0.0,0.0,0.0,0.0,2.6835,2.8374,0.0,0.0,0.0,0.0,0.0,0.0,0.0,0.0,0.0,0.0,3.0022,3.0411,3.1083,3.1905,3.276,3.3593,3.5237,3.5806,3.535,3.5438,3.512,3.4438,3.3528,3.3026,3.286,3.2647,3.3039,3.38,3.3597,3.4369,3.5658,0.0,0.0,0.0,3.2634,3.1503,3.1504,3.3988,3.496,3.5789,3.9279,4.0141,3.9663,3.8748,3.9078,3.9445,3.8195,3.8958,4.0096,4.0096,4.0096,4.0003,3.9607,3.86,3.7242,3.5483,3.4991,3.4496,3.3132,3.2256,3.1699,3.1554,2.8943,2.5694,2.2155,2.5532,2.6836,2.2726,2.5125,2.7812,2.9636,2.7432,2.6984,0.0,2.9264,2.8824,2.8655,2.8655,2.839,2.7844,2.6964,2.6389,2.6224,2.5721,2.547,2.547,2.5103,2.4948,2.4948,2.482,2.447,2.3977,2.5021,0.0,2.4633,2.5668,2.6091,2.6079,2.6015,2.6094,2.6245,2.6245,2.6349,2.6499,0.0,0.0,0.0,0.0,0.0,0.0,0.0,2.3393,2.4801,2.5344,2.7106,2.8352,2.8467,2.8933,2.9225,0.0,0.0,0.0,0.0,0.0,0.0,0.0,0.0,0.0,3.1246,3.2415,3.3013,3.3023,0.0,3.4556,3.4216,3.4613,3.4583,3.4149,3.2727,3.2023,3.1883,3.0864,3.109,3.2158,3.2526,3.3555,0.0,0.0,0.0,0.0,3.1999,3.1456,3.21,3.2998,3.4055,3.5803,4.042,4.1978,4.1746,3.9838,4.0092,4.0555,3.8553,3.9042,4.0096,4.0096,4.0096,3.9623,3.7775,3.7036,3.6077,3.3715,3.3363,3.3391,3.3033,3.2244,3.1942,3.2702,3.1007,2.8594,2.5706,2.7301,2.7858,2.5448,2.656,2.7767,2.8421,2.7252,2.6823,2.7714,2.7921,2.8509,2.974,2.9792,2.9534,2.8988,2.7648,2.6938,2.6938,2.635,2.6069,2.6058,2.6083,2.6097,2.6085,2.5812,2.5599,2.5409,2.5875,0.0,2.4945,2.6047,2.6117,2.5627,2.6267,2.6499,2.6499,2.6499,2.6298,2.6047,0.0,0.0,0.0,0.0,0.0,0.0,0.0,2.3748,2.5441,2.5752,2.7318,2.8366,2.8337,2.878,2.9129,0.0,0.0,0.0,0.0,0.0,0.0,0.0,0.0,0.0,0.0,0.0,0.0,3.2777,3.3874,0.0,0.0,0.0,0.0,0.0,3.2512,3.176,3.1674,3.0323,3.0534,0.0,0.0,3.3764,0.0,0.0,0.0,0.0,0.0,3.1647,3.2681,3.2466,3.3256,3.5107,3.9878,4.1741,4.1829,4.0341,4.046,4.0802,3.9325,3.9505,4.0096,4.0096,4.0096,3.9303,3.6228,3.5615,3.4944,3.2347,3.2065,3.2547,3.3261,3.2615,3.2408,3.3762,3.2975,3.146,2.9422,2.9333,2.9261,2.8648,2.8234,2.8107,2.8411,2.8023,2.7656,2.7378,2.7545,2.827,2.974,2.9792,2.9729,2.9616,2.8311,2.7584,2.7464,2.6934,2.6681,2.6669,2.6999,2.714,2.7128,2.6688,2.6499,2.6499,2.6499,0.0,0.0,2.6,2.5779,2.4815,2.6035,2.6499,2.6508,2.654,2.6244,2.5859,0.0,0.0,0.0,0.0,0.0,0.0,0.0,2.2896,2.4402,2.5319,2.6969,2.8624,3.0169,2.9378,2.9089,0.0,0.0,0.0,0.0,0.0,0.0,0.0,0.0,0.0,0.0,0.0,0.0,3.4289,3.6551,0.0,0.0,0.0,0.0,0.0,0.0,3.1614,3.1647,3.2025,0.0,0.0,0.0,0.0,0.0,0.0,0.0,0.0,0.0,3.2628,3.3215,3.4336,3.4754,3.5249,3.7703,3.8117,3.7815,3.841,3.873,3.905,3.9775,4.002,4.0096,4.0096,4.0096,3.9708,3.8242,3.6908,3.5481,3.382,3.3437,3.3348,3.3311,3.4003,3.3917,3.191,3.1359,2.9847,2.6188,2.8768,3.0326,2.8295,2.875,2.9988,3.192,2.959,2.9101,3.1802,3.2001,3.1362,2.9895,2.9792,2.9553,2.8988,2.8837,2.8525,2.8025,2.7476,2.7249,2.7237,2.6791,2.6562,2.6562,2.6512,2.6499,2.6499,2.6499,0.0,0.0,2.6,2.5779,2.4815,2.6035,2.6499,2.6492,2.6641,2.6654,2.6632,0.0,0.0,0.0,0.0,0.0,0.0,2.1504,2.3261,2.4827,2.5715,2.6962,2.8256,2.9497,2.9698,3.0174,3.1266,0.0,0.0,0.0,0.0,0.0,0.0,0.0,0.0,0.0,0.0,3.6458,3.6502,3.6437,0.0,0.0,0.0,0.0,0.0,0.0,3.2205,3.2602,3.2276,0.0,0.0,0.0,0.0,0.0,0.0,0.0,0.0,0.0,0.0,3.396,3.3384,3.3465,3.3914,3.4533,3.4563,3.4656,3.6236,3.7871,3.9016,3.8455,3.9194,4.0096,4.0096,4.0096,3.9573,3.7534,3.6495,3.5513,3.3761,3.2962,3.2885,3.3842,3.4031,3.3915,3.3536,3.338,3.2835,3.1419,3.2625,3.338,3.2584,3.2853,3.2583,3.1294,3.0202,2.9835,3.0451,3.0371,3.0483,3.0861,3.0411,2.9778,2.8938,2.8285,2.7833,2.7607,2.7102,2.6826,2.6813,2.66,2.6499,2.6499,2.6499,2.6499,2.6499,2.6499,0.0,0.0,2.6296,2.6189,2.4779,2.6652,2.7402,2.7354,2.7023,2.6671,2.6407,0.0,0.0,0.0,0.0,0.0,2.1436,2.1973,2.3727,2.5246,2.5949,2.7095,2.8287,2.9486,3.0663,3.1823,3.2955,3.2349,0.0,0.0,0.0,0.0,0.0,0.0,0.0,0.0,0.0,3.7999,3.8018,3.7325,3.6877,0.0,0.0,3.4641,3.3698,0.0,0.0,0.0,0.0,0.0,0.0,0.0,0.0,0.0,0.0,0.0,0.0,0.0,0.0,0.0,0.0,0.0,3.3217,3.2966,3.2659,3.278,3.4728,3.6818,3.8377,3.7711,3.8807,4.0096,4.0096,3.9969,3.9283,3.7077,3.6357,3.5629,3.3873,3.3189,3.3272,3.4374,3.4294,3.4302,3.4967,3.513,3.5296,3.5543,3.5674,3.5751,3.5786,3.5804,3.475,3.2033,3.1942,3.1616,3.0629,3.0519,3.08,3.1571,3.0999,3.0196,2.9189,2.8415,2.7833,2.7436,2.7301,2.7095,2.685,2.7129,2.6947,2.6449,2.6994,2.696,2.6471,2.7027,0.0,0.0,2.6832,2.6683,2.5159,2.7005,2.7693,2.7655,2.7228,2.6858,2.6524,0.0,0.0,0.0,0.0,0.0,0.0,2.2426,2.4132,2.5428,2.5847,2.7358,2.9071,3.0885,3.2633,3.404,3.4977,3.3966,0.0,0.0,0.0,0.0,0.0,0.0,0.0,0.0,0.0,3.8491,3.8496,4.0148,3.9658,3.7215,3.7984,3.6622,3.3564,0.0,0.0,0.0,0.0,0.0,0.0,0.0,0.0,0.0,0.0,0.0,0.0,0.0,0.0,0.0,0.0,0.0,0.0,0.0,3.3057,3.2506,3.4062,3.5331,3.6577,3.8154,3.932,4.0096,4.0096,3.9644,3.8857,3.7563,3.6826,3.5996,3.4493,3.4713,3.508,3.4755,3.5121,3.5489,3.5504,3.5729,3.6029,3.6443,3.6845,3.6941,3.6552,3.6477,3.6207,3.5517,3.5457,3.5019,3.4013,3.4239,0.0,3.1695,3.1338,3.0768,2.9816,2.9769,2.9102,2.7716,2.8556,2.8524,2.7703,2.8556,2.805,2.6345,2.8147,2.8017,0.0,0.0,0.0,0.0,2.7786,2.7283,2.6244,2.6789,2.7017,2.7024,2.7229,2.7293,2.7302,0.0,0.0,0.0,0.0,0.0,0.0,0.0,2.4506,2.543,2.6152,2.7335,2.8613,2.9868,3.1968,3.372,3.48,3.4756,0.0,0.0,0.0,0.0,0.0,0.0,0.0,0.0,0.0,3.9446,4.0009,3.934,3.889,3.8585,3.6596,3.5327,3.4733,3.4584,3.4898,0.0,0.0,0.0,0.0,0.0,0.0,0.0,0.0,0.0,0.0,0.0,0.0,0.0,0.0,0.0,0.0,0.0,0.0,0.0,3.4153,3.4677,3.5053,3.5109,3.6149,3.7111,3.6595,3.6986,3.6996,3.5132,3.5648,3.6127,3.4701,3.457,3.494,3.5582,3.5473,3.5505,3.6151,3.6318,3.6566,3.711,3.7281,3.7157,3.6612,3.6116,3.5729,3.5534,0.0,3.33,3.4274,3.282,0.0,3.2201,3.2132,3.1391,2.9835,2.9435,2.9036,2.8588,2.8876,2.8876,2.8588,2.8876,2.8115,2.6561,2.8258,2.7835,0.0,0.0,0.0,0.0,2.7617,2.7581,2.6701,2.7697,2.8106,2.8061,2.7641,2.751,2.7506,0.0,0.0,0.0,0.0,0.0,0.0,0.0,2.4808,2.5929,2.6681,2.7903,2.9084,3.0069,3.2145,3.4017,3.5329,3.5982,0.0,0.0,0.0,0.0,0.0,0.0,0.0,3.8505,3.93,4.0113,4.0853,3.9752,3.9175,3.9031,3.6966,3.5681,3.5152,3.5154,3.5474,0.0,0.0,0.0,0.0,0.0,0.0,3.7288,0.0,0.0,0.0,0.0,0.0,0.0,0.0,0.0,0.0,0.0,0.0,0.0,0.0,3.4023,3.4063,3.425,3.4889,3.5505,3.5563,3.58,3.5707,3.46,3.5403,3.609,3.5217,3.5385,3.5804,3.6245,3.6107,3.6029,3.6338,3.6569,3.6922,3.755,3.7491,3.7202,3.6816,3.6081,3.58,0.0,3.4684,3.3974,3.4833,3.2959,0.0,3.2482,3.2243,3.1603,3.0489,3.0119,2.9797,2.9473,2.9797,2.9797,2.9473,2.9797,2.8934,2.7105,2.8805,2.8287,0.0,0.0,0.0,0.0,2.8038,2.8048,2.7527,2.803,2.8203,2.8184,2.775,2.76,2.76,0.0,0.0,0.0,0.0,0.0,0.0,0.0,2.5048,2.6792,2.7284,2.8829,3.0266,3.1252,3.2983,3.4734,3.6409,0.0,0.0,0.0,0.0,0.0,0.0,0.0,0.0,3.8937,3.9743,4.0456,4.1072,4.0998,4.0212,3.8732,3.8497,3.7176,3.5082,3.6403,3.6554,0.0,0.0,0.0,0.0,3.7447,3.7332,0.0,0.0,0.0,0.0,0.0,0.0,0.0,0.0,0.0,0.0,0.0,0.0,0.0,0.0,0.0,0.0,0.0,3.5103,3.4954,3.6206,3.5597,3.4846,3.5422,3.5745,0.0,3.589,3.6805,3.7399,3.6708,3.6921,3.6951,3.6242,3.6677,3.7262,3.781,3.745,3.71,3.7097,3.6407,3.64,3.7602,3.7109,3.6362,3.5601,0.0,0.0,3.2556,3.197,3.164,3.1582,3.1625,3.1248,3.0389,3.1117,3.1058,3.0254,3.1043,3.0119,2.7734,2.9594,2.9101,0.0,0.0,0.0,0.0,2.8903,2.8647,2.8613,2.7966,2.7735,2.7735,2.7735,2.7735,2.7735,0.0,0.0,0.0,0.0,0.0,0.0,0.0,0.0,0.0,0.0,2.8522,3.0232,3.1746,3.2913,3.4516,0.0,0.0,0.0,0.0,0.0,0.0,0.0,0.0,0.0,3.9512,4.0197,4.0633,4.079,4.0079,3.9538,3.9112,3.7316,3.6373,3.6195,3.6046,3.605,0.0,0.0,0.0,0.0,3.7302,3.7371,0.0,0.0,0.0,0.0,3.5138,3.5012,0.0,0.0,0.0,0.0,0.0,0.0,0.0,0.0,3.4001,3.3667,3.4399,0.0,3.3153,3.304,3.3414,3.3672,0.0,3.4703,3.6177,3.5751,3.6705,3.7531,3.737,3.7706,3.7879,3.7519,3.8288,3.8685,3.7871,3.7407,3.7156,3.7117,3.7249,3.7263,3.7055,3.6822,3.6191,3.4943,0.0,3.3826,3.2644,3.2904,3.2879,3.2355,3.2826,3.2485,3.1219,3.1409,3.0866,2.9619,3.0382,2.9229,2.6501,2.8771,2.8503,0.0,0.0,0.0,2.8772,2.9092,2.9202,2.921,2.9036,2.8973,2.8973,2.8973,2.8973,2.8973,0.0,0.0,0.0,0.0,0.0,0.0,0.0,0.0,0.0,0.0,0.0,3.0414,3.2107,3.3103,0.0,0.0,0.0,0.0,0.0,0.0,0.0,0.0,0.0,3.9173,3.9807,4.0182,4.0504,4.0801,3.9918,3.9356,3.9037,3.7332,3.6481,3.635,3.5832,3.5736,0.0,0.0,0.0,3.7828,3.7438,0.0,0.0,0.0,0.0,0.0,3.4885,3.4707,0.0,3.4712,3.4804,3.4804,0.0,0.0,0.0,0.0,3.4411,3.4061,3.4309,3.3648,3.2966,3.3356,3.351,3.3601,3.3582,3.4649,3.5677,3.5844,3.6733,3.7527,3.7703,3.7751,3.7735,3.7767,3.7878,3.7822,3.7304,3.7555,3.7431,3.6471,3.7386,3.7687,0.0,3.6954,3.664,0.0,0.0,3.4137,3.3108,3.3391,3.3443,3.3066,3.3089,3.2892,3.2489,3.2125,3.1287,2.9992,3.0621,2.9614,2.725,2.911,2.9109,0.0,0.0,0.0,2.8912,2.8673,2.8912,2.9406,2.9406,2.9406,2.9406,2.9406,2.9406,2.9406,0.0,0.0,0.0,0.0,0.0,0.0,0.0,0.0,0.0,0.0,0.0,0.0,0.0,0.0,0.0,0.0,0.0,0.0,0.0,0.0,0.0,0.0,3.916,3.9486,4.0065,4.0082,4.0337,4.084,4.0018,3.9359,3.8834,3.7902,3.7002,3.6139,3.5842,3.5673,0.0,0.0,3.7595,3.7317,3.7524,0.0,0.0,0.0,0.0,0.0,0.0,0.0,0.0,3.4405,3.4667,3.4691,3.4691,0.0,0.0,0.0,0.0,0.0,3.4521,3.4113,3.3974,3.5132,3.4674,3.4201,3.5179,3.5132,3.5209,3.6275,3.7043,3.7642,3.7873,3.7722,3.7544,3.756,3.6888,3.6492,3.6905,3.7856,3.7859,3.6106,3.7487,0.0,3.6542,3.7201,3.7167,0.0,0.0,3.4455,3.3786,3.3836,3.3813,3.359,3.3086,3.3055,3.3564,3.2752,3.1716,3.048,3.1015,3.0291,2.8567,2.973,2.9943,2.9355,0.0,0.0,2.9483,2.8526,2.8742,2.9673,2.9673,2.9673,2.9673,2.9673,2.9673,2.9673,0.0,0.0,0.0,0.0,0.0,0.0,0.0,0.0,0.0,0.0,0.0,0.0,0.0,0.0,0.0,0.0,0.0,0.0,0.0,0.0,0.0,3.903,3.9398,3.9882,4.0494,4.0562,4.0583,4.0558,3.9627,3.9153,3.9017,3.815,3.7269,3.6426,3.633,3.5924,3.5444,3.6937,3.7116,3.6436,3.697,0.0,0.0,0.0,0.0,0.0,0.0,0.0,0.0,3.4488,3.4594,3.4691,3.4691,0.0,0.0,0.0,0.0,0.0,3.4667,3.5482,3.6188,3.5694,3.5277,3.5202,3.6114,3.6049,3.6163,3.7465,3.8268,3.8586,3.8088,3.8897,3.9156,3.7677,3.7438,3.7626,3.8153,3.8348,3.8245,3.7849,0.0,3.8603,3.7801,3.7251,0.0,0.0,0.0,3.5144,3.4479,3.4981,3.4745,3.3538,3.395,3.3934,3.3448,3.2203,3.0861,2.9432,3.0181,2.9741,2.8291,2.9171,2.9518,0.0,0.0,3.0,3.0187,3.0522,3.0749,3.0918,3.0918,3.0918,3.0918,3.0918,3.0918,3.0918,0.0,0.0,0.0,0.0,0.0,0.0,0.0,0.0,0.0,0.0,0.0,0.0,0.0,0.0,0.0,0.0,0.0,0.0,0.0,0.0,3.9116,3.802,3.8908,3.9495,3.9634,4.0059,4.018,3.9961,3.9607,3.9194,3.8756,3.7506,3.648,3.5625,3.5444,3.5214,3.5037,3.6042,3.6472,3.6447,0.0,0.0,0.0,0.0,0.0,0.0,0.0,0.0,0.0,0.0,3.4497,3.4497,3.4643,0.0,0.0,0.0,0.0,0.0,3.4691,3.5531,3.6506,3.6913,3.6728,3.6754,3.7853,3.695,3.6443,3.8413,3.823,3.7762,3.7967,3.8636,3.8931,3.8226,3.913,3.9783,3.9425,3.9694,3.9365,0.0,0.0,3.8589,3.6048,3.6628,0.0,0.0,0.0,0.0,3.5161,3.5043,3.4711,3.4058,3.3566,3.3156,3.2797,3.1798,3.0829,2.996,3.0552,3.0151,2.8885,2.9901,3.0372,3.0351,0.0,3.0174,3.0757,3.0379,3.0617,3.119,3.119,3.119,3.123,3.1449,3.1389,3.1269,0.0,0.0,0.0,0.0,0.0,0.0,0.0,0.0,0.0,0.0,0.0,0.0,0.0,0.0,0.0,0.0,0.0,0.0,0.0,3.842,3.8319,3.7188,3.8246,3.8705,3.8371,3.9302,3.9668,3.9379,3.952,3.933,3.8792,3.7476,3.6357,3.5449,3.5176,3.4946,3.4808,3.5684,3.6254,3.6486,0.0,0.0,0.0,0.0,0.0,0.0,0.0,0.0,0.0,0.0,0.0,0.0,0.0,0.0,0.0,3.4828,3.4804,3.4707,3.4739,3.5356,3.6279,3.7452,3.7403,3.7612,3.95,3.7811,3.6645,3.9367,3.8529,3.757,3.8406,3.8335,3.8417,3.9276,4.035,4.0924,4.0556,4.1026,4.051,3.8062,3.9074,3.8635,3.5274,0.0,0.0,0.0,0.0,0.0,3.5788,3.5074,3.4555,3.4235,3.3094,3.2372,3.2185,3.1739,3.1243,3.0733,3.1033,3.0726,2.9845,3.0771,3.119,3.1148,3.0223,3.0342,3.1128,3.0195,3.0433,3.1332,3.1332,3.1408,3.1543,3.1843,3.177,3.16,0.0,0.0,0.0,0.0,0.0,0.0,0.0,0.0,0.0,0.0,0.0,0.0,0.0,0.0,0.0,0.0,0.0,0.0,0.0,3.7508,3.7574,3.7297,3.7682,3.7627,3.705,3.8674,3.9379,3.9023,3.9228,3.9505,3.9778,3.9116,3.821,3.7129,3.6847,3.604,3.4987,3.6659,3.6859,3.6115,3.6864,0.0,0.0,0.0,0.0,0.0,0.0,0.0,0.0,0.0,0.0,0.0,0.0,0.0,3.4546,3.4828,3.4804,3.4732,3.4851,3.5429,3.6058,3.6293,3.6141,3.6869,4.0456,3.8529,3.698,4.0521,4.0271,3.9573,4.0127,3.8619,3.822,4.1117,4.0062,3.9571,4.1424,0.0,4.1396,4.0465,3.9876,3.9118,0.0,0.0,0.0,0.0,0.0,0.0,3.6354,3.5648,3.4699,3.3529,3.3144,3.2601,3.1839,3.2214,3.1985,3.117,3.1185,3.1148,3.1069,3.1168,3.119,3.119,3.1109,3.1128,3.119,3.1109,3.1351,3.1752,3.1752,3.2021,3.2417,3.2434,3.2434,3.2417,0.0,0.0,0.0,0.0,0.0,0.0,0.0,0.0,0.0,0.0,0.0,3.1262,3.2238,0.0,0.0,0.0,0.0,0.0,0.0,3.6114,3.605,3.5101,3.6023,3.6039,3.4926,3.7114,3.8144,3.7954,3.8471,3.8502,3.8035,3.7745,3.727,3.6646,3.6229,3.5822,3.5492,3.6146,3.6483,3.6545,3.6341,3.6158,0.0,0.0,0.0,0.0,0.0,0.0,0.0,0.0,3.3388,3.3282,3.3775,3.4257,3.4667,3.4947,3.4923,3.4851,3.4994,3.5169,3.5759,3.7612,3.6706,3.633,4.001,3.9061,3.8354,4.1566,4.035,3.9007,3.9992,3.9908,4.0369,4.252,4.2197,4.1973,4.2736,4.2092,4.1268,4.0497,3.9691,3.8773,0.0,0.0,0.0,0.0,0.0,0.0,3.6126,3.539,3.4544,3.3569,3.2984,3.2546,3.2248,3.2417,3.2333,3.2003,3.1714,3.1449,3.119,3.119,3.1332,3.1565,3.1565,3.175,3.2003,3.2003,3.2109,3.2248,3.2248,3.2332,3.2534,3.2842,3.2745,3.2583,0.0,0.0,0.0,0.0,0.0,0.0,0.0,0.0,2.9011,0.0,0.0,0.0,0.0,3.2176,0.0,0.0,0.0,0.0,3.4058,3.4827,3.4834,3.3879,3.4862,3.4925,3.3837,3.5374,3.6373,3.677,3.7258,3.7396,3.7215,3.7187,3.6986,3.6646,3.6169,3.5938,3.5836,3.5948,3.6234,3.6546,3.5832,3.586,0.0,0.0,0.0,0.0,0.0,0.0,0.0,0.0,3.3356,3.3282,3.3749,3.4272,3.4739,3.497,3.497,3.4923,3.5018,3.497,3.5502,3.7927,3.6773,3.6049,3.9911,3.938,3.8867,4.1614,4.0937,4.0114,4.0949,4.1013,4.1509,4.3217,4.2943,4.2668,4.306,4.2285,4.1307,4.0289,3.9656,0.0,0.0,0.0,0.0,0.0,0.0,0.0,0.0,3.5438,3.4603,3.3616,3.3023,3.2713,3.2713,3.2856,3.2856,3.2713,3.24,3.2021,3.1618,3.1618,3.1769,3.2022,3.2022,3.2196,3.2501,3.2501,3.2583,3.2729,3.2856,3.2919,3.295,3.3273,3.3181,3.2996,0.0,0.0,0.0,0.0,0.0,0.0,0.0,0.0,2.8555,2.9479,3.0028,0.0,0.0,0.0,0.0,0.0,0.0,0.0,3.2877,3.3638,3.407,3.4085,3.4401,3.4428,3.4113,3.3571,3.4048,3.5582,3.5582,3.6398,3.787,3.7901,3.7745,3.7449,3.713,3.6559,3.5907,3.6232,3.6234,3.5937,3.5565,3.531,3.5118,0.0,0.0,0.0,0.0,0.0,0.0,0.0,3.3689,3.3363,3.4219,3.4594,3.4732,3.4875,3.4899,3.4899,3.4923,3.4899,3.5261,3.6723,3.6015,3.6038,4.0376,3.9419,3.8277,4.0542,4.2305,4.3487,4.3474,4.1817,4.1113,4.3179,4.176,4.0859,4.2117,4.2286,4.168,4.0084,3.9882,0.0,0.0,0.0,0.0,0.0,0.0,0.0,0.0,3.6013,3.499,3.3651,3.3347,3.3214,3.3214,3.3592,3.3592,3.3214,3.3214,3.2968,3.2501,3.2501,3.2501,3.2501,3.2501,3.2517,3.2517,3.2517,3.2795,3.3243,3.3634,3.3807,3.3807,3.3807,3.3807,3.3807,0.0,0.0,0.0,0.0,0.0,0.0,0.0,0.0,2.9043,2.961,2.9971,0.0,0.0,0.0,0.0,0.0,0.0,0.0,3.2504,3.2423,3.2609,3.3216,3.3228,3.3201,3.3275,3.347,3.4088,3.5122,3.5824,3.6214,3.6377,3.6824,3.6371,3.5118,3.5461,3.5187,3.4506,3.4803,3.5046,3.5234,3.5102,3.5023,3.4917,0.0,0.0,0.0,0.0,0.0,0.0,0.0,0.0,0.0,3.3638,3.4231,3.506,3.6192,3.5818,3.5282,3.6344,3.5932,3.5652,3.7602,3.7384,3.6999,3.8348,3.8695,3.9188,4.081,4.1446,4.1792,4.1939,4.2311,0.0,4.3396,4.2492,4.1869,4.2254,4.1332,4.0432,3.9955,0.0,0.0,0.0,0.0,0.0,0.0,0.0,0.0,0.0,3.6215,3.537,3.3786,3.366,3.3606,3.3606,3.3734,3.3734,3.3606,3.3606,3.3225,3.2501,3.2501,3.2681,3.2999,3.2999,3.3151,3.3419,3.3419,3.349,3.362,3.3748,3.3807,3.3807,3.3807,3.3807,3.3807,0.0,0.0,0.0,0.0,0.0,0.0,2.7442,2.7905,2.851,2.9391,2.9522,2.9984,0.0,0.0,0.0,3.1799,3.143,0.0,3.1435,3.1436,3.1554,3.1831,3.2311,3.2633,3.2707,3.3287,3.3772,3.416,3.4925,3.5194,3.4953,3.4979,3.4575,3.3812,3.4288,3.4182,3.3661,3.427,3.4435,3.427,3.3783,3.392,3.4338,0.0,0.0,0.0,0.0,0.0,0.0,0.0,0.0,0.0,3.3569,3.4185,3.5088,3.5746,3.5577,3.5478,3.6933,3.6703,3.6626,3.9056,3.8446,3.7442,3.8052,3.8543,3.9493,4.1676,4.206,4.2024,4.2147,4.2914,0.0,4.3066,4.2734,4.2228,4.1475,4.0612,3.9902,3.9457,0.0,0.0,0.0,0.0,0.0,0.0,0.0,0.0,0.0,3.6303,3.5532,3.3844,3.3807,3.3807,3.3807,3.3807,3.3807,3.3807,3.3807,3.3518,3.3011,3.3011,3.3166,3.3451,3.3451,3.3578,3.3807,3.3807,3.3807,3.3807,3.3807,3.3807,3.3802,3.3928,3.3961,3.3974,0.0,0.0,2.4259,2.5544,0.0,0.0,2.7148,2.7095,2.7483,2.8966,2.893,2.9347,0.0,0.0,0.0,3.1727,3.1106,3.0525,3.0103,3.0693,3.0834,3.0311,3.1693,3.2484,3.2388,3.299,3.3228,3.3043,3.3534,3.379,3.3805,3.2946,3.278,3.3181,3.3487,3.3381,3.3091,3.4158,3.4081,3.3198,3.2079,3.2408,3.3439,3.2172,0.0,0.0,0.0,0.0,0.0,0.0,0.0,0.0,3.3853,3.4279,3.4872,3.4347,3.4761,3.5661,3.696,3.7279,3.7866,4.0506,3.9156,3.7629,3.9218,3.9105,3.9567,4.2831,4.3373,4.332,4.3462,4.3458,4.3198,4.2446,4.2508,4.1999,4.0237,4.0125,3.9858,3.8895,0.0,0.0,0.0,0.0,0.0,0.0,0.0,0.0,0.0,3.6356,3.5584,3.3937,3.3855,3.3855,3.3881,3.3855,3.3855,0.0,3.3881,3.3881,3.3881,3.3834,3.3807,3.3807,3.3807,3.3807,3.3807,3.3807,3.3807,3.3788,3.3829,3.3842,3.3863,3.4147,3.4253,3.43,0.0,0.0,2.5193,2.617,0.0,0.0,2.7026,2.7626,2.823,2.8752,2.9069,2.9624,3.0615,3.0984,0.0,3.138,3.0404,3.0018,3.0573,3.0298,3.0322,3.0821,3.1513,3.1994,3.2234,3.2546,3.2912,3.3401,3.3986,3.4157,3.3938,3.325,3.2658,3.2281,3.2139,3.1913,3.1674,3.2064,3.2316,3.2446,3.2059,3.216,3.2486,3.229,3.2504,0.0,0.0,0.0,0.0,0.0,0.0,0.0,3.4341,3.4204,3.4272,3.5341,3.5784,3.6251,3.7815,3.7863,3.7818,3.9119,3.8725,3.8838,4.1885,4.1462,4.1015,4.3084,4.2442,4.1944,4.3266,4.3213,4.2885,4.2718,4.1866,4.1086,4.0665,4.0109,3.9657,0.0,0.0,0.0,0.0,0.0,0.0,0.0,0.0,0.0,3.7,3.6739,3.5975,3.4542,3.4242,3.423,3.4497,3.426,3.426,0.0,3.4516,3.4516,3.4494,3.4018,3.3807,3.3807,3.3807,3.3807,3.3807,3.3807,3.3807,3.3815,3.4031,3.4111,3.4147,3.4475,3.4582,3.4593,0.0,0.0,0.0,0.0,0.0,0.0,0.0,0.0,2.8158,2.8647,2.8976,2.9387,2.9956,2.9973,0.0,0.0,2.9085,2.8557,2.8952,2.9074,2.948,3.0274,3.0715,3.1059,3.1328,3.1717,3.2107,3.2461,3.2863,3.2971,3.2766,3.1887,3.1568,3.1769,3.1765,3.1506,3.1055,3.1956,3.2058,3.1622,3.1539,3.1764,3.2076,3.1907,3.2093,3.2551,3.2881,0.0,0.0,0.0,0.0,0.0,0.0,0.0,3.4085,3.4614,3.5087,3.5752,3.7229,3.8106,3.8866,3.9846,4.0451,4.1103,4.2232,4.2341,4.2486,4.3533,4.2923,4.2519,4.3555,4.3219,4.2731,4.2501,4.165,4.0851,4.0297,3.9996,3.9775,0.0,0.0,0.0,0.0,0.0,0.0,0.0,0.0,3.8681,3.7184,3.6971,3.6216,3.474,3.4529,3.4529,3.4694,3.4529,3.4529,3.4694,3.4694,3.4694,3.4684,3.4213,3.3999,3.3999,3.3999,3.4068,3.4232,3.4232,3.4232,3.4237,3.4368,3.4434,3.4486,3.4784,3.4898,3.4917,0.0,0.0,0.0,0.0,0.0,0.0,0.0,0.0,0.0,2.8636,2.8846,2.9045,2.9199,2.8857,2.8594,0.0,0.0,0.0,2.6784,2.7546,2.8419,2.9325,2.9618,2.9831,3.0054,3.0476,3.0774,3.098,3.099,3.1244,3.1649,3.0578,3.0565,3.1441,3.1813,3.1607,3.1071,3.2387,3.2249,3.1149,3.1094,3.1455,3.1892,3.1375,3.1692,3.2437,3.2633,3.3039,3.3555,3.3797,0.0,0.0,0.0,0.0,3.3679,3.34,3.391,3.4846,3.6023,3.7925,3.9863,4.1101,4.2123,4.2631,4.1941,4.2522,4.3376,4.3887,4.3772,4.364,4.3845,4.3258,4.2594,4.2057,4.151,4.0833,3.9884,3.9993,4.0072,0.0,0.0,0.0,0.0,0.0,0.0,0.0,0.0,3.8964,3.7332,3.7196,3.6448,3.4889,3.4784,3.4784,3.4851,3.4784,3.4784,3.4851,3.4851,3.4803,3.4754,3.4489,3.4327,3.43,3.43,3.4434,3.4694,3.4694,3.4694,3.4694,3.4744,3.4764,3.4793,3.5079,3.5174,3.5198,0.0,0.0,0.0,0.0,0.0,0.0,0.0,0.0,0.0,0.0,2.9056,2.9069,2.8582,2.8334,2.794,2.7397,2.6347,2.5784,2.5857,0.0,0.0,2.8343,2.8307,2.8405,2.8669,2.8343,2.8653,2.9654,2.8981,2.9926,3.2333,3.1629,3.122,3.1185,3.1618,3.1768,3.1664,3.1902,3.1872,3.1692,3.1491,3.158,3.1781,3.1225,3.161,3.2348,3.2058,3.2615,3.3555,3.3797,3.3729,0.0,0.0,0.0,3.2126,3.3106,3.3758,3.4268,3.475,3.6874,3.9333,4.1051,4.079,4.0643,4.274,4.264,4.2478,4.3739,4.3971,4.3823,4.3461,4.2922,4.2281,4.1533,4.0958,4.0556,4.0397,4.0414,4.0422,0.0,0.0,0.0,0.0,0.0,0.0,0.0,4.0157,3.9395,3.7955,3.7599,3.6809,3.5441,3.5174,3.5166,3.5383,3.5155,3.5155,3.5383,3.5383,3.5273,3.5053,3.5008,3.4851,3.4643,3.4643,3.4663,3.4694,3.4694,3.4694,3.4714,3.4954,3.5053,3.5079,3.5354,3.5446,3.5446,0.0,0.0,0.0,0.0,0.0,0.0,0.0,0.0,0.0,0.0,0.0,2.8307,2.7276,2.6609,2.6145,2.5849,2.4798,2.4383,2.4891,2.4661,2.5026,2.6181,2.6842,2.7111,2.7074,2.7156,2.7769,2.8944,2.8363,2.9647,3.2662,3.2168,3.2539,3.353,3.3004,3.2766,3.2736,3.2331,3.1746,3.1086,3.1289,3.172,3.209,3.1194,3.1673,3.2744,3.2035,3.2536,3.3465,3.3246,3.355,3.3988,3.3737,0.0,0.0,0.0,3.3069,3.3706,3.5736,3.7017,3.8341,4.0689,4.0509,4.0342,4.2599,4.2572,4.2538,4.4256,4.4235,4.3819,4.3611,4.2987,4.2305,4.1684,4.0962,4.0496,4.0496,4.0496,4.0496,0.0,0.0,0.0,0.0,0.0,0.0,0.0,4.0389,3.9643,3.8077,3.7859,3.7084,3.5558,3.5383,3.5376,3.55,3.5376,3.5376,3.55,3.55,3.5439,3.532,3.532,3.5182,3.4926,3.4926,3.5008,3.5138,3.5138,3.5138,3.5147,3.5281,3.532,3.5346,3.5453,3.55,3.55,0.0,0.0,0.0,0.0,0.0,0.0,0.0,0.0,0.0,0.0,0.0,2.7152,2.598,0.0,0.0,0.0,2.3317,2.3045,2.372,2.3334,2.354,2.4589,2.5546,2.6031,2.5994,2.6308,2.7045,2.8233,2.7986,2.943,3.2428,3.2359,3.3482,3.5459,3.441,3.3783,3.3484,3.3095,3.2094,3.0793,3.1394,3.1856,3.2153,3.1293,3.1879,3.3089,3.2292,3.2542,3.3153,3.2789,3.3121,3.3578,3.2955,3.2607,0.0,0.0,0.0,3.3001,3.604,3.6803,3.7334,3.989,4.0131,4.0141,4.1777,4.196,4.2288,4.3899,4.3901,4.3549,4.3329,4.2756,4.2135,4.1553,4.0912,4.0496,4.0496,4.0496,4.0496,0.0,0.0,0.0,0.0,0.0,0.0,0.0,4.0496,3.9765,3.8084,3.8007,3.7238,3.5558,3.55,3.55,3.55,3.55,3.55,3.55,3.55,3.55,3.55,3.55,3.5383,3.5207,3.5207,3.5312,3.55,3.55,3.55,3.55,3.55,3.55,3.55,3.55,3.55,3.55,0.0,0.0,0.0,0.0,0.0,0.0,0.0,0.0,0.0,0.0,0.0,2.5722,2.4956,2.4096,2.3245,2.2505,2.21,2.1981,2.2306,2.2395,2.3075,2.4451,2.47,0.0,2.5979,2.572,2.6145,2.7281,2.7391,2.8791,3.1382,3.2139,3.3558,3.5504,3.5219,3.4522,3.3544,3.3955,3.3077,3.1511,3.2168,3.2079,3.1569,3.1623,3.2288,3.3137,3.2696,3.2504,3.2485,3.2713,3.2205,3.1615,3.2602,3.2009,3.1204,0.0,0.0,0.0,3.4266,3.538,3.6444,3.8491,3.9079,3.9347,4.0146,4.0568,4.0984,4.1734,4.2552,4.2876,4.2061,4.1868,4.1569,4.07,4.0535,4.0496,4.0496,4.0496,4.0496,0.0,0.0,0.0,0.0,0.0,0.0,0.0,4.0496,3.9765,3.8084,3.8007,3.7238,3.5558,3.55,3.55,3.55,3.55,3.55,3.55,3.55,3.55,3.55,3.55,3.5493,3.5486,3.5486,3.5493,3.55,3.55,3.55,3.55,3.55,3.55,3.55,3.55,3.55,3.55,0.0,0.0,0.0,0.0,0.0,0.0,0.0,0.0,0.0,0.0,0.0,0.0,0.0,2.3514,2.2801,2.2992,2.281,2.2884,2.3389,2.3638,2.4022,2.4603,2.4871,2.5373,2.6119,2.635,2.6732,2.7265,2.7255,2.8406,3.0577,3.0559,3.1631,3.3649,3.4857,3.4931,3.4143,3.4319,3.3212,3.1469,3.2571,3.2616,3.199,3.1689,3.2388,3.3393,3.2321,3.26,3.3261,3.2347,3.2296,3.2495,3.1631,3.1462,3.1644,3.1803,3.2124,3.265,3.3669,3.4368,3.5209,3.6916,3.7065,3.7312,3.9351,4.0005,4.0436,4.132,4.1901,4.2085,4.1466,4.1604,4.1508,4.065,4.0496,4.0542,4.0616,4.063,4.0636,0.0,0.0,0.0,0.0,0.0,0.0,0.0,0.0,4.0134,3.8104,3.8229,3.7504,3.5551,3.55,3.55,3.55,3.55,3.55,3.55,3.55,3.55,3.55,3.55,3.5528,3.5568,3.5568,3.5547,3.5507,3.5546,3.5568,3.5579,3.5611,3.5596,3.5568,3.5568,3.5568,3.5568,0.0,0.0,0.0,2.9841,0.0,2.8463,2.7413,2.7126,2.6573,2.5223,0.0,0.0,0.0,0.0,2.3208,2.3815,2.3975,2.4236,2.4683,2.4918,2.5197,2.5566,2.5606,2.61,2.7078,2.7071,2.7233,2.7633,2.7425,2.7991,2.9235,2.9387,3.0423,3.2213,3.3543,3.4277,3.4533,3.4919,3.39,3.2109,3.2957,3.3046,3.2661,3.2258,3.2811,3.3668,3.2953,3.3058,3.34,3.2835,0.0,0.0,3.1616,3.1487,3.1709,3.1555,3.2164,3.2891,3.291,3.3571,3.4532,3.558,3.5871,3.6426,3.8328,3.935,4.003,4.0467,4.0986,4.127,4.096,4.1195,4.1241,4.067,4.0584,4.0623,4.0721,4.0736,4.0747,0.0,0.0,0.0,0.0,0.0,0.0,0.0,0.0,0.0,3.862,3.8517,3.7593,3.5605,3.5515,3.55,3.55,3.55,3.5515,3.5534,3.5534,3.554,3.5574,3.5574,3.559,3.5635,3.5635,3.5606,3.5566,3.5621,3.5635,3.5644,3.5678,3.5663,3.5635,3.5635,3.5635,3.5635,3.0823,3.0887,3.0841,3.0223,2.9645,2.9134,2.8676,2.7247,2.6326,2.6603,0.0,0.0,0.0,0.0,0.0,2.481,2.5381,2.5812,2.595,2.6086,2.6518,2.7296,2.6831,2.7295,2.8862,2.7795,2.7584,2.8296,2.7817,2.7502,2.7366,2.8839,3.0208,3.1421,3.1451,3.2572,3.4472,3.5639,3.5058,3.3379,3.339,3.3406,3.3439,3.3375,3.3576,3.4016,3.4637,3.3889,3.2784,3.4213,0.0,0.0,3.2596,3.2089,3.123,3.1457,3.2198,3.2783,0.0,0.0,0.0,3.4466,3.5621,3.6799,3.7015,3.8478,3.9639,3.9007,3.9728,4.0462,4.0481,4.061,4.0703,4.0703,4.0762,4.0801,4.0801,4.0805,4.0805,0.0,0.0,0.0,0.0,0.0,0.0,0.0,4.0821,4.047,3.9648,3.8742,3.7447,3.5659,3.5547,3.5514,3.5514,3.5514,3.5547,3.5596,3.5596,3.5644,3.5707,3.5707,3.5707,3.571,3.571,3.571,3.5713,3.571,3.571,3.571,3.5713,3.571,3.571,3.571,3.571,3.571,3.1435,3.1612,3.1496,3.1032,3.0837,3.0363,2.9268,2.8789,2.8346,0.0,0.0,0.0,0.0,2.6196,2.5909,2.6078,2.6567,2.7058,2.7541,2.7838,2.8077,2.8293,2.8178,2.8335,2.8877,2.8134,2.7891,2.8299,2.7816,2.7609,2.7669,2.8212,2.8893,2.9739,3.0554,3.1489,3.2555,3.3754,3.3048,3.1395,3.3885,3.3973,3.272,3.3796,3.4296,3.4438,3.4258,3.4363,3.4593,0.0,3.3956,3.2914,0.0,3.1604,3.1328,3.1913,3.2812,3.3579,3.3373,0.0,0.0,0.0,0.0,0.0,3.5926,3.6844,3.7653,3.8146,3.9096,3.988,3.9986,4.0422,4.077,4.077,4.0796,4.0824,4.0925,4.0933,4.0988,0.0,0.0,0.0,0.0,0.0,0.0,0.0,4.1206,4.085,3.9664,3.8185,3.6844,3.5706,3.5655,3.5638,3.5638,3.5638,3.5655,3.5663,3.5663,3.5678,3.5707,3.5707,3.5758,3.5843,3.5843,3.5864,3.5907,3.5859,3.5843,3.5845,3.5899,3.5893,3.5843,3.5843,3.5843,3.5843,3.1516,3.1706,3.1709,3.1483,3.1356,3.094,2.9909,2.9544,2.9247,0.0,0.0,0.0,0.0,0.0,2.7601,2.7825,2.809,2.8393,2.8761,2.91,2.9275,2.9275,2.9421,2.942,2.9272,2.8918,2.8775,2.8839,2.8554,0.0,0.0,0.0,2.9074,2.9777,3.0099,3.0631,3.1364,3.2287,3.2422,3.2199,3.3915,3.4196,3.3704,3.4198,3.4503,0.0,0.0,0.0,3.5202,3.5799,3.5443,0.0,0.0,3.242,3.2127,0.0,0.0,3.4226,3.3573,3.4335,3.5154,3.4505,0.0,0.0,3.6087,3.6912,3.7696,3.8264,3.9238,3.9834,3.9382,3.995,4.0394,4.0068,4.0367,4.074,4.1034,4.1081,4.1105,0.0,0.0,0.0,0.0,4.1191,4.1171,4.1082,4.1302,4.0774,3.9269,3.8173,3.7027,3.5814,3.5723,3.5707,3.5707,3.5707,3.5723,3.5775,3.5775,3.5809,3.5834,3.5834,3.5868,3.5945,3.5945,3.5952,3.5996,3.5951,3.5945,3.5947,3.5976,3.5974,3.5945,3.5945,3.5945,3.5945,0.0,3.1538,3.1676,3.1683,3.1586,3.1314,3.0785,3.0106,2.972,0.0,2.9795,0.0,0.0,0.0,0.0,0.0,2.9788,2.9746,2.9746,3.0,3.0142,3.0111,3.0431,3.0395,2.9915,2.9927,2.9833,0.0,0.0,0.0,0.0,0.0,0.0,0.0,3.0072,3.0162,3.086,3.1341,3.2587,3.4218,3.3643,3.4211,3.5292,3.4612,3.4545,3.4871,3.5312,3.5212,3.5091,3.6995,3.7149,0.0,0.0,0.0,0.0,0.0,3.4151,3.4662,3.3357,3.4189,3.5255,3.4704,3.511,0.0,3.673,3.7707,3.8492,3.8744,3.9561,3.9897,3.883,3.9384,3.9788,3.9058,3.9724,4.054,4.1163,4.121,4.1211,0.0,0.0,0.0,4.1191,4.1191,4.1191,4.1191,4.1191,4.0449,3.8691,3.8485,3.7648,3.5968,3.5805,3.5732,3.5732,3.5732,3.5785,3.591,3.591,3.5945,3.5996,3.5996,3.5996,3.5996,3.5996,3.5957,3.5859,3.5859,3.5918,3.5996,3.5996,3.5996,3.5996,3.5996,3.5996,3.5996,3.1485,3.1982,3.2268,3.2117,3.2444,3.2721,3.2599,3.2114,3.2109,3.2942,3.2332,0.0,0.0,0.0,0.0,0.0,3.0881,3.0665,3.057,3.0537,3.0431,3.0266,3.0568,3.0703,3.0601,3.0249,3.0097,0.0,0.0,0.0,0.0,0.0,0.0,0.0,3.0777,3.0928,3.0985,3.1526,3.2195,3.2976,3.3887,3.4442,3.4726,3.5113,3.5344,3.549,3.5509,3.5497,3.5622,3.6336,3.6971,3.7127,0.0,0.0,0.0,3.3795,0.0,0.0,0.0,0.0,0.0,0.0,3.5097,0.0,3.5732,3.5988,3.6523,3.7822,3.831,3.8561,3.8812,3.9218,3.9497,3.9337,3.9604,4.0236,4.1369,4.1342,4.128,4.15,0.0,0.0,4.1191,4.1191,4.1191,4.1191,4.1191,4.0449,3.8691,3.8574,3.7772,3.6034,3.5953,3.5933,3.5933,3.5933,3.5953,3.5975,3.5975,3.5995,3.5996,3.5996,3.5996,3.5996,3.5996,3.5605,3.4941,3.4941,3.5371,3.5996,3.5996,3.5996,3.5996,3.5996,3.5996,3.5996,3.1397,3.1761,3.2161,3.2445,3.2579,3.2762,3.3047,3.2977,3.2932,3.3023,3.2867,0.0,3.2894,0.0,0.0,0.0,0.0,0.0,0.0,3.0802,3.0688,3.0462,3.0672,3.0734,3.0543,3.0644,3.0653,3.0565,0.0,0.0,0.0,0.0,0.0,0.0,3.1647,3.1774,3.2094,3.1968,3.2175,3.2676,3.362,0.0,3.4578,3.5235,3.5554,3.5604,3.5522,3.6038,3.6812,3.7176,3.7707,0.0,3.6545,3.5719,3.5207,0.0,3.466,3.4908,0.0,0.0,0.0,3.5145,0.0,0.0,0.0,3.6322,3.6827,3.7624,3.8138,3.835,3.8018,3.8194,3.8271,3.792,3.834,3.907,4.0149,4.0582,4.0947,4.1352,0.0,0.0,4.1191,4.1191,4.1191,4.1191,4.1191,4.0625,3.9316,3.8848,3.8008,3.6699,3.623,3.5996,3.5996,3.5996,3.5996,3.5996,3.5996,3.5996,3.5996,3.5996,3.5996,3.5976,3.5547,3.5098,3.4668,3.4238,3.457,3.5351,3.5351,3.5625,3.5996,3.5996,3.5996,3.5996,3.1323,3.1522,3.1853,3.2546,3.2515,3.2585,3.3183,3.3281,3.3069,3.2323,3.2927,3.3407,3.3381,3.2704,3.2562,0.0,0.0,0.0,0.0,3.1194,3.1045,3.0959,3.1127,3.1043,3.0685,3.1261,3.139,3.0983,0.0,0.0,0.0,0.0,0.0,0.0,3.2549,3.2686,3.3295,3.2509,3.2529,3.3137,0.0,3.4073,3.4399,3.5353,3.5529,3.5357,3.5623,3.6707,3.8019,3.806,3.8364,3.8564,3.7652,3.6868,0.0,0.0,0.0,0.0,0.0,0.0,0.0,0.0,0.0,3.6255,0.0,0.0,0.0,3.7308,3.776,3.7831,3.6791,0.0,0.0,0.0,0.0,0.0,0.0,3.9438,0.0,4.1198,0.0,0.0,0.0,4.1162,4.113,4.1191,4.1191,4.082,3.9941,3.9238,3.8379,3.7324,3.6621,3.6172,3.5996,3.5996,3.5996,3.5996,3.5996,3.5996,3.5996,3.5996,3.5996,3.5957,3.5078,3.4609,3.4394,3.3691,3.3809,3.4473,3.4629,3.5234,3.5996,3.5996,3.5996,3.5996,3.1522,3.172,3.1954,3.2227,3.2657,3.3196,3.3718,3.3427,3.2944,0.0,0.0,3.4029,3.2454,3.3259,3.384,3.3692,3.2352,0.0,3.3448,3.2122,3.1555,3.2251,3.2581,3.2549,3.2094,3.2392,3.2268,3.1679,0.0,0.0,0.0,0.0,0.0,0.0,3.3264,3.3473,3.3848,3.3195,3.3504,0.0,3.5102,3.4668,0.0,3.5753,3.5705,3.4793,3.6029,3.7483,3.8619,0.0,3.7804,3.827,0.0,3.6363,3.5704,3.586,0.0,0.0,0.0,0.0,0.0,0.0,3.5705,0.0,0.0,0.0,3.5649,3.5896,0.0,3.5401,0.0,0.0,0.0,0.0,0.0,0.0,3.7859,3.812,3.9115,4.1369,4.0754,0.0,0.0,4.1008,4.0886,4.1172,4.1191,4.082,3.9941,3.9805,3.9004,3.7344,3.7207,3.6777,3.6016,3.5996,3.5996,3.5996,3.5996,3.5996,3.5996,3.5996,3.5996,3.5957,3.5078,3.4258,3.3535,3.3437,3.3457,3.3613,3.4394,3.5234,3.5996,3.5996,3.5996,3.5996,3.1559,3.1743,3.2071,3.263,3.2653,3.2861,3.3758,3.3843,3.3947,0.0,0.0,3.4385,3.3315,3.3184,3.3119,3.301,3.1802,3.1384,3.213,3.1977,0.0,3.2087,3.2801,3.3165,3.3186,3.2856,3.2686,3.2602,3.2333,0.0,0.0,0.0,0.0,0.0,3.3867,3.4387,3.5453,3.4794,3.4864,0.0,0.0,3.5453,0.0,3.6654,3.6927,3.6514,3.7316,3.8145,3.8821,0.0,3.8689,0.0,0.0,0.0,0.0,3.6729,0.0,0.0,0.0,0.0,0.0,0.0,0.0,0.0,3.6433,0.0,3.5701,0.0,0.0,0.0,0.0,0.0,0.0,0.0,3.6159,0.0,0.0,0.0,3.8714,0.0,0.0,0.0,0.0,0.0,0.0,0.0,4.1234,4.1019,4.1111,4.0346,3.9336,3.8086,3.7559,3.6875,3.6016,3.5996,3.5996,3.5996,3.5996,3.5996,3.5996,3.5996,3.5996,3.5957,3.5078,3.4492,3.4121,3.3613,3.3691,3.4199,3.4551,3.5234,3.5996,3.5996,3.5996,3.5996,3.1683,3.1853,3.2171,3.2738,3.2663,3.2863,3.3911,3.4175,3.4423,3.5003,3.4871,3.4471,3.3753,3.361,3.3487,3.3288,3.2254,3.1765,3.224,3.2716,3.2914,3.2735,3.3618,3.4095,3.406,3.3593,3.3303,3.3242,3.2824,0.0,0.0,0.0,0.0,0.0,0.0,3.4814,3.6327,3.5756,3.595,3.6631,3.6802,3.6913,3.703,3.7396,3.7887,3.843,3.8474,3.8789,3.9176,3.8813,3.9109,0.0,3.8365,0.0,3.7253,0.0,0.0,0.0,3.614,0.0,0.0,0.0,0.0,0.0,0.0,0.0,0.0,0.0,0.0,0.0,0.0,0.0,0.0,0.0,0.0,3.603,0.0,3.7454,0.0,0.0,0.0,0.0,0.0,0.0,0.0,0.0,0.0,4.1058,4.163,4.0766,3.9863,3.8984,3.8105,3.7246,3.6367,3.6113,3.5996,3.5996,3.5996,3.5996,3.5996,3.5996,3.5996,3.5957,3.5078,3.4707,3.4648,3.4023,3.4121,3.4726,3.4961,3.5429,3.5974,3.5996,3.5996,3.5996,3.189,3.2036,3.2182,3.2209,3.2814,3.3549,3.4448,3.4265,3.3819,3.3261,3.4032,3.4166,3.2955,3.5092,3.6214,3.5376,3.455,3.4555,3.5649,3.5102,3.4813,3.507,3.5729,3.566,3.4693,3.4849,3.4409,3.3398,3.3584,0.0,0.0,0.0,0.0,0.0,3.3898,3.4589,3.5714,3.543,3.6454,3.827,3.8657,3.9265,3.9724,0.0,3.8165,3.9927,3.9166,0.0,0.0,3.8798,3.842,0.0,0.0,0.0,0.0,0.0,0.0,0.0,0.0,0.0,0.0,3.6078,0.0,0.0,0.0,0.0,3.5758,0.0,0.0,0.0,0.0,0.0,0.0,0.0,0.0,0.0,0.0,0.0,0.0,0.0,0.0,0.0,0.0,0.0,0.0,0.0,0.0,0.0,4.0839,4.1044,4.0762,3.9883,3.9004,3.8144,3.7266,3.6426,3.5996,3.5996,3.5996,3.5996,3.5996,3.5996,3.5996,3.5957,3.5078,3.4707,3.4707,3.4668,3.4668,3.4785,3.5625,3.5932,3.591,3.5974,3.5996,3.5996,3.2141,3.2395,3.2503,3.2359,3.301,3.4011,3.539,3.5802,3.5906,3.5653,3.6063,3.5912,3.4645,3.5419,3.5906,3.5569,3.4887,3.4817,3.5668,3.4978,3.4688,3.5049,3.4603,3.4766,3.5656,3.4716,3.4514,3.5122,3.4247,0.0,0.0,0.0,0.0,0.0,0.0,3.5189,3.6882,3.6885,0.0,0.0,0.0,3.9348,3.948,0.0,0.0,4.007,3.9782,3.9876,0.0,3.9308,3.9276,3.9455,3.9172,3.8578,3.8246,3.9328,3.7936,0.0,0.0,0.0,3.6565,3.6679,0.0,0.0,0.0,0.0,0.0,0.0,0.0,0.0,0.0,0.0,0.0,0.0,0.0,0.0,0.0,0.0,0.0,0.0,0.0,0.0,0.0,0.0,0.0,0.0,0.0,0.0,0.0,4.1484,4.0666,3.9807,3.9001,3.8184,3.7305,3.6445,3.5996,3.5996,3.5996,3.5996,3.5996,3.5996,3.5996,3.5976,3.5684,3.5566,3.5566,3.5519,3.5492,3.5509,3.5717,3.5788,3.5775,3.5889,3.5887,3.5802,3.2746,3.3215,3.3287,3.2715,3.359,3.4719,3.5877,3.64,3.6594,3.6368,3.6769,0.0,3.5951,0.0,3.6713,0.0,3.6373,3.6282,3.6239,3.6401,0.0,3.5857,3.5567,3.5711,3.6354,3.5471,3.5256,0.0,0.0,3.4419,0.0,0.0,0.0,0.0,0.0,3.5134,3.6929,3.7288,3.8206,0.0,0.0,3.9444,0.0,0.0,3.9944,4.0096,0.0,4.0096,4.0045,3.9747,3.985,4.0045,3.9747,3.9403,3.9194,3.9606,3.8285,3.6877,3.783,3.7512,0.0,3.7224,3.6905,0.0,3.6247,0.0,0.0,0.0,0.0,0.0,0.0,0.0,0.0,0.0,0.0,0.0,0.0,3.8709,0.0,0.0,3.9926,4.0915,0.0,0.0,0.0,0.0,0.0,0.0,0.0,0.0,4.0742,4.0175,3.9448,3.8633,3.7773,3.6894,3.6309,3.5996,3.5996,3.5996,3.5996,3.5996,3.5996,3.5996,3.5974,3.5952,3.5951,3.5878,3.5834,3.5812,3.5726,3.5686,3.5683,3.5791,3.5769,3.57,3.3661,3.4414,3.4589,3.3429,3.4474,3.5658,3.605,0.0,3.6038,0.0,3.629,3.6825,3.6825,3.8018,3.8685,3.8317,3.9009,3.8936,3.7689,3.9258,0.0,0.0,3.8325,3.8156,3.6758,0.0,0.0,0.0,0.0,0.0,0.0,0.0,0.0,0.0,3.404,0.0,3.5876,3.6591,3.7715,3.905,3.9302,3.967,4.002,3.9566,3.9696,4.0096,4.0096,4.0096,4.0096,4.0096,4.0096,4.0096,4.0096,4.0079,3.991,3.924,3.8471,3.781,3.762,3.7384,3.7312,3.771,0.0,0.0,0.0,0.0,3.8059,0.0,0.0,0.0,0.0,0.0,0.0,0.0,0.0,0.0,0.0,0.0,3.8603,0.0,3.9461,4.0786,3.9792,4.0043,0.0,0.0,0.0,0.0,0.0,0.0,4.099,4.0996,4.0266,3.9472,3.8613,3.7734,3.6855,3.5996,3.5996,3.5996,3.5996,3.5996,3.5996,3.5996,3.5938,3.59,3.5875,3.5752,3.57,3.5696,3.5693,3.565,3.5596,3.5675,3.5693,3.5678,3.4729,3.5283,3.584,3.6129,3.6028,3.6258,0.0,0.0,0.0,0.0,3.8355,3.8546,3.8692,3.9037,3.9651,4.0679,4.0528,0.0,0.0,0.0,0.0,3.8197,3.6961,3.649,3.6905,3.6272,3.6019,3.6183,0.0,0.0,3.5891,0.0,0.0,0.0,0.0,3.4703,3.6206,3.6685,3.7923,3.9494,3.9212,3.9398,0.0,0.0,3.9696,4.0096,4.0096,4.0096,4.0096,4.0096,4.0096,4.0096,4.0096,3.9723,3.9323,3.9459,3.8361,3.7319,3.8339,3.791,3.732,3.7757,3.7449,3.6928,0.0,0.0,0.0,0.0,0.0,0.0,0.0,0.0,0.0,0.0,0.0,0.0,0.0,0.0,0.0,3.7823,3.8629,3.9364,3.9675,0.0,0.0,0.0,0.0,0.0,0.0,0.0,0.0,4.0994,4.0135,3.9322,3.8613,3.7689,3.681,3.5996,3.5996,3.5996,3.5996,3.5996,3.5974,3.5917,3.5907,3.5841,3.5729,3.565,3.5621,3.5611,3.5566,3.5534,3.5534,3.554,3.5558,3.5552,3.6165,3.6865,3.7641,3.8443,0.0,0.0,3.8091,3.8186,0.0,3.8731,3.9035,0.0,3.9388,3.9388,3.9745,4.0641,4.114,0.0,4.0716,0.0,0.0,3.8901,3.7901,3.7563,3.7937,3.7023,0.0,3.686,0.0,0.0,3.6582,0.0,0.0,0.0,0.0,3.5766,3.6987,3.7715,3.8519,3.9302,3.9212,3.9478,0.0,3.9513,3.9696,4.0096,4.0096,4.0096,4.0096,4.0096,4.0096,4.0096,4.0096,3.9744,3.9286,3.9255,3.8368,3.76,3.833,3.8026,3.7614,3.8133,3.794,3.7546,3.7244,3.7536,3.7752,0.0,0.0,0.0,0.0,0.0,0.0,0.0,0.0,0.0,0.0,0.0,0.0,0.0,3.8779,0.0,0.0,0.0,0.0,0.0,0.0,0.0,0.0,0.0,0.0,4.0919,4.0479,3.9872,3.9086,3.8561,3.7708,3.652,3.6484,3.6306,3.595,3.59,3.5859,3.5807,3.5774,3.5728,3.565,3.5574,3.557,3.5538,3.5502,3.55,3.55,3.55,3.55,3.55,3.7926,3.8866,3.9731,4.01,0.0,0.0,0.0,3.8695,0.0,3.8706,0.0,3.9418,3.9508,3.9433,3.9454,3.958,0.0,4.1383,3.9691,4.1464,4.1663,3.9469,3.9747,3.9662,3.912,3.8348,3.7727,0.0,0.0,0.0,0.0,0.0,0.0,3.7767,3.6924,3.7032,0.0,3.9,3.9248,3.895,3.9289,3.967,3.9995,3.9644,3.9747,4.0096,4.0179,4.0171,4.0096,4.0096,4.0096,4.0121,4.0179,3.9983,3.9593,3.899,3.8561,3.8278,3.8059,3.7963,3.8013,3.8562,3.8707,3.8707,3.8707,3.8707,3.8707,3.8707,3.8707,3.8643,0.0,0.0,0.0,0.0,0.0,0.0,0.0,0.0,0.0,0.0,0.0,0.0,0.0,0.0,0.0,0.0,0.0,0.0,0.0,0.0,0.0,4.084,4.0983,0.0,3.9719,0.0,3.8859,3.72,3.7129,3.6667,3.5871,3.5758,3.57,3.5682,3.5621,3.56,3.5568,3.5528,3.55,3.55,3.55,3.55,3.55,3.55,3.55,3.55,4.0085,4.0973,4.1299,4.0298,0.0,4.077,3.9388,3.8784,3.8895,3.9918,3.9679,3.9634,4.0172,3.9753,3.9706,4.0429,4.0779,0.0,0.0,0.0,0.0,3.9454,3.946,3.9202,3.8532,3.8501,3.7862,0.0,0.0,0.0,0.0,0.0,0.0,3.7767,3.7124,3.7371,3.8332,3.8861,0.0,3.9545,3.961,3.9703,3.9781,3.9918,4.002,4.0171,4.0601,4.0473,4.0096,4.0096,4.0096,4.0196,4.0607,4.0308,3.9817,3.9886,3.9196,3.8393,3.852,3.8251,3.8013,3.8562,3.8707,3.8707,3.8707,3.8707,3.8707,3.8707,3.8707,3.8692,3.8643,0.0,0.0,0.0,0.0,0.0,0.0,0.0,0.0,0.0,0.0,4.001,0.0,0.0,0.0,0.0,0.0,0.0,0.0,0.0,0.0,0.0,4.0886,0.0,0.0,0.0,3.8866,3.7209,3.7122,3.6617,3.5726,3.5713,3.5659,3.5626,3.5601,3.5579,3.5528,3.5494,3.55,3.55,3.55,3.55,3.55,3.55,3.55,3.55,4.1784,4.2634,4.319,4.3024,0.0,0.0,0.0,4.0917,4.0185,3.9907,3.9619,3.9508,3.9858,3.9604,3.958,4.0004,4.0538,4.0634,4.0049,4.0553,4.0411,3.9454,3.9829,4.0067,4.0004,3.9513,3.8873,3.8051,0.0,0.0,0.0,0.0,0.0,3.8662,3.8456,3.8351,0.0,0.0,0.0,3.9269,3.9732,3.991,3.9918,4.0062,4.0262,4.0552,4.0803,4.0943,4.0938,4.0625,4.072,4.0984,4.092,4.0793,4.057,4.0288,3.9716,3.9115,3.88,3.8496,3.8382,3.8643,3.8707,3.8707,3.8707,3.8707,3.8707,3.8707,3.8707,3.8658,3.8562,3.8889,0.0,0.0,0.0,0.0,0.0,0.0,3.9228,0.0,0.0,0.0,0.0,0.0,0.0,0.0,0.0,4.0503,0.0,0.0,0.0,0.0,0.0,0.0,0.0,0.0,0.0,3.7722,3.7654,3.6923,3.5642,3.5616,3.5582,3.5552,3.5552,3.5522,3.55,3.55,3.55,3.55,3.55,3.55,3.55,3.55,3.55,3.55,4.2791,4.3642,4.4422,0.0,4.4152,0.0,4.3541,4.2847,4.1718,4.0146,3.997,3.997,3.997,3.997,3.9996,4.0076,4.0781,4.0939,4.0262,4.0837,4.0862,4.0107,4.0646,4.1147,4.1608,4.0797,4.0121,0.0,0.0,0.0,0.0,0.0,0.0,0.0,0.0,0.0,0.0,0.0,3.9573,3.9134,3.9809,4.0171,4.0262,4.0262,4.0601,4.111,4.1246,4.1599,4.1916,4.1446,4.1512,4.1729,4.1402,4.1455,4.1502,4.0637,4.0281,3.9937,3.8964,3.8707,3.8707,3.8707,3.8707,3.8707,3.8707,3.8707,3.8707,3.8707,3.8707,3.8643,3.8496,3.8554,0.0,0.0,0.0,0.0,0.0,0.0,3.9962,0.0,0.0,0.0,4.0252,0.0,0.0,0.0,0.0,4.0564,4.0642,4.0738,0.0,0.0,0.0,4.0752,4.0815,0.0,3.9839,0.0,3.8218,3.7298,3.5828,3.5605,3.55,3.55,3.55,3.55,3.55,3.55,3.55,3.55,3.55,3.55,3.55,3.55,3.55,3.55,0.0,0.0,0.0,0.0,0.0,0.0,4.2412,4.2767,4.2831,4.1884,4.1772,4.1772,4.1772,4.1772,4.1911,4.2257,4.2053,4.2177,4.2813,4.225,4.2006,4.2289,4.2023,4.1901,4.1933,4.1973,4.1287,0.0,0.0,0.0,0.0,0.0,0.0,0.0,0.0,0.0,0.0,3.9867,3.9927,3.9986,4.0079,4.0392,4.0827,4.0827,4.1201,4.1789,4.2342,4.2577,4.2616,4.2539,4.2221,4.1895,4.238,4.2562,4.2372,4.1314,4.1007,4.0636,3.9129,3.8707,3.8707,3.8707,3.8707,3.8707,3.8707,3.8707,3.8707,3.8707,3.8707,3.8692,3.8692,3.888,3.9004,0.0,0.0,0.0,0.0,0.0,4.0776,4.0957,0.0,0.0,4.0346,4.1014,0.0,0.0,4.1,4.0655,4.0779,4.079,4.0833,4.0906,0.0,4.0174,4.0876,4.0117,0.0,3.9275,3.849,3.7579,3.6566,3.5834,3.55,3.55,3.55,3.55,3.55,3.55,3.55,3.55,3.55,3.55,3.55,3.55,3.55,3.55,0.0,0.0,0.0,0.0,0.0,0.0,0.0,4.4097,4.3966,4.3608,4.2645,4.1997,4.1997,4.1997,4.2045,4.2218,4.2093,4.2156,4.2449,4.2171,4.2061,4.2234,4.2588,4.2785,4.2785,4.2443,4.1725,0.0,0.0,0.0,0.0,0.0,0.0,0.0,0.0,4.0137,4.0504,4.0504,4.0528,4.0625,4.0984,4.1036,4.0949,4.1313,4.1793,4.2362,4.2616,4.2902,4.3178,4.3178,4.3014,4.2809,4.2732,4.292,4.2995,4.2089,4.148,4.0838,3.9735,3.9074,3.8707,3.8707,3.8707,3.8707,3.8707,3.8707,3.8707,3.8707,3.8707,3.8707,3.8707,3.8923,3.9258,0.0,0.0,0.0,0.0,0.0,0.0,4.0586,0.0,4.0685,4.0492,4.1273,0.0,0.0,0.0,4.1461,4.1517,4.1606,0.0,4.0968,0.0,4.0109,4.0832,4.0028,3.9501,3.9341,3.8981,3.8344,3.745,3.6615,3.5962,3.55,3.55,3.55,3.55,3.55,3.55,3.55,3.55,3.55,3.55,3.55,3.55,3.55,4.3913,0.0,4.4917,0.0,4.5243,4.477,4.5379,4.4972,4.4626,4.4744,4.3572,4.2769,4.2769,4.2769,4.2789,4.2906,4.2821,4.2855,4.3056,4.2873,4.2789,4.2906,4.3405,0.0,4.368,4.2992,4.2246,4.1499,4.1215,0.0,0.0,0.0,0.0,0.0,4.0062,4.0392,4.0903,4.0903,4.0995,4.1201,4.1621,4.1643,4.1468,4.1895,4.2422,4.2939,4.2939,4.3178,4.3515,4.3515,4.3515,4.3427,4.305,4.3196,4.3332,4.2543,4.1735,4.0912,4.012,3.9313,3.8707,3.8707,3.8707,3.8707,3.8707,3.8707,3.8707,3.8707,3.8707,3.8707,3.8707,3.899,3.9431,4.0,0.0,0.0,0.0,4.0659,0.0,4.0625,4.0462,4.0404,4.0584,4.1132,0.0,0.0,0.0,0.0,0.0,0.0,0.0,0.0,0.0,0.0,0.0,3.9984,3.9607,3.965,3.9419,3.8977,3.8354,3.7488,3.6769,3.6231,3.6231,3.6231,3.6231,3.6231,3.6231,3.6231,3.6231,3.6231,3.6231,3.6231,3.6231,3.6231,4.3141,4.3309,4.3595,4.4462,4.4604,4.471,4.5051,4.4827,4.471,4.5035,4.4793,4.457,4.457,4.457,4.4699,4.5039,4.4776,4.4891,4.5618,4.4989,4.4704,0.0,0.0,4.457,4.457,4.3809,4.3047,4.2286,0.0,0.0,4.007,0.0,4.0113,4.0096,4.0096,4.0392,4.0903,4.0903,4.1228,4.1789,4.181,4.2162,4.2674,4.2692,4.3014,4.3479,4.3479,4.3479,4.3515,4.3515,4.3515,4.3515,4.3479,4.3479,4.3332,4.2543,4.1735,4.0912,4.012,3.9313,3.8707,3.8707,3.8707,3.8707,3.8707,3.8707,3.8707,3.8707,3.8707,3.8707,3.8707,3.9189,3.9493,3.9165,0.0,0.0,0.0,0.0,0.0,4.1456,4.0721,4.0323,4.0565,4.0546,0.0,0.0,0.0,0.0,0.0,0.0,0.0,3.9847,3.9744,0.0,4.0781,3.9945,3.9835,4.0477,3.9688,3.9284,3.9246,3.8373,3.7988,3.7969,3.7969,3.7969,3.7969,3.7969,3.7969,3.7969,3.7969,3.7969,3.7969,3.7969,3.7969,3.7969,4.4519,4.4364,4.4335,4.4721,4.4692,4.4626,4.4732,4.4666,4.4626,4.4732,4.4666,4.4615,4.4615,4.4615,4.4643,0.0,4.5462,4.5387,0.0,4.4764,4.4552,4.3238,4.4185,4.4737,4.4737,4.3973,4.3491,4.3253,0.0,0.0,0.0,4.0096,4.0096,4.0121,4.0473,4.0967,4.1534,4.1958,4.2223,4.246,4.2809,4.2847,4.275,4.3105,4.3357,4.3515,4.3515,4.3515,4.3515,4.3515,4.3515,4.3515,4.3515,4.3515,4.346,4.3185,4.2543,4.1754,4.0946,4.0139,3.9386,3.8836,3.8707,3.8707,3.8707,3.8707,3.8707,3.8707,3.8707,3.8747,3.8933,3.9308,3.9764,4.0239,4.0585,0.0,0.0,0.0,4.0755,4.0822,4.0524,4.0442,4.0709,4.1164,0.0,0.0,0.0,0.0,0.0,0.0,0.0,0.0,4.0,0.0,4.0737,3.9863,3.9791,4.0496,4.0246,3.9823,3.9284,3.9015,3.8565,3.8007,3.8007,3.8007,3.8007,3.8007,3.8007,3.8007,3.8007,3.8007,3.8007,3.8007,3.8007,3.8007,4.4931,4.4775,4.4637,4.4758,4.4675,4.4643,4.4754,4.4682,4.4643,4.4754,4.4682,4.4615,4.4615,4.4615,0.0,4.4615,4.5048,4.4783,4.3477,4.3917,4.3647,4.2354,4.3308,4.3871,4.3871,0.0,0.0,4.3158,4.14,4.0493,4.0519,4.0447,4.0417,4.0424,4.099,4.1578,4.2162,4.2539,4.2826,4.3032,4.3375,4.3286,4.3032,4.3375,4.3515,4.3515,4.3515,4.3515,4.3515,4.3515,4.3515,4.3515,4.3515,4.3515,4.3515,4.3515,4.2928,4.2194,4.1682,4.0744,3.9772,3.9276,3.8927,3.8707,3.8707,3.8707,3.8707,3.8707,3.8773,3.8894,3.9058,3.9481,3.9968,4.052,4.0548,4.063,4.1003,0.0,4.0836,0.0,0.0,0.0,0.0,4.1228,4.1494,0.0,0.0,0.0,0.0,0.0,0.0,4.0508,4.0267,0.0,4.0733,4.0174,4.01,4.0496,4.0496,4.0246,3.9746,3.9746,3.9457,3.8931,3.8931,3.8931,3.8931,3.8931,3.8931,3.8931,3.8931,3.8931,3.8931,3.8931,3.8931,3.8931,4.4637,4.4609,0.0,0.0,4.4604,0.0,4.5027,4.4793,4.4722,4.5014,4.4805,4.4615,4.4615,4.4615,4.4581,4.453,0.0,0.0,0.0,4.2692,4.2303,4.2134,4.2262,4.2313,4.2313,4.1653,4.1619,4.2281,4.1655,4.1316,4.1325,4.1088,4.0972,4.0995,4.1599,4.2162,4.2693,4.275,4.3032,4.3515,4.3515,4.3515,4.3515,4.3515,4.3515,4.3515,4.3515,4.3515,4.3515,4.3515,4.3515,4.3515,4.3515,4.3515,4.3515,4.3515,4.2965,4.2378,4.2323,4.1203,4.0029,3.9918,3.9294,3.8707,3.8707,3.8704,3.8719,3.8719,3.8933,3.9133,3.9178,3.9679,4.0101,4.012,4.0396,4.0593,4.0585,0.0,0.0,0.0,0.0,0.0,0.0,4.0995,4.1383,0.0,0.0,0.0,0.0,0.0,3.975,3.987,4.0547,4.0854,4.0776,4.0718,4.0615,4.0496,4.0496,4.0496,4.0496,4.0496,4.0496,4.0496,4.0496,4.0496,4.0496,4.0496,4.0496,4.0496,4.0496,4.0496,4.0496,4.0496,4.0496,4.0496,0.0,0.0,4.4643,4.4804,4.4714,4.4637,4.4722,4.466,4.4637,4.4722,4.466,4.4615,4.4615,4.4615,4.4333,4.3741,4.4457,4.4024,4.1854,4.2534,4.2271,4.0705,4.1842,4.2549,4.2549,4.2353,4.2236,4.2216,4.2457,4.2565,4.2565,4.1903,4.1578,4.1621,4.2203,4.2577,4.2731,4.3142,4.3392,4.3515,4.3515,4.3515,4.3515,4.3515,4.3515,4.3515,4.3515,4.3515,4.3515,4.3515,4.3515,4.3515,4.3515,4.3515,4.3515,4.3515,4.3369,4.3075,4.247,4.2029,4.1442,4.0212,3.9294,3.8707,3.8707,3.8855,3.9013,3.9013,3.9257,3.9564,3.9808,3.9992,4.0167,4.0372,4.1014,4.1473,4.1421,4.2142,0.0,0.0,4.2672,4.2821,4.2784,4.287,4.306,0.0,0.0,0.0,0.0,4.0722,4.0019,4.0557,4.073,4.0734,4.0565,4.0556,4.0526,4.0496,4.0496,4.0496,4.0496,4.0496,4.0496,4.0496,4.0496,4.0496,4.0496,4.0496,4.0496,4.0496,4.0496,4.0496,4.0496,4.0496,4.0496,4.0496,4.4886,4.4766,4.4632,4.4733,4.4653,4.4615,4.4615,4.4615,4.4615,4.4615,4.4615,4.4615,4.4615,4.4615,4.4415,4.3903,4.3919,4.3175,4.1322,4.1565,4.1278,4.0163,4.1212,4.1822,4.1822,4.2099,4.2334,4.2526,4.2811,4.2965,4.2947,4.2436,4.2203,4.2223,4.2808,4.3087,4.3069,4.3375,4.3515,4.3515,4.3515,4.3515,4.3515,4.3515,4.3515,4.3515,4.3515,4.3515,4.3515,4.3515,4.3515,4.3515,4.3515,4.3515,4.3515,4.3515,4.3515,4.3387,4.2965,4.258,4.1992,4.0763,3.9964,3.9472,3.9438,3.9263,3.9133,3.9289,3.9599,4.0005,4.0557,4.0768,4.1058,4.1607,4.2069,4.2351,4.2298,4.3019,0.0,4.3138,4.3489,4.3674,4.3504,4.3556,4.3627,4.3686,0.0,0.0,4.2964,4.1712,4.0956,4.0889,4.0824,4.0733,4.0589,4.0523,4.0496,4.0496,4.0496,4.0496,4.0496,4.0496,4.0496,4.0496,4.0496,4.0496,4.0496,4.0496,4.0496,4.0496,4.0496,4.0496,4.0496,4.0496,4.0414,4.0321,4.4615,4.4615,4.4615,4.4615,4.4615,4.4626,4.472,4.4748,4.4776,4.4852,4.4852,4.4852,4.4852,4.4852,4.478,4.457,4.3322,4.2244,4.1512,4.0787,4.036,4.036,4.078,4.1041,4.1041,4.1744,4.2434,4.3052,4.3138,4.318,4.3163,4.2938,4.2826,4.2845,4.3286,4.3515,4.3515,4.3515,4.3515,4.3515,4.3515,4.3515,4.3515,4.3515,4.3515,4.3515,4.3515,4.3515,4.3515,4.3515,4.3515,4.3515,4.3515,4.3531,4.358,4.358,4.3614,4.3664,4.3597,4.3025,4.2281,4.1599,4.1041,4.0638,4.0578,4.009,3.9714,3.9981,4.0323,4.075,4.1447,4.1805,4.2231,4.2953,4.3131,4.3181,4.3164,0.0,4.4218,4.3659,4.4215,4.4472,4.4014,4.3993,4.4029,4.4082,4.3963,4.3904,0.0,4.3066,4.2204,4.1395,4.0997,4.0752,4.0667,4.0559,4.0496,4.0496,4.0496,4.0496,4.0496,4.0496,4.0496,4.0496,4.0496,4.0496,4.0496,4.0496,4.0496,4.0496,4.0496,4.0496,4.0489,4.0457,4.0304,4.0091,4.4615,4.4615,4.4615,4.4615,4.4615,4.4759,4.5267,4.5372,4.5545,4.6046,4.6119,4.6119,4.6119,4.6119,4.5851,4.5217,4.4325,4.3504,4.2775,4.1974,4.1552,4.1552,4.1617,4.1664,4.1664,4.2908,4.3622,4.3748,4.4195,4.4419,4.4419,4.3705,4.3375,4.3375,4.3462,4.3515,4.3515,4.3515,4.3515,4.3515,4.3515,4.3515,4.3515,4.3515,4.3515,4.3515,4.3515,4.3515,4.3515,4.3515,4.3515,4.3515,4.3515,4.3693,4.3924,4.3924,4.4165,4.435,4.4016,4.3544,4.3117,4.2985,4.2379,4.1826,4.1826,4.1935,4.2077,4.2119,4.2403,4.267,4.2804,4.2849,4.2906,4.2935,4.3586,4.4066,4.3953,0.0,4.5435,4.5316,4.5613,4.5794,4.5718,4.581,4.5898,4.5898,4.5215,4.4804,4.4805,4.3914,4.3305,4.3047,4.1587,4.0713,4.0523,4.0512,4.0496,4.0496,4.0496,4.0496,4.0496,4.0496,4.0496,4.0496,4.0496,4.0496,4.0496,4.0496,4.0496,4.0496,4.0496,4.0496,4.0473,4.026,4.0129,4.0071,4.4615,4.4615,4.4692,4.5025,4.5089,4.5294,4.589,4.5989,4.607,4.6359,4.6407,4.6407,4.6407,4.6407,4.6406,4.6436,4.5702,4.5042,4.4596,4.2825,4.181,4.181,4.2121,4.2422,4.2715,4.3359,4.367,4.367,4.4363,4.4691,4.4691,4.4323,4.4158,4.4121,4.3681,4.3515,4.3515,4.3515,4.3515,4.3515,4.3515,4.3515,4.3515,4.3515,4.3515,4.3515,4.3515,4.3515,4.3531,4.371,4.3756,4.3804,4.402,4.4194,4.4318,4.4318,4.4441,4.4553,4.4359,4.4304,4.423,4.404,4.3526,4.3065,4.3024,4.2792,4.265,4.2833,4.2998,4.3239,4.3662,4.3739,4.3876,4.4303,4.4697,0.0,0.0,4.5399,4.5738,4.5843,4.6001,4.612,4.62,4.6268,4.6308,4.6308,4.5937,4.5663,4.5593,4.4735,4.4163,4.3995,4.2722,4.1994,4.1901,4.1431,4.12,4.1181,4.0727,4.0496,4.0496,4.0496,4.0496,4.0496,4.0496,4.0496,4.0496,4.0496,4.0496,4.0496,4.0496,4.0496,4.0481,4.0364,4.012,3.9808,4.5025,4.5025,4.5152,4.5622,4.5707,4.5933,4.6548,4.6641,4.6687,4.6824,4.6847,4.6847,4.6847,4.6847,4.7044,4.7572,4.6869,4.6341,4.6177,4.3833,4.2402,4.2206,4.2637,4.3069,4.3479,4.3515,4.3515,4.3515,4.4305,4.4691,4.4691,4.4892,4.4892,4.4654,4.4048,4.368,4.3515,4.3515,4.3515,4.3515,4.3515,4.3548,4.3631,4.3631,4.3679,4.3761,4.3761,4.3761,4.3791,4.4046,4.4132,4.419,4.4501,4.4644,4.4726,4.4726,4.4769,4.4825,4.4751,4.4954,4.515,4.4908,4.4557,4.4267,4.4237,4.3731,4.336,4.3628,4.3682,4.3874,4.4489,4.4605,4.4816,4.5444,0.0,0.0,0.0,4.5732,4.5837,4.6003,4.6095,4.6198,4.6289,4.6308,4.6308,4.6308,4.6308,4.6246,4.6113,4.5431,4.497,4.4762,4.3674,4.3104,4.3104,4.245,4.2104,4.2085,4.1412,4.1112,4.1112,4.1112,4.1112,4.1112,4.1112,4.1112,4.1112,4.1112,4.1112,4.1112,4.1112,4.0977,4.0796,4.071,4.0263,3.969,4.6264,4.6264,4.6288,4.6336,4.6336,4.6571,4.7216,4.7342,4.753,4.8094,4.8172,4.8172,4.8172,4.8172,4.8191,4.823,4.7496,4.7038,4.7003,4.5425,4.4144,4.341,4.3427,4.3444,4.3515,4.3515,4.3515,4.3515,4.4305,4.4691,4.4709,4.5461,4.5406,4.4691,4.4654,4.4195,4.3515,4.3515,4.3515,4.3515,4.3515,4.3695,4.3971,4.3971,4.419,4.4514,4.4514,4.4514,4.4514,4.454,4.4553,4.4553,4.458,4.4806,4.5063,4.5063,4.5273,4.5448,4.5159,4.5312,4.5559,4.5522,4.5502,4.5472,4.5472,4.5414,4.5385,4.5413,4.5421,4.5441,4.5498,4.5498,4.5482,4.541,0.0,0.0,4.5614,4.5823,4.6006,4.6087,4.6202,4.6289,4.6308,4.6308,4.6308,4.6308,4.6308,4.6246,4.6113,4.5926,4.5737,4.5533,4.394,4.3104,4.3104,4.3047,4.3008,4.3008,4.2931,4.2912,4.2912,4.2912,4.2912,4.2912,4.2912,4.2912,4.2912,4.2912,4.2912,4.2912,4.2912,4.2412,4.1676,4.137,4.074,3.9963,4.6407,4.6407,4.6524,4.6955,4.7021,4.7237,4.7858,4.7957,4.8035,4.8267,4.8306,4.8306,4.8306,4.8306,4.8306,4.8306,4.8012,4.7626,4.7131,4.6067,4.4856,4.357,4.3515,4.3515,4.3515,4.3515,4.3515,4.3515,4.48,4.5443,4.5461,4.6269,4.647,4.614,4.515,4.4645,4.4524,4.4024,4.3958,4.4165,4.4165,4.4252,4.4359,4.4359,4.4474,4.4593,4.4593,4.4593,4.4618,4.4849,4.4908,4.4943,4.515,4.5312,4.541,4.541,4.5504,4.5577,4.5438,4.5504,4.5594,4.5594,4.5594,4.5594,4.5594,4.5594,4.5594,4.5594,4.5594,4.5594,4.5594,4.5594,4.561,4.563,0.0,4.5789,4.5894,4.6005,4.6097,4.6203,4.6268,4.6308,4.6308,4.6308,4.6308,4.6308,4.6308,4.6246,4.6113,4.5933,4.577,4.5603,4.4979,4.4643,4.4643,4.4105,4.3835,4.3835,4.3335,4.3104,4.3104,4.3104,4.3104,4.3104,4.3104,4.3104,4.3104,4.3104,4.3104,4.3069,4.2823,4.2527,4.2183,4.1865,4.1434,4.0979,4.6999,4.6999,4.7132,4.7614,4.7677,4.7818,4.8248,4.8306,4.8306,4.8306,4.8306,4.8306,4.8306,4.8306,4.8306,4.8306,4.8306,4.8086,4.7498,4.6489,4.5168,4.357,4.3515,4.3515,4.3515,4.3515,4.3515,4.3515,4.5112,4.5902,4.592,4.6966,4.7408,4.7223,4.5858,4.5298,4.5335,4.4531,4.4364,4.4593,4.4593,4.4657,4.4763,4.4763,4.4818,4.4919,4.4919,4.4919,4.4954,4.5191,4.5253,4.5302,4.5522,4.5594,4.5594,4.5594,4.5594,4.5594,4.5594,4.5594,4.5594,4.5594,4.5594,4.5594,4.5594,4.5594,4.5594,4.5594,4.5594,4.5594,4.5594,4.5635,4.5685,4.5783,4.585,4.5929,4.6077,4.6142,4.62,4.6289,4.6308,4.6308,4.6308,4.6308,4.6308,4.6308,4.6308,4.6224,4.6045,4.5842,4.5712,4.5594,4.5594,4.5594,4.5594,4.5017,4.4701,4.4701,4.4143,4.3893,4.3893,4.3893,4.3893,4.3893,4.3893,4.3831,4.3721,4.3721,4.3675,4.3541,4.3278,4.3,4.272,4.2485,4.2125,4.1721,4.8306,4.8306,4.8306,4.8306,4.8306,4.8306,4.8306,4.8306,4.8306,4.8306,4.8306,4.8306,4.8306,4.8306,4.8306,4.8306,4.8306,4.8306,4.8306,4.6801,4.5186,4.3588,4.3515,4.3515,4.3515,4.3515,4.3515,4.3515,4.5112,4.5902,4.5938,4.7553,4.8089,4.7683,4.6797,4.6192,4.5776,4.4951,4.4643,4.4624,4.4624,4.4812,4.5115,4.5115,4.5312,4.5594,4.5594,4.5594,4.5594,4.5594,4.5594,4.5594,4.5594,4.5594,4.5594,4.5594,4.5594,4.5594,4.5594,4.5594,4.5594,4.5594,4.5594,4.5594,4.5594,4.5594,4.5594,4.5594,4.5594,4.5594,4.5594,4.5715,4.5803,4.5803,4.5963,4.6108,4.611,4.6222,4.6308,4.6308,4.6308,4.6308,4.6308,4.6308,4.6308,4.6308,4.6308,4.6177,4.5912,4.5708,4.5594,4.5594,4.5594,4.5594,4.5594,4.5594,4.5594,4.5594,4.5594,4.5594,4.5594,4.5594,4.5594,4.5594,4.5594,4.541,4.5096,4.5096,4.4896,4.4593,4.4612,4.407,4.3309,4.3296,4.2756,4.1977,4.8306,4.8306,4.8306,4.8306,4.8306,4.8306,4.8306,4.8306,4.8306,4.8306,4.8306,4.8306,4.8306,4.8306,4.8306,4.8306,4.8306,4.8067,4.748,4.7003,4.6012,4.4415,4.3791,4.3515,4.3515,4.3515,4.3515,4.3515,4.5112,4.5902,4.5957,4.7846,4.8666,4.8522,4.7965,4.7804,4.7851,4.7058,4.6843,4.7016,4.6442,4.6272,4.6302,4.5668,4.5513,4.5594,4.5594,4.5594,4.5594,4.5594,4.5594,4.5594,4.5594,4.5594,4.5594,4.5594,4.5594,4.5594,4.5594,4.5594,4.5594,4.5594,4.5594,4.5594,4.5594,4.5594,4.5594,4.5594,4.568,4.574,4.574,4.5801,4.5896,4.599,4.6064,4.6122,4.6225,4.6269,4.6308,4.6308,4.6308,4.6308,4.6308,4.6308,4.6308,4.6308,4.6203,4.6082,4.5907,4.5802,4.5692,4.5594,4.5594,4.5594,4.5594,4.5594,4.5594,4.5594,4.5594,4.5594,4.5594,4.5594,4.5594,4.5586,4.5342,4.5201,4.5085,4.4849,4.4682,4.4567,4.4276,4.4011,4.3758,4.3528,4.3288,4.3035,4.8306,4.8306,4.8306,4.8306,4.8306,4.8306,4.8306,4.8306,4.8306,4.8306,4.8306,4.8306,4.8306,4.8306,4.8306,4.8306,4.8306,4.8104,4.7608,4.7278,4.6672,4.5682,4.4874,4.4157,4.3497,4.3809,4.406,4.4206,4.5816,4.6697,4.6863,4.8429,4.9218,4.9363,4.8761,4.8706,4.8985,4.8146,4.7913,4.8067,4.7567,4.7375,4.7317,4.6797,4.6394,4.6105,4.6105,4.5893,4.5594,4.5594,4.5594,4.5594,4.5594,4.5594,4.5594,4.5594,4.5594,4.5594,4.5594,4.5594,4.5594,4.5594,4.5594,4.5594,4.5594,4.5643,4.5688,4.5688,4.5764,4.5836,4.5836,4.5929,4.6018,4.6084,4.6145,4.6202,4.6289,4.6308,4.6308,4.6308,4.6308,4.6308,4.6308,4.6308,4.6289,4.6224,4.6108,4.5971,4.5871,4.577,4.5669,4.5594,4.5594,4.5594,4.5594,4.5594,4.5594,4.5594,4.5594,4.5594,4.5594,4.5594,4.5522,4.54,4.5191,4.4924,4.4651,4.4441,4.428,4.4154,4.3896,4.3804,4.3772,4.3563,4.3515,4.3515,4.8306,4.8306,4.8306,4.8306,4.8306,4.8306,4.8306,4.8306,4.8306,4.8306,4.8306,4.8306,4.8306,4.8306,4.8306,4.8306,4.8306,4.8325,4.8345,4.7665,4.7242,4.7169,4.6488,4.5384,4.3804,4.4504,4.5041,4.5404,4.6986,4.7938,4.8319,4.9169,4.9746,5.0073,4.9315,4.9179,4.9452,4.8663,4.8336,4.8336,4.8259,4.8221,4.8221,4.8125,4.7663,4.7,4.6923,4.6394,4.571,4.5633,4.5594,4.5594,4.5594,4.5594,4.5594,4.5594,4.5594,4.5594,4.5594,4.5612,4.562,4.562,4.5618,4.5627,4.5629,4.5711,4.5803,4.5803,4.5866,4.5916,4.5916,4.6033,4.6117,4.6117,4.6223,4.6308,4.6308,4.6308,4.6308,4.6308,4.6308,4.6308,4.6308,4.6289,4.6225,4.6113,4.5971,4.5852,4.5809,4.5673,4.5594,4.5594,4.5594,4.5594,4.5594,4.5594,4.5594,4.5594,4.5594,4.5594,4.5594,4.5568,4.54,4.5096,4.5041,4.4625,4.4001,4.3971,4.3772,4.3515,4.3515,4.3515,4.3515,4.3515,4.3515,4.3515,4.8306,4.8306,4.8306,4.8306,4.8306,4.8306,4.8306,4.8306,4.8306,4.8306,4.8306,4.8306,4.8306,4.8306,4.8306,4.8306,4.8306,4.8439,4.8744,4.8612,4.8223,4.7608,4.7707,4.7173,4.5876,4.6027,4.6153,4.6246,4.7541,4.8216,4.8319,4.9447,5.0019,5.0104,5.0229,5.0345,5.0423,5.0231,5.0144,5.0067,4.9394,4.9125,4.9048,4.8355,4.799,4.7759,4.7135,4.6778,4.6509,4.5825,4.5594,4.5594,4.5594,4.5594,4.5594,4.5594,4.5594,4.5594,4.5594,4.568,4.5761,4.5761,4.5808,4.5828,4.5776,4.5819,4.5881,4.5881,4.5971,4.6069,4.6069,4.6171,4.6267,4.6267,4.6289,4.6308,4.6308,4.6308,4.6308,4.6308,4.6308,4.6308,4.6308,4.6201,4.612,4.6091,4.592,4.5821,4.5803,4.5673,4.5594,4.5594,4.5594,4.5594,4.5594,4.5594,4.5594,4.5594,4.5594,4.5594,4.5586,4.5332,4.518,4.5074,4.4495,4.4146,4.3986,4.371,4.3582,4.3515,4.3515,4.3515,4.3515,4.3515,4.3515,4.3515,4.8306,4.8306,4.8306,4.8306,4.8306,4.8306,4.8306,4.8306,4.8306,4.8306,4.8306,4.8306,4.8306,4.8306,4.8306,4.8306,4.8477,4.8675,4.888,4.9075,4.8999,4.8568,4.8761,4.8583,4.7943,4.8121,4.8032,4.7636,4.8659,4.9246,4.9456,5.0103,5.0399,5.0399,5.0604,5.0712,5.0712,5.0712,5.0712,5.0654,5.0202,5.001,4.9971,4.951,4.9086,4.8663,4.824,4.7586,4.6778,4.5893,4.5594,4.5594,4.5594,4.5594,4.5594,4.5594,4.5651,4.5692,4.5692,4.577,4.5859,4.5859,4.5918,4.5967,4.5871,4.5918,4.5992,4.5992,4.6091,4.6199,4.6199,4.6248,4.6308,4.6308,4.6308,4.6308,4.6308,4.6308,4.6308,4.6308,4.6308,4.6269,4.6202,4.6144,4.6064,4.5955,4.5856,4.5763,4.5708,4.5635,4.5594,4.5594,4.5594,4.5594,4.5594,4.5594,4.5594,4.5594,4.5594,4.5594,4.5586,4.5243,4.5,4.4837,4.4247,4.3909,4.3758,4.3563,4.3515,4.3515,4.3515,4.3515,4.3515,4.3515,4.3515,4.3515,4.8306,4.8306,4.8306,4.8306,4.8306,4.8306,4.8306,4.8306,4.8306,4.8306,4.8306,4.8306,4.8306,4.8364,4.8402,4.8402,4.8761,4.9027,4.9108,4.9416,4.9589,4.9589,4.9678,4.9678,4.9589,5.0006,4.9828,4.9105,4.9828,5.0369,5.0712,5.0712,5.0712,5.0712,5.0712,5.0712,5.0712,5.0712,5.0712,5.0712,5.0712,5.0712,5.0712,5.0712,5.025,4.9606,4.9452,4.8413,4.6971,4.6105,4.5825,4.5806,4.5676,4.5635,4.5635,4.5657,4.5728,4.5821,4.5821,4.5876,4.5928,4.5928,4.6036,4.611,4.5992,4.6047,4.6122,4.6122,4.6224,4.6308,4.6308,4.6308,4.6308,4.6308,4.6308,4.6308,4.6308,4.6308,4.6308,4.6308,4.6289,4.6224,4.6113,4.6069,4.5971,4.5803,4.5769,4.5723,4.5603,4.5594,4.5594,4.5594,4.5594,4.5594,4.5594,4.5594,4.5594,4.5594,4.5594,4.5568,4.5504,4.518,4.4837,4.4474,4.4091,4.3775,4.3515,4.3515,4.3515,4.3515,4.3515,4.3515,4.3515,4.3515,4.3515,4.3515,4.8306,4.8306,4.8306,4.8306,4.8306,4.8306,4.8306,4.8306,4.8306,4.8306,4.8306,4.8306,4.8306,4.8622,4.883,4.883,4.9187,4.9561,4.9905,4.9987,5.0031,5.0031,5.0347,5.0369,5.0031,5.041,5.0404,4.994,5.0404,5.0653,5.0712,5.0712,5.0712,5.0712,5.0712,5.0712,5.0712,5.0712,5.0712,5.0712,5.0712,5.0712,5.0712,5.0712,5.0635,5.0442,4.9663,4.8779,4.7817,4.7009,4.6721,4.6621,4.5957,4.5763,4.5777,4.5836,4.5862,4.5896,4.5896,4.5974,4.6077,4.6077,4.6174,4.6268,4.6247,4.6268,4.6269,4.6269,4.6289,4.6308,4.6308,4.6308,4.6308,4.6308,4.6308,4.6308,4.6308,4.6308,4.6308,4.6308,4.62,4.6117,4.611,4.5929,4.5828,4.5803,4.5685,4.5629,4.5594,4.5594,4.5594,4.5594,4.5594,4.5594,4.5594,4.5594,4.5594,4.5594,4.5594,4.5438,4.5169,4.4825,4.4441,4.4058,4.371,4.3548,4.3515,4.3515,4.3515,4.3515,4.3515,4.3515,4.3515,4.3515,4.3515,4.3515,4.8306,4.8306,4.8306,4.8306,4.8306,4.8383,4.8604,4.864,4.864,4.864,4.864,4.864,4.864,4.8996,4.9234,4.9234,4.9603,4.9911,5.008,5.0313,5.0451,5.0451,5.0604,5.0614,5.0432,5.0614,5.0614,5.0451,5.0614,5.0712,5.0712,5.0712,5.0712,5.0712,5.0712,5.0712,5.0712,5.0712,5.0712,5.0712,5.0712,5.0712,5.0712,5.0712,5.0712,5.0596,4.9702,4.9197,4.8805,4.7975,4.7412,4.701,4.6674,4.6249,4.5866,4.5885,4.5944,4.6005,4.6005,4.6113,4.6202,4.6202,4.6267,4.6308,4.6308,4.6308,4.6308,4.6308,4.6308,4.6308,4.6308,4.6308,4.6308,4.6308,4.6308,4.6308,4.6308,4.6308,4.6268,4.62,4.6142,4.6061,4.5933,4.5844,4.5775,4.5685,4.5627,4.5594,4.5594,4.5594,4.5594,4.5594,4.5594,4.5594,4.5594,4.5594,4.5594,4.5594,4.5594,4.5513,4.5352,4.4849,4.4501,4.429,4.3742,4.3515,4.3515,4.3515,4.3515,4.3515,4.3515,4.3515,4.3515,4.3515,4.3515,4.3515]}]]